<?xml version='1.0' encoding='UTF-8'?><gpx version="1.1" creator="JPX - https://github.com/jenetics/jpx" xmlns="http://www.topografix.com/GPX/1/1"><trk><trkseg><trkpt lat="45.42415607343718" lon="9.065482917114293"><ele>121.99999999999999</ele><time>2026-04-08T14:56:12.998Z</time></trkpt><trkpt lat="45.42409783526439" lon="9.065521109114503"><ele>122.0</ele><time>2026-04-08T14:56:16.998Z</time></trkpt><trkpt lat="45.424028863306866" lon="9.065422236367157"><ele>122.0</ele><time>2026-04-08T14:56:23.998Z</time></trkpt><trkpt lat="45.423991789055485" lon="9.065337627969381"><ele>122.0</ele><time>2026-04-08T14:56:24.998Z</time></trkpt><trkpt lat="45.423942004756626" lon="9.065244314746217"><ele>121.99999999999999</ele><time>2026-04-08T14:56:25.998Z</time></trkpt><trkpt lat="45.42391149314271" lon="9.06515854474372"><ele>122.0</ele><time>2026-04-08T14:56:26.998Z</time></trkpt><trkpt lat="45.42387723170684" lon="9.065047280196305"><ele>121.83333333333333</ele><time>2026-04-08T14:56:28.998Z</time></trkpt><trkpt lat="45.423922355261205" lon="9.064930886233753"><ele>121.66666666666666</ele><time>2026-04-08T14:56:30.998Z</time></trkpt><trkpt lat="45.42398422677846" lon="9.064881591515748"><ele>121.5</ele><time>2026-04-08T14:56:31.998Z</time></trkpt><trkpt lat="45.42405533060624" lon="9.064855086959161"><ele>121.33333333333334</ele><time>2026-04-08T14:56:32.998Z</time></trkpt><trkpt lat="45.424136423044814" lon="9.064817594476942"><ele>121.16666666666667</ele><time>2026-04-08T14:56:33.998Z</time></trkpt><trkpt lat="45.424214313576805" lon="9.064766089414272"><ele>121.0</ele><time>2026-04-08T14:56:34.998Z</time></trkpt><trkpt lat="45.42427258679017" lon="9.064726355643922"><ele>121.0</ele><time>2026-04-08T14:56:35.998Z</time></trkpt><trkpt lat="45.42437776296016" lon="9.064654420045697"><ele>121.0</ele><time>2026-04-08T14:56:37.998Z</time></trkpt><trkpt lat="45.42449683621819" lon="9.064579546151732"><ele>121.0</ele><time>2026-04-08T14:56:39.998Z</time></trkpt><trkpt lat="45.42457976697012" lon="9.064530791921422"><ele>121.0</ele><time>2026-04-08T14:56:40.998Z</time></trkpt><trkpt lat="45.4246823171785" lon="9.064475287037968"><ele>121.0</ele><time>2026-04-08T14:56:41.998Z</time></trkpt><trkpt lat="45.424777489365454" lon="9.06442787226431"><ele>120.66666666666667</ele><time>2026-04-08T14:56:42.998Z</time></trkpt><trkpt lat="45.42485919230762" lon="9.064390310377865"><ele>120.33333333333334</ele><time>2026-04-08T14:56:43.998Z</time></trkpt><trkpt lat="45.42494055346772" lon="9.064355862328831"><ele>120.0</ele><time>2026-04-08T14:56:44.998Z</time></trkpt><trkpt lat="45.42502202202881" lon="9.064325735749868"><ele>119.66666666666666</ele><time>2026-04-08T14:56:45.998Z</time></trkpt><trkpt lat="45.425094654696245" lon="9.06430389070452"><ele>119.33333333333333</ele><time>2026-04-08T14:56:46.998Z</time></trkpt><trkpt lat="45.425195111640164" lon="9.064272810274442"><ele>119.0</ele><time>2026-04-08T14:56:47.998Z</time></trkpt><trkpt lat="45.42530835000919" lon="9.064241074340776"><ele>119.0</ele><time>2026-04-08T14:56:48.998Z</time></trkpt><trkpt lat="45.42541935221323" lon="9.06420746899187"><ele>119.0</ele><time>2026-04-08T14:56:49.998Z</time></trkpt><trkpt lat="45.42553089288652" lon="9.064175554897462"><ele>119.0</ele><time>2026-04-08T14:56:50.998Z</time></trkpt><trkpt lat="45.4256367464748" lon="9.064137960223508"><ele>119.0</ele><time>2026-04-08T14:56:51.998Z</time></trkpt><trkpt lat="45.425737986209114" lon="9.064090052364923"><ele>119.0</ele><time>2026-04-08T14:56:52.998Z</time></trkpt><trkpt lat="45.42583610722035" lon="9.064045539306498"><ele>118.83333333333333</ele><time>2026-04-08T14:56:53.998Z</time></trkpt><trkpt lat="45.42592409543407" lon="9.06400629689477"><ele>118.66666666666666</ele><time>2026-04-08T14:56:54.998Z</time></trkpt><trkpt lat="45.42600122729495" lon="9.063967013632459"><ele>118.5</ele><time>2026-04-08T14:56:55.998Z</time></trkpt><trkpt lat="45.42606755469679" lon="9.063937394508166"><ele>118.33333333333334</ele><time>2026-04-08T14:56:56.998Z</time></trkpt><trkpt lat="45.42613619302519" lon="9.06393143899233"><ele>118.16666666666667</ele><time>2026-04-08T14:56:57.998Z</time></trkpt><trkpt lat="45.426196910155554" lon="9.063956372605594"><ele>118.0</ele><time>2026-04-08T14:56:58.998Z</time></trkpt><trkpt lat="45.426287854942046" lon="9.064051586999337"><ele>117.66666666666667</ele><time>2026-04-08T14:57:00.998Z</time></trkpt><trkpt lat="45.42630646027143" lon="9.06418202766784"><ele>117.33333333333334</ele><time>2026-04-08T14:57:02.998Z</time></trkpt><trkpt lat="45.42629983509135" lon="9.064271863941393"><ele>117.0</ele><time>2026-04-08T14:57:03.998Z</time></trkpt><trkpt lat="45.42625419977717" lon="9.064381409919864"><ele>116.66666666666666</ele><time>2026-04-08T14:57:04.998Z</time></trkpt><trkpt lat="45.42619849913853" lon="9.064480922834733"><ele>116.33333333333333</ele><time>2026-04-08T14:57:05.999Z</time></trkpt><trkpt lat="45.42612752558468" lon="9.064581777006849"><ele>116.0</ele><time>2026-04-08T14:57:06.999Z</time></trkpt><trkpt lat="45.426036205032965" lon="9.064680521387915"><ele>116.0</ele><time>2026-04-08T14:57:07.999Z</time></trkpt><trkpt lat="45.425945849203025" lon="9.064772297961653"><ele>116.0</ele><time>2026-04-08T14:57:08.999Z</time></trkpt><trkpt lat="45.425838876102716" lon="9.064867223861246"><ele>116.0</ele><time>2026-04-08T14:57:09.999Z</time></trkpt><trkpt lat="45.425736713593196" lon="9.064962750987936"><ele>116.0</ele><time>2026-04-08T14:57:10.999Z</time></trkpt><trkpt lat="45.42562677654799" lon="9.06506096718014"><ele>116.0</ele><time>2026-04-08T14:57:11.999Z</time></trkpt><trkpt lat="45.42550988084645" lon="9.065166441967774"><ele>116.0</ele><time>2026-04-08T14:57:12.999Z</time></trkpt><trkpt lat="45.425391044628874" lon="9.065267491521784"><ele>116.0</ele><time>2026-04-08T14:57:13.999Z</time></trkpt><trkpt lat="45.42526185045311" lon="9.06537023797057"><ele>116.0</ele><time>2026-04-08T14:57:14.999Z</time></trkpt><trkpt lat="45.42513457881633" lon="9.065470640313446"><ele>117.0</ele><time>2026-04-08T14:57:15.999Z</time></trkpt><trkpt lat="45.42500214977675" lon="9.065577117972284"><ele>118.0</ele><time>2026-04-08T14:57:16.999Z</time></trkpt><trkpt lat="45.424865063864196" lon="9.065686336641907"><ele>119.0</ele><time>2026-04-08T14:57:17.999Z</time></trkpt><trkpt lat="45.42472682577874" lon="9.065796441018753"><ele>119.0</ele><time>2026-04-08T14:57:18.999Z</time></trkpt><trkpt lat="45.42458777350329" lon="9.065896350267161"><ele>119.0</ele><time>2026-04-08T14:57:19.999Z</time></trkpt><trkpt lat="45.424440568024316" lon="9.06599934845789"><ele>119.0</ele><time>2026-04-08T14:57:20.999Z</time></trkpt><trkpt lat="45.42430272466333" lon="9.066100746403793"><ele>119.0</ele><time>2026-04-08T14:57:21.999Z</time></trkpt><trkpt lat="45.4241666685453" lon="9.066195303892803"><ele>119.0</ele><time>2026-04-08T14:57:22.999Z</time></trkpt><trkpt lat="45.424037729059194" lon="9.066285217638557"><ele>119.0</ele><time>2026-04-08T14:57:23.999Z</time></trkpt><trkpt lat="45.4239176578797" lon="9.066367883769496"><ele>119.0</ele><time>2026-04-08T14:57:24.999Z</time></trkpt><trkpt lat="45.423809128481146" lon="9.066442016122604"><ele>119.0</ele><time>2026-04-08T14:57:25.999Z</time></trkpt><trkpt lat="45.42371204632662" lon="9.06650795605831"><ele>119.0</ele><time>2026-04-08T14:57:26.999Z</time></trkpt><trkpt lat="45.42362081762119" lon="9.066572503011399"><ele>119.0</ele><time>2026-04-08T14:57:27.999Z</time></trkpt><trkpt lat="45.4235338058156" lon="9.066633766188554"><ele>119.0</ele><time>2026-04-08T14:57:28.999Z</time></trkpt><trkpt lat="45.42345223159319" lon="9.066690188698686"><ele>119.0</ele><time>2026-04-08T14:57:29.999Z</time></trkpt><trkpt lat="45.42337173319753" lon="9.06674572937846"><ele>118.83333333333333</ele><time>2026-04-08T14:57:30.999Z</time></trkpt><trkpt lat="45.423296901210314" lon="9.066799003909681"><ele>118.66666666666666</ele><time>2026-04-08T14:57:31.999Z</time></trkpt><trkpt lat="45.423224185664395" lon="9.066851002418682"><ele>118.5</ele><time>2026-04-08T14:57:32.999Z</time></trkpt><trkpt lat="45.42315439226231" lon="9.066899147286179"><ele>118.33333333333334</ele><time>2026-04-08T14:57:33.999Z</time></trkpt><trkpt lat="45.42308708945848" lon="9.066945461879177"><ele>118.16666666666667</ele><time>2026-04-08T14:57:34.999Z</time></trkpt><trkpt lat="45.423014487021625" lon="9.066995568737562"><ele>118.0</ele><time>2026-04-08T14:57:35.999Z</time></trkpt><trkpt lat="45.42293913755985" lon="9.067044614842606"><ele>118.00000000000001</ele><time>2026-04-08T14:57:36.999Z</time></trkpt><trkpt lat="45.42286357602774" lon="9.06709729599524"><ele>118.0</ele><time>2026-04-08T14:57:37.999Z</time></trkpt><trkpt lat="45.42278562236348" lon="9.06715201588691"><ele>118.0</ele><time>2026-04-08T14:57:38.999Z</time></trkpt><trkpt lat="45.422707877098865" lon="9.06720438210346"><ele>118.0</ele><time>2026-04-08T14:57:39.999Z</time></trkpt><trkpt lat="45.42264185019974" lon="9.067254479484998"><ele>118.00000000000001</ele><time>2026-04-08T14:57:40.999Z</time></trkpt><trkpt lat="45.42257269469883" lon="9.067302033997375"><ele>118.0</ele><time>2026-04-08T14:57:41.999Z</time></trkpt><trkpt lat="45.42251459962705" lon="9.06734945172009"><ele>118.0</ele><time>2026-04-08T14:57:42.999Z</time></trkpt><trkpt lat="45.42241139218066" lon="9.067413954959154"><ele>118.00000000000001</ele><time>2026-04-08T14:57:44.999Z</time></trkpt><trkpt lat="45.4223362959573" lon="9.067457926687693"><ele>118.00000000000001</ele><time>2026-04-08T14:57:46.999Z</time></trkpt><trkpt lat="45.422283832282645" lon="9.067510381695428"><ele>118.0</ele><time>2026-04-08T14:57:49.999Z</time></trkpt><trkpt lat="45.42218152739446" lon="9.067521081709575"><ele>118.0</ele><time>2026-04-08T14:57:53.999Z</time></trkpt><trkpt lat="45.42209202108837" lon="9.067489312191858"><ele>117.50000000000001</ele><time>2026-04-08T14:57:55.999Z</time></trkpt><trkpt lat="45.422002240659204" lon="9.067593731756125"><ele>117.0</ele><time>2026-04-08T14:57:57.999Z</time></trkpt><trkpt lat="45.42198364592349" lon="9.06769989897752"><ele>116.5</ele><time>2026-04-08T14:57:58.999Z</time></trkpt><trkpt lat="45.42194121524468" lon="9.067773332691386"><ele>116.0</ele><time>2026-04-08T14:57:59.999Z</time></trkpt><trkpt lat="45.4218750890428" lon="9.067812769732402"><ele>115.50000000000001</ele><time>2026-04-08T14:58:00.999Z</time></trkpt><trkpt lat="45.42179042749755" lon="9.067897301950726"><ele>115.0</ele><time>2026-04-08T14:58:01.999Z</time></trkpt><trkpt lat="45.4216846024358" lon="9.067948449020363"><ele>115.0</ele><time>2026-04-08T14:58:02.999Z</time></trkpt><trkpt lat="45.42156058230734" lon="9.068020049652768"><ele>115.0</ele><time>2026-04-08T14:58:03.999Z</time></trkpt><trkpt lat="45.42143616615865" lon="9.068110308671356"><ele>115.0</ele><time>2026-04-08T14:58:04.999Z</time></trkpt><trkpt lat="45.42131143377166" lon="9.06820114829488"><ele>115.0</ele><time>2026-04-08T14:58:05.999Z</time></trkpt><trkpt lat="45.42118663015164" lon="9.068291619852332"><ele>114.75</ele><time>2026-04-08T14:58:06.999Z</time></trkpt><trkpt lat="45.421065965648985" lon="9.068376089208277"><ele>114.5</ele><time>2026-04-08T14:58:07.999Z</time></trkpt><trkpt lat="45.420961593499364" lon="9.06844843354407"><ele>114.25</ele><time>2026-04-08T14:58:08.999Z</time></trkpt><trkpt lat="45.42086415548417" lon="9.068509181483734"><ele>114.0</ele><time>2026-04-08T14:58:09.999Z</time></trkpt><trkpt lat="45.42077232517677" lon="9.068572136709335"><ele>114.0</ele><time>2026-04-08T14:58:10.999Z</time></trkpt><trkpt lat="45.42068688748282" lon="9.068626157473286"><ele>114.0</ele><time>2026-04-08T14:58:11.999Z</time></trkpt><trkpt lat="45.420606100457015" lon="9.068682804132084"><ele>114.0</ele><time>2026-04-08T14:58:12.999Z</time></trkpt><trkpt lat="45.42053215788025" lon="9.068737749503567"><ele>114.0</ele><time>2026-04-08T14:58:13.999Z</time></trkpt><trkpt lat="45.42046232582991" lon="9.068790991427"><ele>114.0</ele><time>2026-04-08T14:58:14.999Z</time></trkpt><trkpt lat="45.42039404823693" lon="9.0688402178587"><ele>114.0</ele><time>2026-04-08T14:58:15.999Z</time></trkpt><trkpt lat="45.42032788953865" lon="9.068887786121554"><ele>114.2</ele><time>2026-04-08T14:58:16.999Z</time></trkpt><trkpt lat="45.42026442826846" lon="9.068932725846482"><ele>114.4</ele><time>2026-04-08T14:58:17.999Z</time></trkpt><trkpt lat="45.42020523254116" lon="9.068975544985946"><ele>114.6</ele><time>2026-04-08T14:58:18.998Z</time></trkpt><trkpt lat="45.42009249415249" lon="9.069052191830599"><ele>114.8</ele><time>2026-04-08T14:58:20.998Z</time></trkpt><trkpt lat="45.4199878673106" lon="9.069117573337053"><ele>115.0</ele><time>2026-04-08T14:58:22.998Z</time></trkpt><trkpt lat="45.419884366627116" lon="9.069170838055713"><ele>115.00000000000001</ele><time>2026-04-08T14:58:24.998Z</time></trkpt><trkpt lat="45.419775608805224" lon="9.069205753095073"><ele>115.0</ele><time>2026-04-08T14:58:26.998Z</time></trkpt><trkpt lat="45.41967886575718" lon="9.069203568106072"><ele>115.0</ele><time>2026-04-08T14:58:28.998Z</time></trkpt><trkpt lat="45.419617783325315" lon="9.06925766069184"><ele>115.0</ele><time>2026-04-08T14:58:30.998Z</time></trkpt><trkpt lat="45.41957790030726" lon="9.069334122879798"><ele>115.00000000000001</ele><time>2026-04-08T14:58:33.998Z</time></trkpt><trkpt lat="45.419521753655054" lon="9.069420547403414"><ele>115.0</ele><time>2026-04-08T14:58:36.998Z</time></trkpt><trkpt lat="45.419449645249856" lon="9.069507136158176"><ele>115.2</ele><time>2026-04-08T14:58:39.998Z</time></trkpt><trkpt lat="45.41937665440657" lon="9.0695828128857"><ele>115.4</ele><time>2026-04-08T14:58:41.998Z</time></trkpt><trkpt lat="45.41930766190913" lon="9.069651135428629"><ele>115.6</ele><time>2026-04-08T14:58:43.998Z</time></trkpt><trkpt lat="45.419240246984764" lon="9.069718252405881"><ele>115.8</ele><time>2026-04-08T14:58:45.998Z</time></trkpt><trkpt lat="45.41916248252044" lon="9.069793333412392"><ele>116.0</ele><time>2026-04-08T14:58:47.998Z</time></trkpt><trkpt lat="45.41906490340809" lon="9.069881133769375"><ele>115.99999999999999</ele><time>2026-04-08T14:58:49.998Z</time></trkpt><trkpt lat="45.41901300030711" lon="9.069932404674695"><ele>116.0</ele><time>2026-04-08T14:58:50.998Z</time></trkpt><trkpt lat="45.41891765854342" lon="9.070021780579625"><ele>116.0</ele><time>2026-04-08T14:58:52.998Z</time></trkpt><trkpt lat="45.418850281227186" lon="9.070102605946662"><ele>116.0</ele><time>2026-04-08T14:58:54.998Z</time></trkpt><trkpt lat="45.41877648259077" lon="9.070188157712034"><ele>115.99999999999999</ele><time>2026-04-08T14:58:56.998Z</time></trkpt><trkpt lat="45.41871349543888" lon="9.070254936910331"><ele>116.0</ele><time>2026-04-08T14:58:58.998Z</time></trkpt><trkpt lat="45.418637738277106" lon="9.070336093395793"><ele>116.6</ele><time>2026-04-08T14:59:00.998Z</time></trkpt><trkpt lat="45.418536626470626" lon="9.07041243386525"><ele>117.19999999999999</ele><time>2026-04-08T14:59:02.998Z</time></trkpt><trkpt lat="45.41844429140409" lon="9.070519297405289"><ele>117.80000000000001</ele><time>2026-04-08T14:59:04.998Z</time></trkpt><trkpt lat="45.41837827300002" lon="9.07058425868005"><ele>118.4</ele><time>2026-04-08T14:59:06.998Z</time></trkpt><trkpt lat="45.41828964902056" lon="9.070631683972458"><ele>119.0</ele><time>2026-04-08T14:59:09.998Z</time></trkpt><trkpt lat="45.418230086409594" lon="9.07053337027367"><ele>119.0</ele><time>2026-04-08T14:59:11.999Z</time></trkpt><trkpt lat="45.41816421042705" lon="9.070401515090799"><ele>119.0</ele><time>2026-04-08T14:59:13.999Z</time></trkpt><trkpt lat="45.41814188800414" lon="9.070312437034055"><ele>119.0</ele><time>2026-04-08T14:59:14.999Z</time></trkpt><trkpt lat="45.41807045949445" lon="9.070186629132332"><ele>119.0</ele><time>2026-04-08T14:59:16.999Z</time></trkpt><trkpt lat="45.418003421247995" lon="9.070060445247917"><ele>119.0</ele><time>2026-04-08T14:59:18.999Z</time></trkpt><trkpt lat="45.41792735581014" lon="9.069913563197085"><ele>118.33333333333333</ele><time>2026-04-08T14:59:20.999Z</time></trkpt><trkpt lat="45.417884277183276" lon="9.069826757961957"><ele>117.66666666666666</ele><time>2026-04-08T14:59:21.999Z</time></trkpt><trkpt lat="45.417838608991765" lon="9.069734987543178"><ele>117.0</ele><time>2026-04-08T14:59:22.999Z</time></trkpt><trkpt lat="45.41779255292017" lon="9.06963854825609"><ele>116.33333333333334</ele><time>2026-04-08T14:59:23.999Z</time></trkpt><trkpt lat="45.41774767633384" lon="9.069535382458408"><ele>115.66666666666667</ele><time>2026-04-08T14:59:24.999Z</time></trkpt><trkpt lat="45.41770176311944" lon="9.069426874143145"><ele>115.0</ele><time>2026-04-08T14:59:25.999Z</time></trkpt><trkpt lat="45.41765331500047" lon="9.069314375168972"><ele>115.0</ele><time>2026-04-08T14:59:26.999Z</time></trkpt><trkpt lat="45.41760447412301" lon="9.069195176731187"><ele>115.0</ele><time>2026-04-08T14:59:27.999Z</time></trkpt><trkpt lat="45.41756241376094" lon="9.069070018833614"><ele>115.0</ele><time>2026-04-08T14:59:28.999Z</time></trkpt><trkpt lat="45.41752147867116" lon="9.068935081833011"><ele>115.0</ele><time>2026-04-08T14:59:29.999Z</time></trkpt><trkpt lat="45.41747787158925" lon="9.068797906508749"><ele>115.0</ele><time>2026-04-08T14:59:30.999Z</time></trkpt><trkpt lat="45.41743461824235" lon="9.068652804688757"><ele>114.75</ele><time>2026-04-08T14:59:31.999Z</time></trkpt><trkpt lat="45.41738995888543" lon="9.068502479878674"><ele>114.5</ele><time>2026-04-08T14:59:32.999Z</time></trkpt><trkpt lat="45.41733968907033" lon="9.068349195217253"><ele>114.25</ele><time>2026-04-08T14:59:33.999Z</time></trkpt><trkpt lat="45.417289588505646" lon="9.068193392484536"><ele>114.0</ele><time>2026-04-08T14:59:34.999Z</time></trkpt><trkpt lat="45.41723873164744" lon="9.068035005539198"><ele>114.0</ele><time>2026-04-08T14:59:35.999Z</time></trkpt><trkpt lat="45.41718808474937" lon="9.067878335430969"><ele>114.0</ele><time>2026-04-08T14:59:36.999Z</time></trkpt><trkpt lat="45.417137367466054" lon="9.067724845036292"><ele>114.0</ele><time>2026-04-08T14:59:37.999Z</time></trkpt><trkpt lat="45.417091421426235" lon="9.0675782438376"><ele>114.0</ele><time>2026-04-08T14:59:38.999Z</time></trkpt><trkpt lat="45.41705384477505" lon="9.067450587314376"><ele>114.0</ele><time>2026-04-08T14:59:39.999Z</time></trkpt><trkpt lat="45.417020442021865" lon="9.067337793549372"><ele>114.0</ele><time>2026-04-08T14:59:40.999Z</time></trkpt><trkpt lat="45.41698691048364" lon="9.067228008856743"><ele>114.0</ele><time>2026-04-08T14:59:41.999Z</time></trkpt><trkpt lat="45.41694514238919" lon="9.067114751211864"><ele>114.0</ele><time>2026-04-08T14:59:42.999Z</time></trkpt><trkpt lat="45.416877855327414" lon="9.067022938668128"><ele>114.0</ele><time>2026-04-08T14:59:43.999Z</time></trkpt><trkpt lat="45.41685898493675" lon="9.066854419198151"><ele>114.0</ele><time>2026-04-08T14:59:44.999Z</time></trkpt><trkpt lat="45.41681123459036" lon="9.066701150310061"><ele>114.0</ele><time>2026-04-08T14:59:45.999Z</time></trkpt><trkpt lat="45.416760993208236" lon="9.066537062605661"><ele>114.0</ele><time>2026-04-08T14:59:46.999Z</time></trkpt><trkpt lat="45.41670681408919" lon="9.066365857290048"><ele>114.0</ele><time>2026-04-08T14:59:47.999Z</time></trkpt><trkpt lat="45.41665108853633" lon="9.066197817766202"><ele>114.5</ele><time>2026-04-08T14:59:48.999Z</time></trkpt><trkpt lat="45.41659622205024" lon="9.06602236231755"><ele>115.0</ele><time>2026-04-08T14:59:49.999Z</time></trkpt><trkpt lat="45.41653946464734" lon="9.06584041892336"><ele>115.5</ele><time>2026-04-08T14:59:50.999Z</time></trkpt><trkpt lat="45.41647965373485" lon="9.065654949008248"><ele>116.0</ele><time>2026-04-08T14:59:51.999Z</time></trkpt><trkpt lat="45.416416489633306" lon="9.065461876582683"><ele>116.0</ele><time>2026-04-08T14:59:52.999Z</time></trkpt><trkpt lat="45.416352616443206" lon="9.065260605398867"><ele>116.0</ele><time>2026-04-08T14:59:53.999Z</time></trkpt><trkpt lat="45.41628798451688" lon="9.065053996249652"><ele>116.0</ele><time>2026-04-08T14:59:54.999Z</time></trkpt><trkpt lat="45.4162239580264" lon="9.064846672785993"><ele>114.33333333333333</ele><time>2026-04-08T14:59:55.999Z</time></trkpt><trkpt lat="45.41616050322047" lon="9.064640910969562"><ele>112.66666666666666</ele><time>2026-04-08T14:59:56.999Z</time></trkpt><trkpt lat="45.416098862427226" lon="9.064440610057037"><ele>111.0</ele><time>2026-04-08T14:59:57.999Z</time></trkpt><trkpt lat="45.41603315578416" lon="9.064234454204794"><ele>112.0</ele><time>2026-04-08T14:59:58.999Z</time></trkpt><trkpt lat="45.41596546323663" lon="9.064025771428726"><ele>113.0</ele><time>2026-04-08T14:59:59.999Z</time></trkpt><trkpt lat="45.41590101827587" lon="9.063823006419518"><ele>114.0</ele><time>2026-04-08T15:00:00.999Z</time></trkpt><trkpt lat="45.415837537638104" lon="9.06361983867374"><ele>114.0</ele><time>2026-04-08T15:00:01.999Z</time></trkpt><trkpt lat="45.41577392745771" lon="9.06341790370278"><ele>114.0</ele><time>2026-04-08T15:00:02.999Z</time></trkpt><trkpt lat="45.41570920722098" lon="9.063209353710679"><ele>114.0</ele><time>2026-04-08T15:00:03.999Z</time></trkpt><trkpt lat="45.41564501199953" lon="9.063004602384616"><ele>114.66666666666666</ele><time>2026-04-08T15:00:04.999Z</time></trkpt><trkpt lat="45.41558237153988" lon="9.06280380397591"><ele>115.33333333333333</ele><time>2026-04-08T15:00:05.999Z</time></trkpt><trkpt lat="45.41551798316208" lon="9.0625992591761"><ele>116.0</ele><time>2026-04-08T15:00:06.999Z</time></trkpt><trkpt lat="45.41545350649226" lon="9.06239254629829"><ele>116.0</ele><time>2026-04-08T15:00:07.999Z</time></trkpt><trkpt lat="45.41538799961931" lon="9.062183683371082"><ele>116.0</ele><time>2026-04-08T15:00:08.999Z</time></trkpt><trkpt lat="45.41532495755394" lon="9.061980539989309"><ele>116.0</ele><time>2026-04-08T15:00:09.999Z</time></trkpt><trkpt lat="45.41526394429609" lon="9.061777490947906"><ele>116.0</ele><time>2026-04-08T15:00:10.999Z</time></trkpt><trkpt lat="45.415201782615604" lon="9.061574467462293"><ele>116.0</ele><time>2026-04-08T15:00:11.999Z</time></trkpt><trkpt lat="45.41514049080015" lon="9.061380350671875"><ele>116.0</ele><time>2026-04-08T15:00:12.999Z</time></trkpt><trkpt lat="45.41507935490829" lon="9.061192294681254"><ele>116.0</ele><time>2026-04-08T15:00:13.999Z</time></trkpt><trkpt lat="45.41502073358459" lon="9.061010810402301"><ele>116.0</ele><time>2026-04-08T15:00:14.999Z</time></trkpt><trkpt lat="45.414965144172754" lon="9.060826519411638"><ele>116.0</ele><time>2026-04-08T15:00:15.999Z</time></trkpt><trkpt lat="45.41491135791508" lon="9.060643288214404"><ele>116.0</ele><time>2026-04-08T15:00:16.999Z</time></trkpt><trkpt lat="45.414861613535045" lon="9.06045301803747"><ele>116.0</ele><time>2026-04-08T15:00:17.999Z</time></trkpt><trkpt lat="45.41481383322534" lon="9.060259273487702"><ele>116.0</ele><time>2026-04-08T15:00:18.999Z</time></trkpt><trkpt lat="45.414768758511435" lon="9.06006160889505"><ele>116.0</ele><time>2026-04-08T15:00:19.999Z</time></trkpt><trkpt lat="45.41472648641363" lon="9.059860062151555"><ele>116.0</ele><time>2026-04-08T15:00:20.999Z</time></trkpt><trkpt lat="45.41462766338554" lon="9.059746715426122"><ele>115.25</ele><time>2026-04-08T15:00:21.999Z</time></trkpt><trkpt lat="45.414570161509666" lon="9.059563634082483"><ele>114.5</ele><time>2026-04-08T15:00:22.999Z</time></trkpt><trkpt lat="45.41451243682173" lon="9.059376971717429"><ele>113.75</ele><time>2026-04-08T15:00:23.999Z</time></trkpt><trkpt lat="45.414450951872034" lon="9.059192221225919"><ele>113.0</ele><time>2026-04-08T15:00:24.999Z</time></trkpt><trkpt lat="45.41439510445277" lon="9.059012644186168"><ele>113.0</ele><time>2026-04-08T15:00:25.998Z</time></trkpt><trkpt lat="45.41433893086511" lon="9.058833387447157"><ele>113.0</ele><time>2026-04-08T15:00:26.998Z</time></trkpt><trkpt lat="45.41428028611998" lon="9.05865301654131"><ele>113.0</ele><time>2026-04-08T15:00:27.998Z</time></trkpt><trkpt lat="45.41421623753488" lon="9.05847556394205"><ele>113.0</ele><time>2026-04-08T15:00:28.998Z</time></trkpt><trkpt lat="45.414150031176966" lon="9.058289011334699"><ele>114.25</ele><time>2026-04-08T15:00:29.998Z</time></trkpt><trkpt lat="45.414091113326734" lon="9.05810326900396"><ele>115.5</ele><time>2026-04-08T15:00:30.998Z</time></trkpt><trkpt lat="45.41404033972086" lon="9.057924251953352"><ele>116.75</ele><time>2026-04-08T15:00:31.998Z</time></trkpt><trkpt lat="45.41398856078363" lon="9.057749644440444"><ele>118.0</ele><time>2026-04-08T15:00:32.998Z</time></trkpt><trkpt lat="45.41393965081577" lon="9.057584665237377"><ele>117.5</ele><time>2026-04-08T15:00:33.998Z</time></trkpt><trkpt lat="45.41388908647137" lon="9.057421688093436"><ele>117.0</ele><time>2026-04-08T15:00:34.998Z</time></trkpt><trkpt lat="45.413836934278336" lon="9.057256290831814"><ele>116.5</ele><time>2026-04-08T15:00:35.998Z</time></trkpt><trkpt lat="45.41378492628908" lon="9.057086632795379"><ele>116.0</ele><time>2026-04-08T15:00:36.998Z</time></trkpt><trkpt lat="45.4137337169654" lon="9.056914318577414"><ele>115.5</ele><time>2026-04-08T15:00:37.998Z</time></trkpt><trkpt lat="45.413680470405986" lon="9.056739496199908"><ele>115.0</ele><time>2026-04-08T15:00:38.998Z</time></trkpt><trkpt lat="45.41362666772462" lon="9.056557683092942"><ele>114.5</ele><time>2026-04-08T15:00:39.998Z</time></trkpt><trkpt lat="45.41356382251172" lon="9.056373484740107"><ele>114.0</ele><time>2026-04-08T15:00:40.998Z</time></trkpt><trkpt lat="45.41350647577884" lon="9.056196510463224"><ele>114.0</ele><time>2026-04-08T15:00:41.998Z</time></trkpt><trkpt lat="45.41345426269359" lon="9.05603806562309"><ele>114.0</ele><time>2026-04-08T15:00:42.998Z</time></trkpt><trkpt lat="45.41340946257624" lon="9.055896252899094"><ele>114.0</ele><time>2026-04-08T15:00:43.998Z</time></trkpt><trkpt lat="45.413373121465185" lon="9.055770458825759"><ele>114.0</ele><time>2026-04-08T15:00:44.998Z</time></trkpt><trkpt lat="45.413338715990385" lon="9.055656380291365"><ele>114.0</ele><time>2026-04-08T15:00:45.998Z</time></trkpt><trkpt lat="45.413310559768455" lon="9.055567057471164"><ele>114.0</ele><time>2026-04-08T15:00:47.998Z</time></trkpt><trkpt lat="45.41321481126225" lon="9.055556047569796"><ele>114.0</ele><time>2026-04-08T15:00:49.998Z</time></trkpt><trkpt lat="45.413134342608075" lon="9.055633573811345"><ele>114.0</ele><time>2026-04-08T15:00:51.998Z</time></trkpt><trkpt lat="45.41307541316513" lon="9.055690743610485"><ele>114.0</ele><time>2026-04-08T15:00:52.998Z</time></trkpt><trkpt lat="45.413004414706286" lon="9.055760401529621"><ele>114.0</ele><time>2026-04-08T15:00:53.998Z</time></trkpt><trkpt lat="45.412921452435235" lon="9.055842556519877"><ele>113.5</ele><time>2026-04-08T15:00:54.998Z</time></trkpt><trkpt lat="45.41282766753793" lon="9.055937533547459"><ele>113.0</ele><time>2026-04-08T15:00:55.998Z</time></trkpt><trkpt lat="45.4127278567869" lon="9.056038655609921"><ele>112.5</ele><time>2026-04-08T15:00:56.998Z</time></trkpt><trkpt lat="45.41261971602013" lon="9.056148489100107"><ele>112.0</ele><time>2026-04-08T15:00:57.998Z</time></trkpt><trkpt lat="45.41250322472327" lon="9.056267734389715"><ele>112.0</ele><time>2026-04-08T15:00:58.998Z</time></trkpt><trkpt lat="45.41239393964182" lon="9.056379584680192"><ele>112.0</ele><time>2026-04-08T15:00:59.998Z</time></trkpt><trkpt lat="45.412278977956845" lon="9.05649706286504"><ele>112.0</ele><time>2026-04-08T15:01:00.998Z</time></trkpt><trkpt lat="45.412163525662066" lon="9.05661504224582"><ele>112.0</ele><time>2026-04-08T15:01:01.998Z</time></trkpt><trkpt lat="45.41204720517802" lon="9.056733161780073"><ele>111.75</ele><time>2026-04-08T15:01:02.998Z</time></trkpt><trkpt lat="45.41193713874107" lon="9.05684489397185"><ele>111.5</ele><time>2026-04-08T15:01:03.998Z</time></trkpt><trkpt lat="45.411825860093565" lon="9.05695785668658"><ele>111.25</ele><time>2026-04-08T15:01:04.998Z</time></trkpt><trkpt lat="45.411715368863824" lon="9.057069485727158"><ele>111.0</ele><time>2026-04-08T15:01:05.998Z</time></trkpt><trkpt lat="45.41160612727349" lon="9.057179790128734"><ele>111.0</ele><time>2026-04-08T15:01:06.998Z</time></trkpt><trkpt lat="45.41149497475634" lon="9.05729293502706"><ele>111.0</ele><time>2026-04-08T15:01:07.998Z</time></trkpt><trkpt lat="45.411380476520975" lon="9.05740980386617"><ele>111.0</ele><time>2026-04-08T15:01:08.998Z</time></trkpt><trkpt lat="45.41126262315958" lon="9.057530097357157"><ele>111.0</ele><time>2026-04-08T15:01:09.998Z</time></trkpt><trkpt lat="45.411144470642434" lon="9.057651639502556"><ele>111.5</ele><time>2026-04-08T15:01:10.998Z</time></trkpt><trkpt lat="45.41102868634626" lon="9.057771601005168"><ele>112.0</ele><time>2026-04-08T15:01:11.998Z</time></trkpt><trkpt lat="45.41090890747342" lon="9.057896577823916"><ele>112.5</ele><time>2026-04-08T15:01:12.998Z</time></trkpt><trkpt lat="45.41078719604232" lon="9.058023746786645"><ele>113.0</ele><time>2026-04-08T15:01:13.998Z</time></trkpt><trkpt lat="45.410662756273844" lon="9.058153766355288"><ele>113.0</ele><time>2026-04-08T15:01:14.998Z</time></trkpt><trkpt lat="45.4105363101573" lon="9.058282006239446"><ele>113.0</ele><time>2026-04-08T15:01:15.999Z</time></trkpt><trkpt lat="45.41040453034702" lon="9.05841392469502"><ele>113.0</ele><time>2026-04-08T15:01:16.999Z</time></trkpt><trkpt lat="45.41027222602102" lon="9.05854690277186"><ele>113.0</ele><time>2026-04-08T15:01:17.999Z</time></trkpt><trkpt lat="45.41014617959405" lon="9.058673591151527"><ele>113.0</ele><time>2026-04-08T15:01:18.999Z</time></trkpt><trkpt lat="45.41001473696431" lon="9.058802399817134"><ele>113.0</ele><time>2026-04-08T15:01:19.999Z</time></trkpt><trkpt lat="45.40988975537868" lon="9.058917541674216"><ele>113.0</ele><time>2026-04-08T15:01:20.999Z</time></trkpt><trkpt lat="45.40976905129406" lon="9.059022989948343"><ele>113.0</ele><time>2026-04-08T15:01:21.999Z</time></trkpt><trkpt lat="45.409654769706385" lon="9.059121706895723"><ele>113.0</ele><time>2026-04-08T15:01:22.999Z</time></trkpt><trkpt lat="45.409543634361626" lon="9.059214583792814"><ele>113.0</ele><time>2026-04-08T15:01:23.999Z</time></trkpt><trkpt lat="45.40944086961206" lon="9.059299918043516"><ele>112.66666666666666</ele><time>2026-04-08T15:01:24.999Z</time></trkpt><trkpt lat="45.409352027951265" lon="9.0593731074876"><ele>112.33333333333333</ele><time>2026-04-08T15:01:25.999Z</time></trkpt><trkpt lat="45.409276335166815" lon="9.05943664391431"><ele>112.0</ele><time>2026-04-08T15:01:26.999Z</time></trkpt><trkpt lat="45.409214234938894" lon="9.05949056630327"><ele>111.66666666666666</ele><time>2026-04-08T15:01:27.999Z</time></trkpt><trkpt lat="45.40913318116417" lon="9.059593435717222"><ele>111.33333333333333</ele><time>2026-04-08T15:01:29.999Z</time></trkpt><trkpt lat="45.40907304956138" lon="9.059651240049298"><ele>111.0</ele><time>2026-04-08T15:01:31.999Z</time></trkpt><trkpt lat="45.409038662898766" lon="9.059747025483968"><ele>111.0</ele><time>2026-04-08T15:01:33.999Z</time></trkpt><trkpt lat="45.40896011598158" lon="9.059822922198839"><ele>111.0</ele><time>2026-04-08T15:01:35.999Z</time></trkpt><trkpt lat="45.40890122797763" lon="9.059888512121738"><ele>111.0</ele><time>2026-04-08T15:01:36.999Z</time></trkpt><trkpt lat="45.408814237481906" lon="9.059946737698768"><ele>111.0</ele><time>2026-04-08T15:01:37.999Z</time></trkpt><trkpt lat="45.408722480529555" lon="9.060010717960493"><ele>111.0</ele><time>2026-04-08T15:01:38.999Z</time></trkpt><trkpt lat="45.40861645371626" lon="9.06008595260194"><ele>111.25</ele><time>2026-04-08T15:01:39.999Z</time></trkpt><trkpt lat="45.408505274193814" lon="9.060159707670941"><ele>111.5</ele><time>2026-04-08T15:01:40.999Z</time></trkpt><trkpt lat="45.40839078892744" lon="9.06023759762175"><ele>111.75</ele><time>2026-04-08T15:01:41.999Z</time></trkpt><trkpt lat="45.40827294700874" lon="9.060315587441654"><ele>112.0</ele><time>2026-04-08T15:01:42.999Z</time></trkpt><trkpt lat="45.408154244604965" lon="9.060397338952535"><ele>112.0</ele><time>2026-04-08T15:01:43.999Z</time></trkpt><trkpt lat="45.408031735190036" lon="9.060480684181083"><ele>112.0</ele><time>2026-04-08T15:01:44.999Z</time></trkpt><trkpt lat="45.407903414084124" lon="9.060564350322332"><ele>112.0</ele><time>2026-04-08T15:01:45.999Z</time></trkpt><trkpt lat="45.407777732959126" lon="9.060653559881157"><ele>112.0</ele><time>2026-04-08T15:01:46.999Z</time></trkpt><trkpt lat="45.40765067118183" lon="9.060739225586413"><ele>112.0</ele><time>2026-04-08T15:01:47.999Z</time></trkpt><trkpt lat="45.40752382384959" lon="9.060822106648917"><ele>112.0</ele><time>2026-04-08T15:01:48.999Z</time></trkpt><trkpt lat="45.40739510827582" lon="9.060904490261533"><ele>112.0</ele><time>2026-04-08T15:01:49.999Z</time></trkpt><trkpt lat="45.4072678261412" lon="9.060984724805339"><ele>112.0</ele><time>2026-04-08T15:01:50.999Z</time></trkpt><trkpt lat="45.407148632838584" lon="9.061060078726326"><ele>111.6</ele><time>2026-04-08T15:01:51.999Z</time></trkpt><trkpt lat="45.40703728791513" lon="9.061131234658664"><ele>111.19999999999999</ele><time>2026-04-08T15:01:52.999Z</time></trkpt><trkpt lat="45.40693700699788" lon="9.061194667018638"><ele>110.8</ele><time>2026-04-08T15:01:53.999Z</time></trkpt><trkpt lat="45.4068411656752" lon="9.061225972139434"><ele>110.4</ele><time>2026-04-08T15:01:54.999Z</time></trkpt><trkpt lat="45.40676873599038" lon="9.061263241942074"><ele>110.0</ele><time>2026-04-08T15:01:55.999Z</time></trkpt><trkpt lat="45.40665780908015" lon="9.061314057901278"><ele>110.0</ele><time>2026-04-08T15:01:58.999Z</time></trkpt><trkpt lat="45.40660097219617" lon="9.06120491620198"><ele>110.0</ele><time>2026-04-08T15:02:00.999Z</time></trkpt><trkpt lat="45.40657800391198" lon="9.06111551303286"><ele>110.0</ele><time>2026-04-08T15:02:01.999Z</time></trkpt><trkpt lat="45.40655120540584" lon="9.060992818727284"><ele>110.0</ele><time>2026-04-08T15:02:02.999Z</time></trkpt><trkpt lat="45.4065238661296" lon="9.060855732042288"><ele>110.0</ele><time>2026-04-08T15:02:03.999Z</time></trkpt><trkpt lat="45.40649314835143" lon="9.060707282863783"><ele>110.0</ele><time>2026-04-08T15:02:04.999Z</time></trkpt><trkpt lat="45.406463939758446" lon="9.060565513021109"><ele>110.0</ele><time>2026-04-08T15:02:05.999Z</time></trkpt><trkpt lat="45.40642797870933" lon="9.06044588034252"><ele>110.0</ele><time>2026-04-08T15:02:06.999Z</time></trkpt><trkpt lat="45.406403489631984" lon="9.060323658648976"><ele>110.0</ele><time>2026-04-08T15:02:07.999Z</time></trkpt><trkpt lat="45.406310005804144" lon="9.060272532403486"><ele>110.0</ele><time>2026-04-08T15:02:08.999Z</time></trkpt><trkpt lat="45.4062180563788" lon="9.060229078135487"><ele>110.0</ele><time>2026-04-08T15:02:09.999Z</time></trkpt><trkpt lat="45.40612385414276" lon="9.060209667012925"><ele>110.0</ele><time>2026-04-08T15:02:10.999Z</time></trkpt><trkpt lat="45.4060295201705" lon="9.060228915399877"><ele>110.0</ele><time>2026-04-08T15:02:11.999Z</time></trkpt><trkpt lat="45.40593965866542" lon="9.060285552996403"><ele>110.0</ele><time>2026-04-08T15:02:12.999Z</time></trkpt><trkpt lat="45.405836897663605" lon="9.060340010553956"><ele>110.0</ele><time>2026-04-08T15:02:13.999Z</time></trkpt><trkpt lat="45.405719295289735" lon="9.060378785897573"><ele>110.0</ele><time>2026-04-08T15:02:14.999Z</time></trkpt><trkpt lat="45.40560221308911" lon="9.060437019182984"><ele>110.0</ele><time>2026-04-08T15:02:15.999Z</time></trkpt><trkpt lat="45.405483239574636" lon="9.06051722857344"><ele>110.0</ele><time>2026-04-08T15:02:16.999Z</time></trkpt><trkpt lat="45.40535795600703" lon="9.060579744916462"><ele>110.0</ele><time>2026-04-08T15:02:17.999Z</time></trkpt><trkpt lat="45.40523521375281" lon="9.060642145745614"><ele>110.0</ele><time>2026-04-08T15:02:18.999Z</time></trkpt><trkpt lat="45.40511253008101" lon="9.060703862510204"><ele>110.0</ele><time>2026-04-08T15:02:19.999Z</time></trkpt><trkpt lat="45.404985806273885" lon="9.06076341427721"><ele>110.0</ele><time>2026-04-08T15:02:20.999Z</time></trkpt><trkpt lat="45.40485663268729" lon="9.060821921591387"><ele>110.0</ele><time>2026-04-08T15:02:21.999Z</time></trkpt><trkpt lat="45.40472599258527" lon="9.060892052791395"><ele>109.5</ele><time>2026-04-08T15:02:22.999Z</time></trkpt><trkpt lat="45.40458860400003" lon="9.060958805241096"><ele>109.0</ele><time>2026-04-08T15:02:23.999Z</time></trkpt><trkpt lat="45.40444706045552" lon="9.061028105892463"><ele>108.5</ele><time>2026-04-08T15:02:24.999Z</time></trkpt><trkpt lat="45.40430376977599" lon="9.061096903319461"><ele>108.0</ele><time>2026-04-08T15:02:25.999Z</time></trkpt><trkpt lat="45.40416343789086" lon="9.06116685883553"><ele>108.0</ele><time>2026-04-08T15:02:26.999Z</time></trkpt><trkpt lat="45.40401883292987" lon="9.061212268360036"><ele>108.0</ele><time>2026-04-08T15:02:27.999Z</time></trkpt><trkpt lat="45.40388691350662" lon="9.061268915777035"><ele>108.0</ele><time>2026-04-08T15:02:28.999Z</time></trkpt><trkpt lat="45.40375288438523" lon="9.061312974713188"><ele>108.0</ele><time>2026-04-08T15:02:29.999Z</time></trkpt><trkpt lat="45.4036167504434" lon="9.06134395712535"><ele>108.5</ele><time>2026-04-08T15:02:30.999Z</time></trkpt><trkpt lat="45.40349358272309" lon="9.061394224272775"><ele>109.0</ele><time>2026-04-08T15:02:31.999Z</time></trkpt><trkpt lat="45.40337734376908" lon="9.061426596554893"><ele>109.5</ele><time>2026-04-08T15:02:32.999Z</time></trkpt><trkpt lat="45.403270730503316" lon="9.06147289140525"><ele>110.0</ele><time>2026-04-08T15:02:33.999Z</time></trkpt><trkpt lat="45.40317738113572" lon="9.061520475027633"><ele>109.99999999999999</ele><time>2026-04-08T15:02:34.999Z</time></trkpt><trkpt lat="45.403096858151756" lon="9.061547635785866"><ele>110.0</ele><time>2026-04-08T15:02:35.999Z</time></trkpt><trkpt lat="45.40302428752621" lon="9.061582963519655"><ele>110.0</ele><time>2026-04-08T15:02:36.999Z</time></trkpt><trkpt lat="45.402958921663114" lon="9.061640022711613"><ele>110.0</ele><time>2026-04-08T15:02:37.999Z</time></trkpt><trkpt lat="45.40287666774534" lon="9.061688919064599"><ele>109.99999999999999</ele><time>2026-04-08T15:02:38.999Z</time></trkpt><trkpt lat="45.40276494004262" lon="9.061740397490414"><ele>110.0</ele><time>2026-04-08T15:02:39.999Z</time></trkpt><trkpt lat="45.402646008647814" lon="9.061821735271755"><ele>110.5</ele><time>2026-04-08T15:02:40.999Z</time></trkpt><trkpt lat="45.402529207173" lon="9.061923989116075"><ele>111.0</ele><time>2026-04-08T15:02:41.998Z</time></trkpt><trkpt lat="45.40241942090072" lon="9.061998136374235"><ele>111.5</ele><time>2026-04-08T15:02:42.998Z</time></trkpt><trkpt lat="45.4023123707465" lon="9.062042431201395"><ele>112.0</ele><time>2026-04-08T15:02:43.998Z</time></trkpt><trkpt lat="45.40221510825746" lon="9.062110524948647"><ele>111.6</ele><time>2026-04-08T15:02:44.998Z</time></trkpt><trkpt lat="45.40211695260252" lon="9.062125014454592"><ele>111.19999999999999</ele><time>2026-04-08T15:02:45.998Z</time></trkpt><trkpt lat="45.40203252295847" lon="9.062071489350156"><ele>110.8</ele><time>2026-04-08T15:02:46.998Z</time></trkpt><trkpt lat="45.401949781649876" lon="9.062010328474186"><ele>110.4</ele><time>2026-04-08T15:02:47.998Z</time></trkpt><trkpt lat="45.40187083502119" lon="9.061917924677834"><ele>110.0</ele><time>2026-04-08T15:02:48.998Z</time></trkpt><trkpt lat="45.401788575159834" lon="9.061799967859491"><ele>110.0</ele><time>2026-04-08T15:02:49.998Z</time></trkpt><trkpt lat="45.40170324057168" lon="9.06167400143955"><ele>110.0</ele><time>2026-04-08T15:02:50.998Z</time></trkpt><trkpt lat="45.40159940944151" lon="9.061596577534173"><ele>110.0</ele><time>2026-04-08T15:02:51.998Z</time></trkpt><trkpt lat="45.40149143867857" lon="9.061554266385908"><ele>110.0</ele><time>2026-04-08T15:02:52.998Z</time></trkpt><trkpt lat="45.40137060007438" lon="9.061556436043315"><ele>109.66666666666666</ele><time>2026-04-08T15:02:53.998Z</time></trkpt><trkpt lat="45.40123578612832" lon="9.061587299295093"><ele>109.33333333333334</ele><time>2026-04-08T15:02:54.998Z</time></trkpt><trkpt lat="45.40107968382625" lon="9.061583939417536"><ele>109.0</ele><time>2026-04-08T15:02:55.998Z</time></trkpt><trkpt lat="45.400917583287985" lon="9.061611489375359"><ele>109.0</ele><time>2026-04-08T15:02:56.998Z</time></trkpt><trkpt lat="45.40074826032284" lon="9.061643610508659"><ele>109.0</ele><time>2026-04-08T15:02:57.998Z</time></trkpt><trkpt lat="45.400577922403414" lon="9.061676392471869"><ele>109.0</ele><time>2026-04-08T15:02:58.998Z</time></trkpt><trkpt lat="45.4004038443188" lon="9.061710959591677"><ele>109.0</ele><time>2026-04-08T15:02:59.998Z</time></trkpt><trkpt lat="45.40024355203571" lon="9.06174653578977"><ele>109.0</ele><time>2026-04-08T15:03:00.998Z</time></trkpt><trkpt lat="45.40009258918579" lon="9.061787591618005"><ele>109.0</ele><time>2026-04-08T15:03:01.998Z</time></trkpt><trkpt lat="45.39994784392985" lon="9.061833628522342"><ele>109.0</ele><time>2026-04-08T15:03:02.998Z</time></trkpt><trkpt lat="45.39980772175053" lon="9.061881575942426"><ele>109.0</ele><time>2026-04-08T15:03:03.998Z</time></trkpt><trkpt lat="45.399672407463335" lon="9.061935734167875"><ele>109.0</ele><time>2026-04-08T15:03:04.998Z</time></trkpt><trkpt lat="45.39954079179682" lon="9.062004433754566"><ele>109.0</ele><time>2026-04-08T15:03:05.998Z</time></trkpt><trkpt lat="45.39941162672721" lon="9.062084427561746"><ele>109.25</ele><time>2026-04-08T15:03:06.998Z</time></trkpt><trkpt lat="45.399284731645686" lon="9.062171187550607"><ele>109.5</ele><time>2026-04-08T15:03:07.998Z</time></trkpt><trkpt lat="45.39916411718089" lon="9.062259355245327"><ele>109.75</ele><time>2026-04-08T15:03:08.998Z</time></trkpt><trkpt lat="45.39904866681515" lon="9.062343030139658"><ele>110.0</ele><time>2026-04-08T15:03:09.998Z</time></trkpt><trkpt lat="45.39894421776702" lon="9.062413392615188"><ele>109.8</ele><time>2026-04-08T15:03:10.998Z</time></trkpt><trkpt lat="45.39885729057304" lon="9.062451977163468"><ele>109.6</ele><time>2026-04-08T15:03:11.998Z</time></trkpt><trkpt lat="45.39877512421718" lon="9.062458573526749"><ele>109.4</ele><time>2026-04-08T15:03:12.998Z</time></trkpt><trkpt lat="45.398693579645304" lon="9.06243632957027"><ele>109.2</ele><time>2026-04-08T15:03:13.998Z</time></trkpt><trkpt lat="45.398604204025716" lon="9.062389331783447"><ele>109.0</ele><time>2026-04-08T15:03:14.998Z</time></trkpt><trkpt lat="45.39850380514575" lon="9.062325170010997"><ele>108.75</ele><time>2026-04-08T15:03:15.998Z</time></trkpt><trkpt lat="45.39839702842619" lon="9.062252895426472"><ele>108.5</ele><time>2026-04-08T15:03:16.998Z</time></trkpt><trkpt lat="45.398283722803185" lon="9.062176481184673"><ele>108.25</ele><time>2026-04-08T15:03:17.998Z</time></trkpt><trkpt lat="45.39816342735106" lon="9.06209774957712"><ele>108.0</ele><time>2026-04-08T15:03:18.998Z</time></trkpt><trkpt lat="45.398042170866574" lon="9.062018903019155"><ele>107.75</ele><time>2026-04-08T15:03:19.998Z</time></trkpt><trkpt lat="45.397925099891324" lon="9.061942106554177"><ele>107.5</ele><time>2026-04-08T15:03:20.998Z</time></trkpt><trkpt lat="45.397812111863416" lon="9.061867249057807"><ele>107.25</ele><time>2026-04-08T15:03:22Z</time></trkpt><trkpt lat="45.39770807848382" lon="9.061798324266723"><ele>107.0</ele><time>2026-04-08T15:03:23Z</time></trkpt><trkpt lat="45.39761222145509" lon="9.061736194048173"><ele>107.0</ele><time>2026-04-08T15:03:24Z</time></trkpt><trkpt lat="45.397527739447874" lon="9.06168210935593"><ele>106.99999999999999</ele><time>2026-04-08T15:03:25Z</time></trkpt><trkpt lat="45.39744190073502" lon="9.061642491133831"><ele>106.99999999999999</ele><time>2026-04-08T15:03:26Z</time></trkpt><trkpt lat="45.397341496793004" lon="9.061643150733898"><ele>107.0</ele><time>2026-04-08T15:03:27Z</time></trkpt><trkpt lat="45.397246125042535" lon="9.061694018080319"><ele>107.0</ele><time>2026-04-08T15:03:28Z</time></trkpt><trkpt lat="45.39716021033159" lon="9.061768726832911"><ele>107.25</ele><time>2026-04-08T15:03:29Z</time></trkpt><trkpt lat="45.39706903413433" lon="9.061847940531019"><ele>107.5</ele><time>2026-04-08T15:03:30Z</time></trkpt><trkpt lat="45.39696318319339" lon="9.061934646149872"><ele>107.75</ele><time>2026-04-08T15:03:31Z</time></trkpt><trkpt lat="45.39685234275339" lon="9.06202263135455"><ele>108.0</ele><time>2026-04-08T15:03:32Z</time></trkpt><trkpt lat="45.3967302478071" lon="9.062107194614006"><ele>108.0</ele><time>2026-04-08T15:03:33Z</time></trkpt><trkpt lat="45.39659845376004" lon="9.062184731002231"><ele>108.0</ele><time>2026-04-08T15:03:34Z</time></trkpt><trkpt lat="45.396461513345805" lon="9.06226349500004"><ele>108.0</ele><time>2026-04-08T15:03:35Z</time></trkpt><trkpt lat="45.3963270631665" lon="9.062339057405651"><ele>108.0</ele><time>2026-04-08T15:03:36Z</time></trkpt><trkpt lat="45.396195822130416" lon="9.062417562586736"><ele>108.0</ele><time>2026-04-08T15:03:37Z</time></trkpt><trkpt lat="45.39607256562566" lon="9.062501493379523"><ele>108.0</ele><time>2026-04-08T15:03:38Z</time></trkpt><trkpt lat="45.39595191781902" lon="9.062589501213148"><ele>108.0</ele><time>2026-04-08T15:03:39Z</time></trkpt><trkpt lat="45.39582882446374" lon="9.062682859152742"><ele>108.0</ele><time>2026-04-08T15:03:39.999Z</time></trkpt><trkpt lat="45.395700719533714" lon="9.062782355635461"><ele>108.0</ele><time>2026-04-08T15:03:40.999Z</time></trkpt><trkpt lat="45.395579004099986" lon="9.062883113593621"><ele>108.0</ele><time>2026-04-08T15:03:41.999Z</time></trkpt><trkpt lat="45.39546266215839" lon="9.062972022870316"><ele>108.0</ele><time>2026-04-08T15:03:42.999Z</time></trkpt><trkpt lat="45.395346485943946" lon="9.063051311358022"><ele>108.0</ele><time>2026-04-08T15:03:43.999Z</time></trkpt><trkpt lat="45.39523839481015" lon="9.06312299730495"><ele>108.0</ele><time>2026-04-08T15:03:44.999Z</time></trkpt><trkpt lat="45.395140823514176" lon="9.063185269494056"><ele>108.00000000000001</ele><time>2026-04-08T15:03:45.999Z</time></trkpt><trkpt lat="45.39505098548581" lon="9.063242606164357"><ele>108.00000000000001</ele><time>2026-04-08T15:03:46.999Z</time></trkpt><trkpt lat="45.394965154050155" lon="9.063296856472586"><ele>108.0</ele><time>2026-04-08T15:03:47.999Z</time></trkpt><trkpt lat="45.394883539681175" lon="9.063347302883939"><ele>108.0</ele><time>2026-04-08T15:03:48.999Z</time></trkpt><trkpt lat="45.39480392422726" lon="9.063396513771297"><ele>107.83333333333333</ele><time>2026-04-08T15:03:49.999Z</time></trkpt><trkpt lat="45.394727518173795" lon="9.063443339178255"><ele>107.66666666666666</ele><time>2026-04-08T15:03:50.999Z</time></trkpt><trkpt lat="45.3946538620619" lon="9.063487465706787"><ele>107.5</ele><time>2026-04-08T15:03:51.999Z</time></trkpt><trkpt lat="45.39458236920808" lon="9.063530296310631"><ele>107.33333333333333</ele><time>2026-04-08T15:03:52.999Z</time></trkpt><trkpt lat="45.39451689861454" lon="9.063568867528689"><ele>107.16666666666666</ele><time>2026-04-08T15:03:53.999Z</time></trkpt><trkpt lat="45.39445268626518" lon="9.063604008237807"><ele>107.0</ele><time>2026-04-08T15:03:54.999Z</time></trkpt><trkpt lat="45.394341262282616" lon="9.063657953656632"><ele>107.39999999999999</ele><time>2026-04-08T15:03:56.999Z</time></trkpt><trkpt lat="45.394242674958896" lon="9.063689800528552"><ele>107.79999999999998</ele><time>2026-04-08T15:03:58.999Z</time></trkpt><trkpt lat="45.39417671207943" lon="9.063705986128136"><ele>108.2</ele><time>2026-04-08T15:03:59.999Z</time></trkpt><trkpt lat="45.394109348068916" lon="9.06381505033248"><ele>108.6</ele><time>2026-04-08T15:04:01.999Z</time></trkpt><trkpt lat="45.39404203736032" lon="9.06394843673577"><ele>109.0</ele><time>2026-04-08T15:04:03.999Z</time></trkpt><trkpt lat="45.39400119950703" lon="9.064034786804243"><ele>109.0</ele><time>2026-04-08T15:04:04.999Z</time></trkpt><trkpt lat="45.39395576718306" lon="9.064131358167481"><ele>109.0</ele><time>2026-04-08T15:04:05.999Z</time></trkpt><trkpt lat="45.393906048141375" lon="9.064238551947481"><ele>109.0</ele><time>2026-04-08T15:04:06.999Z</time></trkpt><trkpt lat="45.39385392032233" lon="9.064350940336656"><ele>109.0</ele><time>2026-04-08T15:04:07.999Z</time></trkpt><trkpt lat="45.39379773898739" lon="9.064470429263228"><ele>109.0</ele><time>2026-04-08T15:04:08.999Z</time></trkpt><trkpt lat="45.393744667911506" lon="9.064578354916204"><ele>109.00000000000001</ele><time>2026-04-08T15:04:09.999Z</time></trkpt><trkpt lat="45.393696630724286" lon="9.064676187290305"><ele>109.0</ele><time>2026-04-08T15:04:10.999Z</time></trkpt><trkpt lat="45.393651436159274" lon="9.064768184366065"><ele>109.0</ele><time>2026-04-08T15:04:11.999Z</time></trkpt><trkpt lat="45.39360574187848" lon="9.064861191056545"><ele>109.0</ele><time>2026-04-08T15:04:12.999Z</time></trkpt><trkpt lat="45.39355603470007" lon="9.064962348493403"><ele>109.00000000000001</ele><time>2026-04-08T15:04:13.999Z</time></trkpt><trkpt lat="45.39350385142672" lon="9.065068505842213"><ele>109.0</ele><time>2026-04-08T15:04:14.999Z</time></trkpt><trkpt lat="45.39344821680674" lon="9.065181684319574"><ele>109.0</ele><time>2026-04-08T15:04:15.999Z</time></trkpt><trkpt lat="45.39339083996446" lon="9.065299875921408"><ele>109.0</ele><time>2026-04-08T15:04:16.999Z</time></trkpt><trkpt lat="45.39332996550223" lon="9.065425322642584"><ele>109.0</ele><time>2026-04-08T15:04:17.999Z</time></trkpt><trkpt lat="45.39326685687143" lon="9.065555373461441"><ele>109.0</ele><time>2026-04-08T15:04:18.999Z</time></trkpt><trkpt lat="45.39319908546334" lon="9.065696097519258"><ele>109.0</ele><time>2026-04-08T15:04:19.999Z</time></trkpt><trkpt lat="45.3931306458257" lon="9.065838551816327"><ele>108.75</ele><time>2026-04-08T15:04:20.999Z</time></trkpt><trkpt lat="45.39306347474532" lon="9.065978365732068"><ele>108.5</ele><time>2026-04-08T15:04:21.999Z</time></trkpt><trkpt lat="45.392996340387555" lon="9.066118103178582"><ele>108.25</ele><time>2026-04-08T15:04:22.999Z</time></trkpt><trkpt lat="45.392929409228735" lon="9.066254788140204"><ele>108.0</ele><time>2026-04-08T15:04:23.999Z</time></trkpt><trkpt lat="45.39286315717825" lon="9.06638919049378"><ele>108.0</ele><time>2026-04-08T15:04:24.999Z</time></trkpt><trkpt lat="45.39279845957101" lon="9.06652043943155"><ele>108.00000000000001</ele><time>2026-04-08T15:04:25.999Z</time></trkpt><trkpt lat="45.39273365974132" lon="9.06665228979048"><ele>108.00000000000001</ele><time>2026-04-08T15:04:26.999Z</time></trkpt><trkpt lat="45.39267130640081" lon="9.066781301153194"><ele>108.0</ele><time>2026-04-08T15:04:27.999Z</time></trkpt><trkpt lat="45.39262716561993" lon="9.066917101190484"><ele>108.0</ele><time>2026-04-08T15:04:28.999Z</time></trkpt><trkpt lat="45.39255767129393" lon="9.067019780945156"><ele>107.80000000000001</ele><time>2026-04-08T15:04:29.999Z</time></trkpt><trkpt lat="45.39250261077296" lon="9.067131775239844"><ele>107.60000000000001</ele><time>2026-04-08T15:04:30.999Z</time></trkpt><trkpt lat="45.39246232297723" lon="9.067246979828907"><ele>107.39999999999999</ele><time>2026-04-08T15:04:31.999Z</time></trkpt><trkpt lat="45.39240231652502" lon="9.067339003477771"><ele>107.19999999999999</ele><time>2026-04-08T15:04:32.999Z</time></trkpt><trkpt lat="45.392320540398984" lon="9.067410577522358"><ele>107.0</ele><time>2026-04-08T15:04:33.999Z</time></trkpt><trkpt lat="45.39224492741424" lon="9.067502375955332"><ele>107.19999999999999</ele><time>2026-04-08T15:04:34.999Z</time></trkpt><trkpt lat="45.392168452701505" lon="9.067608073616718"><ele>107.39999999999999</ele><time>2026-04-08T15:04:35.999Z</time></trkpt><trkpt lat="45.39209098052668" lon="9.067717552709789"><ele>107.60000000000001</ele><time>2026-04-08T15:04:36.999Z</time></trkpt><trkpt lat="45.39202288458947" lon="9.067819050515682"><ele>107.80000000000001</ele><time>2026-04-08T15:04:37.999Z</time></trkpt><trkpt lat="45.39195563079025" lon="9.067913897270481"><ele>108.0</ele><time>2026-04-08T15:04:38.999Z</time></trkpt><trkpt lat="45.39187669489796" lon="9.068001600652975"><ele>108.0</ele><time>2026-04-08T15:04:39.999Z</time></trkpt><trkpt lat="45.391786215552926" lon="9.068087062148333"><ele>108.0</ele><time>2026-04-08T15:04:40.999Z</time></trkpt><trkpt lat="45.391685913256005" lon="9.068174509245015"><ele>108.0</ele><time>2026-04-08T15:04:41.999Z</time></trkpt><trkpt lat="45.39157835213441" lon="9.068266712532523"><ele>108.0</ele><time>2026-04-08T15:04:42.999Z</time></trkpt><trkpt lat="45.391471391747366" lon="9.068361137041189"><ele>108.0</ele><time>2026-04-08T15:04:43.999Z</time></trkpt><trkpt lat="45.39137145633168" lon="9.06846372014803"><ele>108.0</ele><time>2026-04-08T15:04:44.999Z</time></trkpt><trkpt lat="45.3912768672996" lon="9.068573279122068"><ele>108.0</ele><time>2026-04-08T15:04:45.999Z</time></trkpt><trkpt lat="45.39118659141937" lon="9.068697322782779"><ele>108.0</ele><time>2026-04-08T15:04:46.999Z</time></trkpt><trkpt lat="45.391106676195164" lon="9.068827913908025"><ele>108.0</ele><time>2026-04-08T15:04:47.999Z</time></trkpt><trkpt lat="45.391038891331036" lon="9.068979169483423"><ele>108.0</ele><time>2026-04-08T15:04:48.999Z</time></trkpt><trkpt lat="45.39097831491219" lon="9.069128565074404"><ele>108.0</ele><time>2026-04-08T15:04:49.999Z</time></trkpt><trkpt lat="45.390886220898366" lon="9.069261418144519"><ele>108.0</ele><time>2026-04-08T15:04:50.999Z</time></trkpt><trkpt lat="45.39079200448305" lon="9.06941196944669"><ele>107.75</ele><time>2026-04-08T15:04:51.999Z</time></trkpt><trkpt lat="45.39069805569966" lon="9.069577695159708"><ele>107.5</ele><time>2026-04-08T15:04:52.999Z</time></trkpt><trkpt lat="45.39061670888648" lon="9.069757383797898"><ele>107.25</ele><time>2026-04-08T15:04:53.999Z</time></trkpt><trkpt lat="45.39054895116265" lon="9.069939087718053"><ele>107.0</ele><time>2026-04-08T15:04:54.999Z</time></trkpt><trkpt lat="45.39049832436312" lon="9.070112800704019"><ele>107.0</ele><time>2026-04-08T15:04:55.999Z</time></trkpt><trkpt lat="45.39046938118236" lon="9.070259769478422"><ele>106.99999999999999</ele><time>2026-04-08T15:04:56.998Z</time></trkpt><trkpt lat="45.39044968352246" lon="9.070366609041352"><ele>106.99999999999999</ele><time>2026-04-08T15:04:57.998Z</time></trkpt><trkpt lat="45.39035656653887" lon="9.070438662264072"><ele>107.0</ele><time>2026-04-08T15:04:59.998Z</time></trkpt><trkpt lat="45.39027455822976" lon="9.070444692571177"><ele>107.0</ele><time>2026-04-08T15:05:00.998Z</time></trkpt><trkpt lat="45.390176729547306" lon="9.070457696991067"><ele>107.0</ele><time>2026-04-08T15:05:01.998Z</time></trkpt><trkpt lat="45.39006403672963" lon="9.070471772584217"><ele>107.0</ele><time>2026-04-08T15:05:02.998Z</time></trkpt><trkpt lat="45.389943118916875" lon="9.070485910156625"><ele>107.0</ele><time>2026-04-08T15:05:03.998Z</time></trkpt><trkpt lat="45.38982057334609" lon="9.070500238037136"><ele>107.0</ele><time>2026-04-08T15:05:04.998Z</time></trkpt><trkpt lat="45.38968109892306" lon="9.070516546487704"><ele>107.25</ele><time>2026-04-08T15:05:05.998Z</time></trkpt><trkpt lat="45.38954535487007" lon="9.070532468751416"><ele>107.5</ele><time>2026-04-08T15:05:06.998Z</time></trkpt><trkpt lat="45.389408406478715" lon="9.070568561040588"><ele>107.75</ele><time>2026-04-08T15:05:07.998Z</time></trkpt><trkpt lat="45.38928136512948" lon="9.07057830662589"><ele>108.0</ele><time>2026-04-08T15:05:08.998Z</time></trkpt><trkpt lat="45.38916375946294" lon="9.070588576725045"><ele>108.0</ele><time>2026-04-08T15:05:09.998Z</time></trkpt><trkpt lat="45.38906376516942" lon="9.070599468694883"><ele>108.00000000000001</ele><time>2026-04-08T15:05:10.998Z</time></trkpt><trkpt lat="45.38898056642229" lon="9.070609483588685"><ele>108.00000000000001</ele><time>2026-04-08T15:05:11.998Z</time></trkpt><trkpt lat="45.38887449419138" lon="9.070619528799451"><ele>108.0</ele><time>2026-04-08T15:05:13.998Z</time></trkpt><trkpt lat="45.38880445947031" lon="9.07068624276922"><ele>108.0</ele><time>2026-04-08T15:05:15.998Z</time></trkpt><trkpt lat="45.38882165249404" lon="9.07081520487171"><ele>108.0</ele><time>2026-04-08T15:05:16.998Z</time></trkpt><trkpt lat="45.3888386062632" lon="9.070951753031807"><ele>108.00000000000001</ele><time>2026-04-08T15:05:17.998Z</time></trkpt><trkpt lat="45.38884309151053" lon="9.071102931005994"><ele>108.00000000000001</ele><time>2026-04-08T15:05:18.998Z</time></trkpt><trkpt lat="45.38885751407822" lon="9.071257061264452"><ele>108.0</ele><time>2026-04-08T15:05:19.998Z</time></trkpt><trkpt lat="45.388865637516744" lon="9.071387122072665"><ele>108.0</ele><time>2026-04-08T15:05:20.998Z</time></trkpt><trkpt lat="45.38886800229404" lon="9.071482210447181"><ele>108.0</ele><time>2026-04-08T15:05:21.998Z</time></trkpt><trkpt lat="45.38880943494595" lon="9.07161128567125"><ele>108.0</ele><time>2026-04-08T15:05:23.998Z</time></trkpt><trkpt lat="45.388686096306365" lon="9.071576274132351"><ele>108.0</ele><time>2026-04-08T15:05:25.998Z</time></trkpt><trkpt lat="45.38858050908734" lon="9.071559915556247"><ele>108.0</ele><time>2026-04-08T15:05:26.998Z</time></trkpt><trkpt lat="45.38846341289377" lon="9.071541905227521"><ele>108.0</ele><time>2026-04-08T15:05:28Z</time></trkpt><trkpt lat="45.38833799275022" lon="9.071536597864934"><ele>108.0</ele><time>2026-04-08T15:05:29Z</time></trkpt><trkpt lat="45.3882149136402" lon="9.071544298167721"><ele>108.0</ele><time>2026-04-08T15:05:30Z</time></trkpt><trkpt lat="45.38810967029619" lon="9.071570434343647"><ele>108.0</ele><time>2026-04-08T15:05:31Z</time></trkpt><trkpt lat="45.38801078296447" lon="9.07158971460119"><ele>107.66666666666667</ele><time>2026-04-08T15:05:32Z</time></trkpt><trkpt lat="45.38792854588891" lon="9.071615487516322"><ele>107.33333333333334</ele><time>2026-04-08T15:05:33Z</time></trkpt><trkpt lat="45.38785766517503" lon="9.071668590800146"><ele>107.0</ele><time>2026-04-08T15:05:34Z</time></trkpt><trkpt lat="45.38779843306958" lon="9.071759403915516"><ele>106.66666666666667</ele><time>2026-04-08T15:05:35Z</time></trkpt><trkpt lat="45.387753692742564" lon="9.071863837908005"><ele>106.33333333333334</ele><time>2026-04-08T15:05:36Z</time></trkpt><trkpt lat="45.38767089312722" lon="9.07191278986787"><ele>106.0</ele><time>2026-04-08T15:05:37Z</time></trkpt><trkpt lat="45.38758814925881" lon="9.071944900011774"><ele>106.0</ele><time>2026-04-08T15:05:38Z</time></trkpt><trkpt lat="45.387487979296544" lon="9.071948539585492"><ele>106.0</ele><time>2026-04-08T15:05:39Z</time></trkpt><trkpt lat="45.38738359957157" lon="9.0719112275042"><ele>106.0</ele><time>2026-04-08T15:05:40Z</time></trkpt><trkpt lat="45.38726998186217" lon="9.071864456421585"><ele>106.0</ele><time>2026-04-08T15:05:41Z</time></trkpt><trkpt lat="45.387141047488484" lon="9.071860740244063"><ele>105.75</ele><time>2026-04-08T15:05:42Z</time></trkpt><trkpt lat="45.38701753045193" lon="9.0718587743826"><ele>105.5</ele><time>2026-04-08T15:05:43Z</time></trkpt><trkpt lat="45.38689073530496" lon="9.071892571522449"><ele>105.25</ele><time>2026-04-08T15:05:44Z</time></trkpt><trkpt lat="45.38676193959321" lon="9.071952188426522"><ele>105.0</ele><time>2026-04-08T15:05:45Z</time></trkpt><trkpt lat="45.38662269844275" lon="9.07202967584002"><ele>105.0</ele><time>2026-04-08T15:05:46Z</time></trkpt><trkpt lat="45.386478028724596" lon="9.072132088663324"><ele>105.0</ele><time>2026-04-08T15:05:46.999Z</time></trkpt><trkpt lat="45.38632906384034" lon="9.072232514034946"><ele>105.0</ele><time>2026-04-08T15:05:47.999Z</time></trkpt><trkpt lat="45.38618951448856" lon="9.0723057078955"><ele>105.33333333333334</ele><time>2026-04-08T15:05:48.999Z</time></trkpt><trkpt lat="45.386042081845" lon="9.072362275886935"><ele>105.66666666666667</ele><time>2026-04-08T15:05:49.999Z</time></trkpt><trkpt lat="45.38588805096533" lon="9.072401706704255"><ele>106.0</ele><time>2026-04-08T15:05:50.999Z</time></trkpt><trkpt lat="45.38572470477308" lon="9.07240642487476"><ele>106.0</ele><time>2026-04-08T15:05:51.999Z</time></trkpt><trkpt lat="45.385557454122534" lon="9.072403911041329"><ele>106.0</ele><time>2026-04-08T15:05:52.999Z</time></trkpt><trkpt lat="45.385395378684535" lon="9.072400064199037"><ele>106.0</ele><time>2026-04-08T15:05:53.999Z</time></trkpt><trkpt lat="45.38523832276467" lon="9.072415204010182"><ele>105.75</ele><time>2026-04-08T15:05:54.999Z</time></trkpt><trkpt lat="45.38510328889538" lon="9.072421525452276"><ele>105.5</ele><time>2026-04-08T15:05:55.999Z</time></trkpt><trkpt lat="45.38497886659678" lon="9.0724645475999"><ele>105.25</ele><time>2026-04-08T15:05:56.999Z</time></trkpt><trkpt lat="45.384845852937104" lon="9.07254518242862"><ele>105.0</ele><time>2026-04-08T15:05:57.999Z</time></trkpt><trkpt lat="45.384694469559236" lon="9.072624862694438"><ele>105.33333333333334</ele><time>2026-04-08T15:05:58.999Z</time></trkpt><trkpt lat="45.384539376151636" lon="9.072736843236425"><ele>105.66666666666667</ele><time>2026-04-08T15:05:59.999Z</time></trkpt><trkpt lat="45.38438659318962" lon="9.072850132788622"><ele>106.0</ele><time>2026-04-08T15:06:00.999Z</time></trkpt><trkpt lat="45.38423870579122" lon="9.07296101351552"><ele>106.0</ele><time>2026-04-08T15:06:01.999Z</time></trkpt><trkpt lat="45.384100906916466" lon="9.073073300183449"><ele>106.0</ele><time>2026-04-08T15:06:02.999Z</time></trkpt><trkpt lat="45.383987651440876" lon="9.073190024074883"><ele>106.0</ele><time>2026-04-08T15:06:03.999Z</time></trkpt><trkpt lat="45.38388443779912" lon="9.073305447584286"><ele>106.0</ele><time>2026-04-08T15:06:04.999Z</time></trkpt><trkpt lat="45.38377070581918" lon="9.07338548433946"><ele>105.66666666666667</ele><time>2026-04-08T15:06:05.999Z</time></trkpt><trkpt lat="45.38363589296937" lon="9.07345289403581"><ele>105.33333333333334</ele><time>2026-04-08T15:06:06.999Z</time></trkpt><trkpt lat="45.38348478745798" lon="9.073523540638757"><ele>105.0</ele><time>2026-04-08T15:06:07.999Z</time></trkpt><trkpt lat="45.38332762823468" lon="9.073595038942667"><ele>105.0</ele><time>2026-04-08T15:06:08.999Z</time></trkpt><trkpt lat="45.3831684368971" lon="9.073670783498494"><ele>105.0</ele><time>2026-04-08T15:06:09.999Z</time></trkpt><trkpt lat="45.383007524086516" lon="9.073744523990747"><ele>105.0</ele><time>2026-04-08T15:06:10.999Z</time></trkpt><trkpt lat="45.3828433414863" lon="9.073825904980266"><ele>104.66666666666666</ele><time>2026-04-08T15:06:11.999Z</time></trkpt><trkpt lat="45.382679921012326" lon="9.07390028496375"><ele>104.33333333333333</ele><time>2026-04-08T15:06:12.999Z</time></trkpt><trkpt lat="45.38252125046808" lon="9.073976278122021"><ele>104.0</ele><time>2026-04-08T15:06:13.999Z</time></trkpt><trkpt lat="45.38237226731335" lon="9.074050817009342"><ele>104.0</ele><time>2026-04-08T15:06:14.999Z</time></trkpt><trkpt lat="45.3822384640242" lon="9.074112613704601"><ele>104.0</ele><time>2026-04-08T15:06:15.999Z</time></trkpt><trkpt lat="45.382121520300316" lon="9.07415016697803"><ele>104.0</ele><time>2026-04-08T15:06:16.999Z</time></trkpt><trkpt lat="45.38200587336979" lon="9.074169065682316"><ele>104.0</ele><time>2026-04-08T15:06:17.999Z</time></trkpt><trkpt lat="45.38188416278178" lon="9.074198524305997"><ele>104.0</ele><time>2026-04-08T15:06:18.999Z</time></trkpt><trkpt lat="45.381760835597404" lon="9.074238224958565"><ele>104.0</ele><time>2026-04-08T15:06:19.999Z</time></trkpt><trkpt lat="45.38164438018141" lon="9.074312754520605"><ele>104.0</ele><time>2026-04-08T15:06:20.999Z</time></trkpt><trkpt lat="45.38152839653728" lon="9.074354187779424"><ele>104.0</ele><time>2026-04-08T15:06:21.999Z</time></trkpt><trkpt lat="45.381447636362864" lon="9.074398440803487"><ele>103.99999999999999</ele><time>2026-04-08T15:06:22.999Z</time></trkpt><trkpt lat="45.38138465154715" lon="9.074416126894402"><ele>104.0</ele><time>2026-04-08T15:06:24.999Z</time></trkpt><trkpt lat="45.381323683047995" lon="9.074383922420683"><ele>104.0</ele><time>2026-04-08T15:06:28.999Z</time></trkpt><trkpt lat="45.38128416110046" lon="9.074282003966882"><ele>104.0</ele><time>2026-04-08T15:06:29.999Z</time></trkpt><trkpt lat="45.381221298117865" lon="9.074167352835481"><ele>103.99999999999999</ele><time>2026-04-08T15:06:30.999Z</time></trkpt><trkpt lat="45.38115241663543" lon="9.074063792876325"><ele>104.0</ele><time>2026-04-08T15:06:31.999Z</time></trkpt><trkpt lat="45.38108067459843" lon="9.073946305249377"><ele>103.75</ele><time>2026-04-08T15:06:32.999Z</time></trkpt><trkpt lat="45.38100465786582" lon="9.073812666304818"><ele>103.5</ele><time>2026-04-08T15:06:33.999Z</time></trkpt><trkpt lat="45.38091942318564" lon="9.07367473340085"><ele>103.25</ele><time>2026-04-08T15:06:34.999Z</time></trkpt><trkpt lat="45.380828841196255" lon="9.073534767622764"><ele>103.0</ele><time>2026-04-08T15:06:35.999Z</time></trkpt><trkpt lat="45.380725188584094" lon="9.07338677648628"><ele>103.66666666666667</ele><time>2026-04-08T15:06:36.999Z</time></trkpt><trkpt lat="45.3806182989345" lon="9.07323461762749"><ele>104.33333333333334</ele><time>2026-04-08T15:06:37.999Z</time></trkpt><trkpt lat="45.3805058916576" lon="9.073087690288869"><ele>105.0</ele><time>2026-04-08T15:06:38.999Z</time></trkpt><trkpt lat="45.38040440203405" lon="9.0729185065808"><ele>105.0</ele><time>2026-04-08T15:06:39.999Z</time></trkpt><trkpt lat="45.38029811482445" lon="9.072773196870983"><ele>105.0</ele><time>2026-04-08T15:06:40.999Z</time></trkpt><trkpt lat="45.38019320196804" lon="9.072629919232774"><ele>105.0</ele><time>2026-04-08T15:06:41.999Z</time></trkpt><trkpt lat="45.38008326972914" lon="9.072487586709132"><ele>105.0</ele><time>2026-04-08T15:06:42.999Z</time></trkpt><trkpt lat="45.37999210364235" lon="9.072357030389817"><ele>105.0</ele><time>2026-04-08T15:06:43.999Z</time></trkpt><trkpt lat="45.37991016356658" lon="9.072229316973651"><ele>105.0</ele><time>2026-04-08T15:06:44.999Z</time></trkpt><trkpt lat="45.379858354858754" lon="9.07206256217666"><ele>105.0</ele><time>2026-04-08T15:06:45.999Z</time></trkpt><trkpt lat="45.379816644522975" lon="9.07187757275268"><ele>105.0</ele><time>2026-04-08T15:06:46.999Z</time></trkpt><trkpt lat="45.37977138767836" lon="9.071682707231433"><ele>105.0</ele><time>2026-04-08T15:06:47.999Z</time></trkpt><trkpt lat="45.379723157174155" lon="9.071467347950842"><ele>105.0</ele><time>2026-04-08T15:06:48.999Z</time></trkpt><trkpt lat="45.37968182199455" lon="9.071271487599377"><ele>105.0</ele><time>2026-04-08T15:06:49.999Z</time></trkpt><trkpt lat="45.37964093490325" lon="9.071092536388903"><ele>105.0</ele><time>2026-04-08T15:06:50.999Z</time></trkpt><trkpt lat="45.37962424027562" lon="9.070933752313803"><ele>105.0</ele><time>2026-04-08T15:06:51.999Z</time></trkpt><trkpt lat="45.37958291142815" lon="9.070816434639516"><ele>105.0</ele><time>2026-04-08T15:06:52.999Z</time></trkpt><trkpt lat="45.37956885100731" lon="9.070712071938525"><ele>105.0</ele><time>2026-04-08T15:06:53.999Z</time></trkpt><trkpt lat="45.37952020416531" lon="9.070596968283462"><ele>105.0</ele><time>2026-04-08T15:06:55.999Z</time></trkpt><trkpt lat="45.37947274108424" lon="9.070528171168544"><ele>105.0</ele><time>2026-04-08T15:06:59.999Z</time></trkpt><trkpt lat="45.37952262032166" lon="9.07047165392836"><ele>105.0</ele><time>2026-04-08T15:07:01.998Z</time></trkpt><trkpt lat="45.37963562611256" lon="9.070420586007032"><ele>105.0</ele><time>2026-04-08T15:07:03.998Z</time></trkpt><trkpt lat="45.379707177665935" lon="9.070389539248946"><ele>105.0</ele><time>2026-04-08T15:07:04.998Z</time></trkpt><trkpt lat="45.37977967554329" lon="9.070361946356758"><ele>105.0</ele><time>2026-04-08T15:07:05.998Z</time></trkpt><trkpt lat="45.37985425291505" lon="9.070336072434895"><ele>105.0</ele><time>2026-04-08T15:07:06.998Z</time></trkpt><trkpt lat="45.37992469051684" lon="9.07031457994135"><ele>105.0</ele><time>2026-04-08T15:07:07.998Z</time></trkpt><trkpt lat="45.380009414702464" lon="9.070288470661668"><ele>105.0</ele><time>2026-04-08T15:07:08.998Z</time></trkpt><trkpt lat="45.38008206956094" lon="9.07026905052254"><ele>105.0</ele><time>2026-04-08T15:07:09.998Z</time></trkpt><trkpt lat="45.38022539822628" lon="9.07022297234734"><ele>105.0</ele><time>2026-04-08T15:07:11.998Z</time></trkpt><trkpt lat="45.380303336803" lon="9.070179527169257"><ele>105.0</ele><time>2026-04-08T15:07:13.998Z</time></trkpt><trkpt lat="45.380326021071674" lon="9.070077094881604"><ele>105.0</ele><time>2026-04-08T15:07:17.998Z</time></trkpt><trkpt lat="45.380447774751225" lon="9.070007236952941"><ele>105.0</ele><time>2026-04-08T15:07:20.998Z</time></trkpt><trkpt lat="45.380529804487615" lon="9.069981743614628"><ele>105.0</ele><time>2026-04-08T15:07:21.998Z</time></trkpt><trkpt lat="45.38061821940752" lon="9.0699512488146"><ele>105.0</ele><time>2026-04-08T15:07:22.998Z</time></trkpt><trkpt lat="45.380712541855914" lon="9.069914094412587"><ele>105.0</ele><time>2026-04-08T15:07:23.998Z</time></trkpt><trkpt lat="45.38080543699823" lon="9.069874441655298"><ele>105.0</ele><time>2026-04-08T15:07:24.998Z</time></trkpt><trkpt lat="45.380909987879214" lon="9.069831118635115"><ele>105.0</ele><time>2026-04-08T15:07:25.998Z</time></trkpt><trkpt lat="45.3810007941808" lon="9.06979444962511"><ele>105.0</ele><time>2026-04-08T15:07:26.998Z</time></trkpt><trkpt lat="45.381093214999154" lon="9.069754868621379"><ele>105.0</ele><time>2026-04-08T15:07:27.998Z</time></trkpt><trkpt lat="45.381185808940735" lon="9.069716338342815"><ele>105.0</ele><time>2026-04-08T15:07:28.998Z</time></trkpt><trkpt lat="45.3812672498526" lon="9.069682044331342"><ele>105.0</ele><time>2026-04-08T15:07:29.998Z</time></trkpt><trkpt lat="45.38135348615231" lon="9.069647302584942"><ele>105.0</ele><time>2026-04-08T15:07:30.998Z</time></trkpt><trkpt lat="45.381443642872966" lon="9.069608048088796"><ele>105.0</ele><time>2026-04-08T15:07:31.998Z</time></trkpt><trkpt lat="45.38153807393118" lon="9.069571771136282"><ele>105.0</ele><time>2026-04-08T15:07:32.998Z</time></trkpt><trkpt lat="45.38163372517481" lon="9.06953466953366"><ele>105.0</ele><time>2026-04-08T15:07:34Z</time></trkpt><trkpt lat="45.38173207201281" lon="9.069491341836507"><ele>105.0</ele><time>2026-04-08T15:07:35Z</time></trkpt><trkpt lat="45.381828071811626" lon="9.06945129100488"><ele>105.0</ele><time>2026-04-08T15:07:36Z</time></trkpt><trkpt lat="45.38191871302518" lon="9.069417113788564"><ele>105.0</ele><time>2026-04-08T15:07:37Z</time></trkpt><trkpt lat="45.38200239063686" lon="9.06938527839125"><ele>105.0</ele><time>2026-04-08T15:07:38Z</time></trkpt><trkpt lat="45.38207556988589" lon="9.069357624022231"><ele>105.0</ele><time>2026-04-08T15:07:39Z</time></trkpt><trkpt lat="45.382187004354144" lon="9.069313206305418"><ele>105.0</ele><time>2026-04-08T15:07:41Z</time></trkpt><trkpt lat="45.38223112432357" lon="9.069211888562014"><ele>105.0</ele><time>2026-04-08T15:07:43Z</time></trkpt><trkpt lat="45.382201835023096" lon="9.069027509470647"><ele>105.0</ele><time>2026-04-08T15:07:45Z</time></trkpt><trkpt lat="45.382150854915025" lon="9.068943039506014"><ele>105.0</ele><time>2026-04-08T15:07:46Z</time></trkpt><trkpt lat="45.38210513967471" lon="9.068869053140443"><ele>105.0</ele><time>2026-04-08T15:07:47Z</time></trkpt><trkpt lat="45.38210612097582" lon="9.068738459637418"><ele>105.0</ele><time>2026-04-08T15:07:49Z</time></trkpt><trkpt lat="45.38219141695356" lon="9.068617604017374"><ele>105.0</ele><time>2026-04-08T15:07:51.001Z</time></trkpt><trkpt lat="45.382275980981966" lon="9.068547720112472"><ele>105.0</ele><time>2026-04-08T15:07:53.001Z</time></trkpt><trkpt lat="45.382357391759584" lon="9.068463008432742"><ele>105.0</ele><time>2026-04-08T15:07:56Z</time></trkpt><trkpt lat="45.382445087767735" lon="9.068359388388869"><ele>105.0</ele><time>2026-04-08T15:07:58Z</time></trkpt><trkpt lat="45.382500774628156" lon="9.068295870465123"><ele>105.0</ele><time>2026-04-08T15:07:59Z</time></trkpt><trkpt lat="45.38256377728811" lon="9.068226471781752"><ele>105.0</ele><time>2026-04-08T15:08:00Z</time></trkpt><trkpt lat="45.38262371686245" lon="9.068163319434491"><ele>105.0</ele><time>2026-04-08T15:08:01Z</time></trkpt><trkpt lat="45.38267955623231" lon="9.068105022049162"><ele>105.0</ele><time>2026-04-08T15:08:02Z</time></trkpt><trkpt lat="45.38273531502906" lon="9.068044949399713"><ele>105.0</ele><time>2026-04-08T15:08:03Z</time></trkpt><trkpt lat="45.38278985507418" lon="9.067981828126198"><ele>105.0</ele><time>2026-04-08T15:08:04Z</time></trkpt><trkpt lat="45.38284377537223" lon="9.067920056378185"><ele>105.0</ele><time>2026-04-08T15:08:05Z</time></trkpt><trkpt lat="45.38289816722349" lon="9.067859706106004"><ele>105.0</ele><time>2026-04-08T15:08:06Z</time></trkpt><trkpt lat="45.382991263708035" lon="9.067766341878281"><ele>105.0</ele><time>2026-04-08T15:08:08Z</time></trkpt><trkpt lat="45.38307248980269" lon="9.067689339050817"><ele>105.0</ele><time>2026-04-08T15:08:10Z</time></trkpt><trkpt lat="45.38314474674733" lon="9.06762499052721"><ele>105.0</ele><time>2026-04-08T15:08:12Z</time></trkpt><trkpt lat="45.38320953082636" lon="9.067549029331374"><ele>105.0</ele><time>2026-04-08T15:08:15Z</time></trkpt><trkpt lat="45.3832561617087" lon="9.067444596487123"><ele>105.0</ele><time>2026-04-08T15:08:18Z</time></trkpt><trkpt lat="45.383292067397434" lon="9.067342720450506"><ele>105.0</ele><time>2026-04-08T15:08:20Z</time></trkpt><trkpt lat="45.383292744984786" lon="9.067243493415923"><ele>105.0</ele><time>2026-04-08T15:08:22Z</time></trkpt><trkpt lat="45.38331553723664" lon="9.067118421306292"><ele>105.0</ele><time>2026-04-08T15:08:25Z</time></trkpt><trkpt lat="45.383378237335016" lon="9.067072602864897"><ele>105.0</ele><time>2026-04-08T15:08:27Z</time></trkpt><trkpt lat="45.38345743327958" lon="9.066995447801549"><ele>105.0</ele><time>2026-04-08T15:08:29Z</time></trkpt><trkpt lat="45.38355989509633" lon="9.066891015495223"><ele>105.0</ele><time>2026-04-08T15:08:31Z</time></trkpt><trkpt lat="45.3836151268375" lon="9.066829229102108"><ele>105.0</ele><time>2026-04-08T15:08:32Z</time></trkpt><trkpt lat="45.38366745660776" lon="9.066774379998488"><ele>105.0</ele><time>2026-04-08T15:08:33Z</time></trkpt><trkpt lat="45.38371718444478" lon="9.06671397351971"><ele>105.0</ele><time>2026-04-08T15:08:34Z</time></trkpt><trkpt lat="45.383794284295234" lon="9.066637288888368"><ele>105.0</ele><time>2026-04-08T15:08:36Z</time></trkpt><trkpt lat="45.38386629498396" lon="9.066550927174559"><ele>105.0</ele><time>2026-04-08T15:08:39Z</time></trkpt><trkpt lat="45.38388641875813" lon="9.066462266562601"><ele>105.0</ele><time>2026-04-08T15:08:43Z</time></trkpt><trkpt lat="45.3838375285961" lon="9.066548527721363"><ele>105.0</ele><time>2026-04-08T15:09:08.999Z</time></trkpt><trkpt lat="45.38378744521018" lon="9.066620782707703"><ele>105.0</ele><time>2026-04-08T15:09:09.999Z</time></trkpt><trkpt lat="45.38369712515563" lon="9.066714353521272"><ele>105.0</ele><time>2026-04-08T15:09:11.999Z</time></trkpt><trkpt lat="45.38359778209717" lon="9.066824852247182"><ele>105.0</ele><time>2026-04-08T15:09:13.999Z</time></trkpt><trkpt lat="45.38354244907439" lon="9.066884995879896"><ele>105.0</ele><time>2026-04-08T15:09:14.999Z</time></trkpt><trkpt lat="45.38344768506464" lon="9.066986713372412"><ele>105.0</ele><time>2026-04-08T15:09:16.999Z</time></trkpt><trkpt lat="45.38339517803627" lon="9.067036403458319"><ele>105.0</ele><time>2026-04-08T15:09:17.999Z</time></trkpt><trkpt lat="45.38331433710918" lon="9.067109345737478"><ele>105.0</ele><time>2026-04-08T15:09:19.999Z</time></trkpt><trkpt lat="45.383272217411765" lon="9.067187563605414"><ele>105.0</ele><time>2026-04-08T15:09:21.999Z</time></trkpt><trkpt lat="45.38328372759712" lon="9.06729777174224"><ele>105.0</ele><time>2026-04-08T15:09:23.999Z</time></trkpt><trkpt lat="45.383252903455116" lon="9.06743794576242"><ele>105.0</ele><time>2026-04-08T15:09:25.999Z</time></trkpt><trkpt lat="45.38321252840283" lon="9.06752331254202"><ele>105.0</ele><time>2026-04-08T15:09:26.999Z</time></trkpt><trkpt lat="45.38316203142108" lon="9.067604427421351"><ele>105.0</ele><time>2026-04-08T15:09:27.999Z</time></trkpt><trkpt lat="45.38309726770394" lon="9.067668044940431"><ele>105.0</ele><time>2026-04-08T15:09:28.999Z</time></trkpt><trkpt lat="45.38302154735389" lon="9.067736099851665"><ele>105.0</ele><time>2026-04-08T15:09:29.999Z</time></trkpt><trkpt lat="45.382940703989426" lon="9.067812472667082"><ele>105.0</ele><time>2026-04-08T15:09:30.999Z</time></trkpt><trkpt lat="45.38286360718483" lon="9.067894033203698"><ele>105.0</ele><time>2026-04-08T15:09:31.999Z</time></trkpt><trkpt lat="45.38279926554762" lon="9.067967056161015"><ele>105.0</ele><time>2026-04-08T15:09:32.999Z</time></trkpt><trkpt lat="45.382728814336225" lon="9.06804676908337"><ele>105.0</ele><time>2026-04-08T15:09:33.999Z</time></trkpt><trkpt lat="45.38265899472492" lon="9.06812312976726"><ele>105.0</ele><time>2026-04-08T15:09:34.999Z</time></trkpt><trkpt lat="45.38259465261165" lon="9.06819242897064"><ele>105.0</ele><time>2026-04-08T15:09:35.999Z</time></trkpt><trkpt lat="45.38252372912525" lon="9.068266891396426"><ele>105.0</ele><time>2026-04-08T15:09:36.999Z</time></trkpt><trkpt lat="45.38245704327024" lon="9.068342356724935"><ele>105.0</ele><time>2026-04-08T15:09:37.999Z</time></trkpt><trkpt lat="45.38238896968472" lon="9.068418359101264"><ele>105.0</ele><time>2026-04-08T15:09:38.999Z</time></trkpt><trkpt lat="45.38232102364372" lon="9.068495601980251"><ele>105.0</ele><time>2026-04-08T15:09:40.001Z</time></trkpt><trkpt lat="45.38225994611557" lon="9.068561044906113"><ele>105.0</ele><time>2026-04-08T15:09:41.001Z</time></trkpt><trkpt lat="45.38220499830957" lon="9.068615400634632"><ele>105.0</ele><time>2026-04-08T15:09:42.001Z</time></trkpt><trkpt lat="45.382120438626295" lon="9.068727855007305"><ele>105.0</ele><time>2026-04-08T15:09:44.001Z</time></trkpt><trkpt lat="45.382117027863444" lon="9.06888400588848"><ele>105.0</ele><time>2026-04-08T15:09:46.001Z</time></trkpt><trkpt lat="45.382155923373126" lon="9.068963460267735"><ele>105.0</ele><time>2026-04-08T15:09:47.001Z</time></trkpt><trkpt lat="45.382203514521194" lon="9.069042346655806"><ele>105.0</ele><time>2026-04-08T15:09:48.001Z</time></trkpt><trkpt lat="45.38223690391007" lon="9.06912045851835"><ele>105.0</ele><time>2026-04-08T15:09:49.001Z</time></trkpt><trkpt lat="45.38223465066213" lon="9.069265417284806"><ele>105.0</ele><time>2026-04-08T15:09:51.001Z</time></trkpt><trkpt lat="45.382127272092525" lon="9.069331341851413"><ele>105.0</ele><time>2026-04-08T15:09:53.001Z</time></trkpt><trkpt lat="45.382045491757474" lon="9.069349042200539"><ele>105.0</ele><time>2026-04-08T15:09:54.001Z</time></trkpt><trkpt lat="45.3819615730254" lon="9.069378705151705"><ele>105.0</ele><time>2026-04-08T15:09:55.001Z</time></trkpt><trkpt lat="45.38186174729971" lon="9.069413877799102"><ele>105.0</ele><time>2026-04-08T15:09:56.001Z</time></trkpt><trkpt lat="45.381760581585475" lon="9.069453643580276"><ele>105.0</ele><time>2026-04-08T15:09:57.001Z</time></trkpt><trkpt lat="45.38165736816834" lon="9.069495303752777"><ele>105.0</ele><time>2026-04-08T15:09:58.001Z</time></trkpt><trkpt lat="45.38155829599631" lon="9.06953465381935"><ele>105.0</ele><time>2026-04-08T15:09:59.001Z</time></trkpt><trkpt lat="45.38146241987154" lon="9.069573863988037"><ele>105.0</ele><time>2026-04-08T15:10:00.001Z</time></trkpt><trkpt lat="45.38136395841658" lon="9.06961353877865"><ele>105.0</ele><time>2026-04-08T15:10:01Z</time></trkpt><trkpt lat="45.38126482215938" lon="9.069654758429381"><ele>105.0</ele><time>2026-04-08T15:10:02Z</time></trkpt><trkpt lat="45.38116314667071" lon="9.069696816655387"><ele>105.0</ele><time>2026-04-08T15:10:03Z</time></trkpt><trkpt lat="45.381057472831216" lon="9.069740699252453"><ele>105.0</ele><time>2026-04-08T15:10:04Z</time></trkpt><trkpt lat="45.38094872600239" lon="9.06978357625121"><ele>105.0</ele><time>2026-04-08T15:10:05Z</time></trkpt><trkpt lat="45.38084008034768" lon="9.069827023495272"><ele>105.0</ele><time>2026-04-08T15:10:06Z</time></trkpt><trkpt lat="45.38072900902692" lon="9.069871523712184"><ele>105.0</ele><time>2026-04-08T15:10:07Z</time></trkpt><trkpt lat="45.380619745929394" lon="9.069914880325838"><ele>105.0</ele><time>2026-04-08T15:10:08Z</time></trkpt><trkpt lat="45.38051989525164" lon="9.069951643099813"><ele>105.0</ele><time>2026-04-08T15:10:09Z</time></trkpt><trkpt lat="45.38043800455398" lon="9.069980073064501"><ele>105.0</ele><time>2026-04-08T15:10:10Z</time></trkpt><trkpt lat="45.380353418524564" lon="9.070023233210785"><ele>105.0</ele><time>2026-04-08T15:10:12Z</time></trkpt><trkpt lat="45.3802789945843" lon="9.070034232762564"><ele>105.0</ele><time>2026-04-08T15:10:17Z</time></trkpt><trkpt lat="45.380231752742446" lon="9.069945594491584"><ele>105.0</ele><time>2026-04-08T15:10:20Z</time></trkpt><trkpt lat="45.380211190002406" lon="9.069856846044784"><ele>105.0</ele><time>2026-04-08T15:10:22Z</time></trkpt><trkpt lat="45.38019057157305" lon="9.06974993930812"><ele>105.0</ele><time>2026-04-08T15:10:24Z</time></trkpt><trkpt lat="45.380154222159604" lon="9.069587182318607"><ele>105.0</ele><time>2026-04-08T15:10:26Z</time></trkpt><trkpt lat="45.380132008374964" lon="9.069490475061407"><ele>105.0</ele><time>2026-04-08T15:10:27Z</time></trkpt><trkpt lat="45.38010955523668" lon="9.069392994174303"><ele>105.0</ele><time>2026-04-08T15:10:28Z</time></trkpt><trkpt lat="45.38008802581459" lon="9.069296515590983"><ele>105.0</ele><time>2026-04-08T15:10:29Z</time></trkpt><trkpt lat="45.38006811458043" lon="9.069203900379517"><ele>105.0</ele><time>2026-04-08T15:10:30Z</time></trkpt><trkpt lat="45.38004676129652" lon="9.06911244137489"><ele>105.0</ele><time>2026-04-08T15:10:31Z</time></trkpt><trkpt lat="45.380017083441956" lon="9.068962387121813"><ele>105.0</ele><time>2026-04-08T15:10:33Z</time></trkpt><trkpt lat="45.37998807268889" lon="9.068853894099135"><ele>105.0</ele><time>2026-04-08T15:10:35Z</time></trkpt><trkpt lat="45.37998262958312" lon="9.068755517563925"><ele>105.0</ele><time>2026-04-08T15:10:37Z</time></trkpt><trkpt lat="45.380035207528195" lon="9.068696007005634"><ele>105.0</ele><time>2026-04-08T15:10:39Z</time></trkpt><trkpt lat="45.38011272556316" lon="9.06866336967648"><ele>105.0</ele><time>2026-04-08T15:10:41Z</time></trkpt><trkpt lat="45.3802046178712" lon="9.068622477986713"><ele>105.0</ele><time>2026-04-08T15:10:43Z</time></trkpt><trkpt lat="45.380317211054326" lon="9.068571783514043"><ele>105.0</ele><time>2026-04-08T15:10:45Z</time></trkpt><trkpt lat="45.380411856486624" lon="9.068525076139478"><ele>105.0</ele><time>2026-04-08T15:10:47Z</time></trkpt><trkpt lat="45.38047744117382" lon="9.068468108790704"><ele>105.0</ele><time>2026-04-08T15:10:50Z</time></trkpt><trkpt lat="45.38045958565156" lon="9.06837230037563"><ele>105.0</ele><time>2026-04-08T15:10:53Z</time></trkpt><trkpt lat="45.38038908090557" lon="9.068287930869797"><ele>105.0</ele><time>2026-04-08T15:10:55Z</time></trkpt><trkpt lat="45.38030765000687" lon="9.068169147489009"><ele>104.83333333333333</ele><time>2026-04-08T15:10:57Z</time></trkpt><trkpt lat="45.380259163595404" lon="9.068088557572288"><ele>104.66666666666666</ele><time>2026-04-08T15:10:58Z</time></trkpt><trkpt lat="45.38020858273585" lon="9.06800630009055"><ele>104.5</ele><time>2026-04-08T15:10:59Z</time></trkpt><trkpt lat="45.38015327716532" lon="9.067920341482994"><ele>104.33333333333333</ele><time>2026-04-08T15:11:00Z</time></trkpt><trkpt lat="45.3801030076046" lon="9.067839512139209"><ele>104.16666666666666</ele><time>2026-04-08T15:11:01Z</time></trkpt><trkpt lat="45.38004812153444" lon="9.067752083459377"><ele>104.0</ele><time>2026-04-08T15:11:02Z</time></trkpt><trkpt lat="45.37999616600841" lon="9.067670572580143"><ele>104.0</ele><time>2026-04-08T15:11:03Z</time></trkpt><trkpt lat="45.37994635414126" lon="9.067592334010655"><ele>104.0</ele><time>2026-04-08T15:11:04Z</time></trkpt><trkpt lat="45.37989915428063" lon="9.067517989021379"><ele>104.0</ele><time>2026-04-08T15:11:05Z</time></trkpt><trkpt lat="45.37985401892682" lon="9.067446590593375"><ele>104.0</ele><time>2026-04-08T15:11:06Z</time></trkpt><trkpt lat="45.37980469136266" lon="9.067369196207022"><ele>104.0</ele><time>2026-04-08T15:11:07Z</time></trkpt><trkpt lat="45.379756857686" lon="9.067296715281923"><ele>104.0</ele><time>2026-04-08T15:11:08Z</time></trkpt><trkpt lat="45.37971422341644" lon="9.067230464543472"><ele>104.0</ele><time>2026-04-08T15:11:09Z</time></trkpt><trkpt lat="45.379644464631504" lon="9.067122842867162"><ele>103.99999999999999</ele><time>2026-04-08T15:11:10.999Z</time></trkpt><trkpt lat="45.37960231640716" lon="9.06705271560023"><ele>104.0</ele><time>2026-04-08T15:11:11.999Z</time></trkpt><trkpt lat="45.37955330847914" lon="9.066972582646882"><ele>104.0</ele><time>2026-04-08T15:11:12.999Z</time></trkpt><trkpt lat="45.37950186671356" lon="9.066891784969126"><ele>104.0</ele><time>2026-04-08T15:11:13.999Z</time></trkpt><trkpt lat="45.379453105072606" lon="9.066814703501818"><ele>103.99999999999999</ele><time>2026-04-08T15:11:14.999Z</time></trkpt><trkpt lat="45.379373926001435" lon="9.066689104514046"><ele>104.0</ele><time>2026-04-08T15:11:16.999Z</time></trkpt><trkpt lat="45.37932952258558" lon="9.066623558824881"><ele>104.14285714285714</ele><time>2026-04-08T15:11:17.999Z</time></trkpt><trkpt lat="45.37928340396218" lon="9.066548051242279"><ele>104.28571428571429</ele><time>2026-04-08T15:11:18.999Z</time></trkpt><trkpt lat="45.379232276100225" lon="9.066468945260361"><ele>104.42857142857143</ele><time>2026-04-08T15:11:19.999Z</time></trkpt><trkpt lat="45.379187236769525" lon="9.066397735005927"><ele>104.57142857142857</ele><time>2026-04-08T15:11:20.999Z</time></trkpt><trkpt lat="45.37914367389693" lon="9.066327150933143"><ele>104.71428571428572</ele><time>2026-04-08T15:11:21.999Z</time></trkpt><trkpt lat="45.379098556644124" lon="9.0662551696512"><ele>104.85714285714286</ele><time>2026-04-08T15:11:22.999Z</time></trkpt><trkpt lat="45.37905037635728" lon="9.066177307608601"><ele>105.0</ele><time>2026-04-08T15:11:23.999Z</time></trkpt><trkpt lat="45.3790046378463" lon="9.066106310525349"><ele>105.0</ele><time>2026-04-08T15:11:24.999Z</time></trkpt><trkpt lat="45.37895813284721" lon="9.066032479030802"><ele>105.0</ele><time>2026-04-08T15:11:25.999Z</time></trkpt><trkpt lat="45.378907771400065" lon="9.065953833524464"><ele>105.0</ele><time>2026-04-08T15:11:26.999Z</time></trkpt><trkpt lat="45.37886014292758" lon="9.065877465716913"><ele>105.0</ele><time>2026-04-08T15:11:27.999Z</time></trkpt><trkpt lat="45.378778456751384" lon="9.065743715658808"><ele>105.0</ele><time>2026-04-08T15:11:29.999Z</time></trkpt><trkpt lat="45.378736679410515" lon="9.06567451085402"><ele>105.0</ele><time>2026-04-08T15:11:30.999Z</time></trkpt><trkpt lat="45.37867811892582" lon="9.065565134527043"><ele>105.0</ele><time>2026-04-08T15:11:32.999Z</time></trkpt><trkpt lat="45.37863237246022" lon="9.0654954285527"><ele>105.0</ele><time>2026-04-08T15:11:34.999Z</time></trkpt><trkpt lat="45.378577942757175" lon="9.065434679431261"><ele>105.0</ele><time>2026-04-08T15:11:37.999Z</time></trkpt><trkpt lat="45.378493418195596" lon="9.065434563157922"><ele>105.0</ele><time>2026-04-08T15:11:40.999Z</time></trkpt><trkpt lat="45.37842548544968" lon="9.065506543437074"><ele>105.0</ele><time>2026-04-08T15:11:42.999Z</time></trkpt><trkpt lat="45.37835506353442" lon="9.065564533346018"><ele>105.0</ele><time>2026-04-08T15:11:44.999Z</time></trkpt><trkpt lat="45.37829171347931" lon="9.065596141401873"><ele>105.0</ele><time>2026-04-08T15:11:47Z</time></trkpt><trkpt lat="45.378218268745464" lon="9.065532628963123"><ele>105.0</ele><time>2026-04-08T15:11:50Z</time></trkpt><trkpt lat="45.37814702697506" lon="9.065431456218011"><ele>105.0</ele><time>2026-04-08T15:11:52Z</time></trkpt><trkpt lat="45.37805153474251" lon="9.065315013262802"><ele>105.0</ele><time>2026-04-08T15:11:54Z</time></trkpt><trkpt lat="45.37799631027981" lon="9.065249224844893"><ele>105.0</ele><time>2026-04-08T15:11:55Z</time></trkpt><trkpt lat="45.377940295128745" lon="9.065179432764424"><ele>104.83333333333333</ele><time>2026-04-08T15:11:56Z</time></trkpt><trkpt lat="45.37788599368471" lon="9.06511063254065"><ele>104.66666666666666</ele><time>2026-04-08T15:11:57Z</time></trkpt><trkpt lat="45.37782789754772" lon="9.065039331791931"><ele>104.5</ele><time>2026-04-08T15:11:58Z</time></trkpt><trkpt lat="45.37776835980161" lon="9.064970012198218"><ele>104.33333333333333</ele><time>2026-04-08T15:11:59Z</time></trkpt><trkpt lat="45.37770683218227" lon="9.06489804565326"><ele>104.16666666666666</ele><time>2026-04-08T15:12:00Z</time></trkpt><trkpt lat="45.37763967220558" lon="9.064818739745387"><ele>104.0</ele><time>2026-04-08T15:12:01Z</time></trkpt><trkpt lat="45.37757846080797" lon="9.064743494232621"><ele>103.99999999999999</ele><time>2026-04-08T15:12:02Z</time></trkpt><trkpt lat="45.37751337383833" lon="9.06466664072288"><ele>104.0</ele><time>2026-04-08T15:12:03Z</time></trkpt><trkpt lat="45.377447593657145" lon="9.064586888370979"><ele>104.0</ele><time>2026-04-08T15:12:04Z</time></trkpt><trkpt lat="45.37738700620185" lon="9.064509048699865"><ele>104.0</ele><time>2026-04-08T15:12:05Z</time></trkpt><trkpt lat="45.3773267820521" lon="9.064436492896156"><ele>103.99999999999999</ele><time>2026-04-08T15:12:06Z</time></trkpt><trkpt lat="45.37725967673806" lon="9.064356911885811"><ele>104.0</ele><time>2026-04-08T15:12:07Z</time></trkpt><trkpt lat="45.37719160245895" lon="9.064274336324972"><ele>104.0</ele><time>2026-04-08T15:12:08Z</time></trkpt><trkpt lat="45.37713608483381" lon="9.064204493735819"><ele>104.0</ele><time>2026-04-08T15:12:09Z</time></trkpt><trkpt lat="45.37708502745393" lon="9.064143348913419"><ele>104.0</ele><time>2026-04-08T15:12:10Z</time></trkpt><trkpt lat="45.37703372093492" lon="9.064080737641195"><ele>104.0</ele><time>2026-04-08T15:12:11Z</time></trkpt><trkpt lat="45.376980676703084" lon="9.064015464000141"><ele>104.0</ele><time>2026-04-08T15:12:12Z</time></trkpt><trkpt lat="45.376926502159804" lon="9.063953929655968"><ele>104.0</ele><time>2026-04-08T15:12:13Z</time></trkpt><trkpt lat="45.376855300202756" lon="9.063869170403233"><ele>104.0</ele><time>2026-04-08T15:12:15Z</time></trkpt><trkpt lat="45.37682959227853" lon="9.063771044440665"><ele>104.0</ele><time>2026-04-08T15:12:20Z</time></trkpt><trkpt lat="45.37687701536111" lon="9.063640653157295"><ele>104.0</ele><time>2026-04-08T15:12:30Z</time></trkpt><trkpt lat="45.37692242695829" lon="9.063471247830833"><ele>104.0</ele><time>2026-04-08T15:12:32Z</time></trkpt><trkpt lat="45.37695167034535" lon="9.06337138501002"><ele>104.0</ele><time>2026-04-08T15:12:33Z</time></trkpt><trkpt lat="45.37697904763127" lon="9.06327125847266"><ele>104.0</ele><time>2026-04-08T15:12:34Z</time></trkpt><trkpt lat="45.37700727745325" lon="9.063164942426154"><ele>104.16666666666666</ele><time>2026-04-08T15:12:35Z</time></trkpt><trkpt lat="45.37703996639042" lon="9.063053695448811"><ele>104.33333333333333</ele><time>2026-04-08T15:12:36Z</time></trkpt><trkpt lat="45.377069346254906" lon="9.062943016175575"><ele>104.5</ele><time>2026-04-08T15:12:37Z</time></trkpt><trkpt lat="45.377096062507285" lon="9.06284454494829"><ele>104.66666666666666</ele><time>2026-04-08T15:12:38Z</time></trkpt><trkpt lat="45.37712851439848" lon="9.062724485316318"><ele>104.83333333333333</ele><time>2026-04-08T15:12:40Z</time></trkpt><trkpt lat="45.37707445189795" lon="9.062630542826696"><ele>105.0</ele><time>2026-04-08T15:12:53Z</time></trkpt><trkpt lat="45.37695141074081" lon="9.062536553759655"><ele>105.0</ele><time>2026-04-08T15:12:55Z</time></trkpt><trkpt lat="45.376891197459166" lon="9.062495526344907"><ele>105.0</ele><time>2026-04-08T15:12:56Z</time></trkpt><trkpt lat="45.37679331997089" lon="9.062427512940323"><ele>105.0</ele><time>2026-04-08T15:12:58Z</time></trkpt><trkpt lat="45.37672006701563" lon="9.06237230452803"><ele>105.0</ele><time>2026-04-08T15:13:00Z</time></trkpt><trkpt lat="45.37664845070342" lon="9.062321594219991"><ele>105.0</ele><time>2026-04-08T15:13:02Z</time></trkpt><trkpt lat="45.37658322988575" lon="9.06223115696003"><ele>105.0</ele><time>2026-04-08T15:13:04Z</time></trkpt><trkpt lat="45.376503457343325" lon="9.062087306598396"><ele>105.0</ele><time>2026-04-08T15:13:06Z</time></trkpt><trkpt lat="45.37646430195837" lon="9.062006897178316"><ele>105.0</ele><time>2026-04-08T15:13:06.999Z</time></trkpt><trkpt lat="45.376419917148105" lon="9.061924330211465"><ele>105.0</ele><time>2026-04-08T15:13:07.999Z</time></trkpt><trkpt lat="45.37637469087991" lon="9.061844873142649"><ele>105.0</ele><time>2026-04-08T15:13:08.999Z</time></trkpt><trkpt lat="45.376326982980075" lon="9.061758452753443"><ele>105.0</ele><time>2026-04-08T15:13:09.999Z</time></trkpt><trkpt lat="45.376279803376654" lon="9.061678163848699"><ele>105.0</ele><time>2026-04-08T15:13:10.999Z</time></trkpt><trkpt lat="45.376227818462816" lon="9.061594119071552"><ele>105.0</ele><time>2026-04-08T15:13:11.999Z</time></trkpt><trkpt lat="45.37617883782163" lon="9.061510699272297"><ele>105.0</ele><time>2026-04-08T15:13:12.999Z</time></trkpt><trkpt lat="45.376124387553" lon="9.061413721528305"><ele>105.0</ele><time>2026-04-08T15:13:13.999Z</time></trkpt><trkpt lat="45.37606620951711" lon="9.06131624101923"><ele>105.0</ele><time>2026-04-08T15:13:14.999Z</time></trkpt><trkpt lat="45.37601239154042" lon="9.06122113044619"><ele>105.0</ele><time>2026-04-08T15:13:15.999Z</time></trkpt><trkpt lat="45.37595626630972" lon="9.061128214794559"><ele>105.0</ele><time>2026-04-08T15:13:16.999Z</time></trkpt><trkpt lat="45.37589682252145" lon="9.06104935816136"><ele>105.0</ele><time>2026-04-08T15:13:17.999Z</time></trkpt><trkpt lat="45.3758393559704" lon="9.060960748527005"><ele>105.0</ele><time>2026-04-08T15:13:18.999Z</time></trkpt><trkpt lat="45.37577548995638" lon="9.060860498601805"><ele>105.0</ele><time>2026-04-08T15:13:19.999Z</time></trkpt><trkpt lat="45.37570348053026" lon="9.060761060484484"><ele>105.0</ele><time>2026-04-08T15:13:20.999Z</time></trkpt><trkpt lat="45.375633131519045" lon="9.060664124055931"><ele>105.0</ele><time>2026-04-08T15:13:21.999Z</time></trkpt><trkpt lat="45.37556665924411" lon="9.060575548780742"><ele>105.0</ele><time>2026-04-08T15:13:22.999Z</time></trkpt><trkpt lat="45.375512784963135" lon="9.060475871537749"><ele>104.85714285714286</ele><time>2026-04-08T15:13:23.999Z</time></trkpt><trkpt lat="45.37544523209006" lon="9.060399491768587"><ele>104.71428571428572</ele><time>2026-04-08T15:13:24.999Z</time></trkpt><trkpt lat="45.375389584183665" lon="9.060328102309922"><ele>104.57142857142857</ele><time>2026-04-08T15:13:25.999Z</time></trkpt><trkpt lat="45.37533679936378" lon="9.060251950011118"><ele>104.42857142857143</ele><time>2026-04-08T15:13:26.999Z</time></trkpt><trkpt lat="45.37528574423531" lon="9.060174643971504"><ele>104.28571428571429</ele><time>2026-04-08T15:13:27.999Z</time></trkpt><trkpt lat="45.37523771585882" lon="9.060107181436996"><ele>104.14285714285714</ele><time>2026-04-08T15:13:28.999Z</time></trkpt><trkpt lat="45.37518838547484" lon="9.060041201524417"><ele>104.0</ele><time>2026-04-08T15:13:29.999Z</time></trkpt><trkpt lat="45.375101952056916" lon="9.059917483720893"><ele>104.6</ele><time>2026-04-08T15:13:31.999Z</time></trkpt><trkpt lat="45.37503837493845" lon="9.059781620355036"><ele>105.2</ele><time>2026-04-08T15:13:33.999Z</time></trkpt><trkpt lat="45.37498784497866" lon="9.059654244706184"><ele>105.79999999999998</ele><time>2026-04-08T15:13:35.999Z</time></trkpt><trkpt lat="45.37493612849881" lon="9.059497904288687"><ele>106.39999999999999</ele><time>2026-04-08T15:13:37.999Z</time></trkpt><trkpt lat="45.37490980822736" lon="9.059407844406481"><ele>107.0</ele><time>2026-04-08T15:13:38.999Z</time></trkpt><trkpt lat="45.37488580598201" lon="9.059319241769163"><ele>107.00000000000001</ele><time>2026-04-08T15:13:39.999Z</time></trkpt><trkpt lat="45.374863761595115" lon="9.059229533831855"><ele>107.0</ele><time>2026-04-08T15:13:40.999Z</time></trkpt><trkpt lat="45.37483274136362" lon="9.059144469320573"><ele>107.0</ele><time>2026-04-08T15:13:41.999Z</time></trkpt><trkpt lat="45.3748129027143" lon="9.059049100077608"><ele>107.0</ele><time>2026-04-08T15:13:42.999Z</time></trkpt><trkpt lat="45.37479677757329" lon="9.05894757370085"><ele>107.0</ele><time>2026-04-08T15:13:43.999Z</time></trkpt><trkpt lat="45.37478449186756" lon="9.058841319897638"><ele>107.00000000000001</ele><time>2026-04-08T15:13:44.999Z</time></trkpt><trkpt lat="45.374777963579454" lon="9.058731665230665"><ele>107.0</ele><time>2026-04-08T15:13:45.999Z</time></trkpt><trkpt lat="45.3747657166696" lon="9.058618777416141"><ele>106.99999999999999</ele><time>2026-04-08T15:13:46.999Z</time></trkpt><trkpt lat="45.37474378279924" lon="9.058505182535225"><ele>107.0</ele><time>2026-04-08T15:13:47.999Z</time></trkpt><trkpt lat="45.374716420805115" lon="9.05839041945785"><ele>107.0</ele><time>2026-04-08T15:13:48.999Z</time></trkpt><trkpt lat="45.37469421030449" lon="9.058279332507965"><ele>107.0</ele><time>2026-04-08T15:13:49.999Z</time></trkpt><trkpt lat="45.37467967599353" lon="9.058186382195103"><ele>106.99999999999999</ele><time>2026-04-08T15:13:50.999Z</time></trkpt><trkpt lat="45.3746583067226" lon="9.058035695245268"><ele>107.0</ele><time>2026-04-08T15:13:53Z</time></trkpt><trkpt lat="45.37464129860073" lon="9.057947460855393"><ele>107.16666666666666</ele><time>2026-04-08T15:13:54Z</time></trkpt><trkpt lat="45.37462499889044" lon="9.05784930821091"><ele>107.33333333333333</ele><time>2026-04-08T15:13:55Z</time></trkpt><trkpt lat="45.37460531440987" lon="9.057759604653613"><ele>107.5</ele><time>2026-04-08T15:13:56Z</time></trkpt><trkpt lat="45.37457431178299" lon="9.05762855581412"><ele>107.66666666666666</ele><time>2026-04-08T15:13:58Z</time></trkpt><trkpt lat="45.374527926312524" lon="9.057553388443278"><ele>107.83333333333333</ele><time>2026-04-08T15:14:00Z</time></trkpt><trkpt lat="45.37443157267157" lon="9.057558722744124"><ele>108.0</ele><time>2026-04-08T15:14:02Z</time></trkpt><trkpt lat="45.37436545981171" lon="9.057591000799398"><ele>108.0</ele><time>2026-04-08T15:14:03Z</time></trkpt><trkpt lat="45.37423421052614" lon="9.057648281336267"><ele>108.00000000000001</ele><time>2026-04-08T15:14:05Z</time></trkpt><trkpt lat="45.37415359735437" lon="9.057679462275326"><ele>108.00000000000001</ele><time>2026-04-08T15:14:06Z</time></trkpt><trkpt lat="45.374070295388336" lon="9.057712155050073"><ele>108.0</ele><time>2026-04-08T15:14:07Z</time></trkpt><trkpt lat="45.37400430327744" lon="9.057736970220736"><ele>108.0</ele><time>2026-04-08T15:14:08Z</time></trkpt><trkpt lat="45.37392440692468" lon="9.057688631468507"><ele>108.0</ele><time>2026-04-08T15:14:11Z</time></trkpt><trkpt lat="45.37389233174411" lon="9.057518202562267"><ele>108.00000000000001</ele><time>2026-04-08T15:14:13Z</time></trkpt><trkpt lat="45.373871274577716" lon="9.057413233114836"><ele>108.00000000000001</ele><time>2026-04-08T15:14:14Z</time></trkpt><trkpt lat="45.37385143464625" lon="9.057292176489186"><ele>108.0</ele><time>2026-04-08T15:14:15Z</time></trkpt><trkpt lat="45.37383578048336" lon="9.057157302932215"><ele>108.0</ele><time>2026-04-08T15:14:16Z</time></trkpt><trkpt lat="45.37382737033055" lon="9.05702883237725"><ele>108.80000000000001</ele><time>2026-04-08T15:14:17Z</time></trkpt><trkpt lat="45.3738205411279" lon="9.056914442459219"><ele>109.60000000000001</ele><time>2026-04-08T15:14:18Z</time></trkpt><trkpt lat="45.37381375413433" lon="9.05679348411924"><ele>110.39999999999999</ele><time>2026-04-08T15:14:19Z</time></trkpt><trkpt lat="45.373808027761385" lon="9.056662479450186"><ele>111.19999999999999</ele><time>2026-04-08T15:14:20Z</time></trkpt><trkpt lat="45.37379768267495" lon="9.056515844441302"><ele>112.0</ele><time>2026-04-08T15:14:21Z</time></trkpt><trkpt lat="45.37378710626349" lon="9.056356269317627"><ele>112.25</ele><time>2026-04-08T15:14:22Z</time></trkpt><trkpt lat="45.37379005922879" lon="9.05619699194271"><ele>112.5</ele><time>2026-04-08T15:14:23Z</time></trkpt><trkpt lat="45.37375311073787" lon="9.056037525260756"><ele>112.75</ele><time>2026-04-08T15:14:24Z</time></trkpt><trkpt lat="45.37372388180484" lon="9.055871690746043"><ele>113.0</ele><time>2026-04-08T15:14:25Z</time></trkpt><trkpt lat="45.3737058921687" lon="9.055696974654898"><ele>112.5</ele><time>2026-04-08T15:14:26Z</time></trkpt><trkpt lat="45.37367014053947" lon="9.055529694888936"><ele>112.0</ele><time>2026-04-08T15:14:27Z</time></trkpt><trkpt lat="45.37361606323533" lon="9.05536339891445"><ele>111.5</ele><time>2026-04-08T15:14:28Z</time></trkpt><trkpt lat="45.3735769379898" lon="9.05518599751027"><ele>111.0</ele><time>2026-04-08T15:14:29Z</time></trkpt><trkpt lat="45.373531060679326" lon="9.055012880689947"><ele>110.0</ele><time>2026-04-08T15:14:30Z</time></trkpt><trkpt lat="45.37348721106941" lon="9.054850981477324"><ele>109.0</ele><time>2026-04-08T15:14:31Z</time></trkpt><trkpt lat="45.37344360032009" lon="9.054700177475171"><ele>108.0</ele><time>2026-04-08T15:14:32Z</time></trkpt><trkpt lat="45.37338844812824" lon="9.054565049692124"><ele>107.0</ele><time>2026-04-08T15:14:33Z</time></trkpt><trkpt lat="45.37330506784011" lon="9.054441033625027"><ele>107.0</ele><time>2026-04-08T15:14:34Z</time></trkpt><trkpt lat="45.37320876318124" lon="9.054293139957359"><ele>107.0</ele><time>2026-04-08T15:14:35Z</time></trkpt><trkpt lat="45.37309469224342" lon="9.054150392780965"><ele>107.0</ele><time>2026-04-08T15:14:36Z</time></trkpt><trkpt lat="45.3729799805559" lon="9.054017238017533"><ele>107.0</ele><time>2026-04-08T15:14:37Z</time></trkpt><trkpt lat="45.372878950943" lon="9.053858122430668"><ele>106.5</ele><time>2026-04-08T15:14:38Z</time></trkpt><trkpt lat="45.37278678834633" lon="9.053708531814774"><ele>106.0</ele><time>2026-04-08T15:14:39Z</time></trkpt><trkpt lat="45.372706347189016" lon="9.053557376937855"><ele>105.5</ele><time>2026-04-08T15:14:40Z</time></trkpt><trkpt lat="45.37264750275398" lon="9.053388888174252"><ele>105.0</ele><time>2026-04-08T15:14:41Z</time></trkpt><trkpt lat="45.372607534253376" lon="9.053202317528411"><ele>104.66666666666666</ele><time>2026-04-08T15:14:42Z</time></trkpt><trkpt lat="45.37256177564125" lon="9.053004081477367"><ele>104.33333333333333</ele><time>2026-04-08T15:14:43Z</time></trkpt><trkpt lat="45.37250814679727" lon="9.052785170985718"><ele>104.0</ele><time>2026-04-08T15:14:44Z</time></trkpt><trkpt lat="45.3724543299485" lon="9.052564329833928"><ele>104.33333333333333</ele><time>2026-04-08T15:14:45Z</time></trkpt><trkpt lat="45.372395783550736" lon="9.052323407661952"><ele>104.66666666666666</ele><time>2026-04-08T15:14:46Z</time></trkpt><trkpt lat="45.372338387531954" lon="9.05208553425393"><ele>105.0</ele><time>2026-04-08T15:14:47Z</time></trkpt><trkpt lat="45.37228537265929" lon="9.051864102854646"><ele>105.0</ele><time>2026-04-08T15:14:48Z</time></trkpt><trkpt lat="45.3722336964687" lon="9.051657166785517"><ele>105.0</ele><time>2026-04-08T15:14:49Z</time></trkpt><trkpt lat="45.37217783571419" lon="9.051466576349657"><ele>105.0</ele><time>2026-04-08T15:14:50Z</time></trkpt><trkpt lat="45.37211503020142" lon="9.051289941755636"><ele>105.0</ele><time>2026-04-08T15:14:51Z</time></trkpt><trkpt lat="45.37204343408709" lon="9.051128960542943"><ele>105.0</ele><time>2026-04-08T15:14:52Z</time></trkpt><trkpt lat="45.37196798308054" lon="9.050982236972741"><ele>105.0</ele><time>2026-04-08T15:14:53Z</time></trkpt><trkpt lat="45.371880407099844" lon="9.050819004346664"><ele>105.0</ele><time>2026-04-08T15:14:54Z</time></trkpt><trkpt lat="45.371790411169144" lon="9.050664660290302"><ele>105.0</ele><time>2026-04-08T15:14:55Z</time></trkpt><trkpt lat="45.371703222090005" lon="9.050511115832704"><ele>105.25</ele><time>2026-04-08T15:14:56Z</time></trkpt><trkpt lat="45.37160428608647" lon="9.050370954419746"><ele>105.5</ele><time>2026-04-08T15:14:57Z</time></trkpt><trkpt lat="45.37151040159226" lon="9.05023419460053"><ele>105.75</ele><time>2026-04-08T15:14:58Z</time></trkpt><trkpt lat="45.37142321201966" lon="9.05009505330791"><ele>106.0</ele><time>2026-04-08T15:14:59Z</time></trkpt><trkpt lat="45.37134313482131" lon="9.049958005705895"><ele>105.5</ele><time>2026-04-08T15:15:00Z</time></trkpt><trkpt lat="45.371271386571046" lon="9.04982760990995"><ele>105.0</ele><time>2026-04-08T15:15:01Z</time></trkpt><trkpt lat="45.37120397561591" lon="9.049695603286377"><ele>104.5</ele><time>2026-04-08T15:15:02Z</time></trkpt><trkpt lat="45.371140296435165" lon="9.049560166466568"><ele>104.0</ele><time>2026-04-08T15:15:03Z</time></trkpt><trkpt lat="45.371079913646746" lon="9.049419718584831"><ele>104.0</ele><time>2026-04-08T15:15:04Z</time></trkpt><trkpt lat="45.37101835641693" lon="9.049278793746963"><ele>104.0</ele><time>2026-04-08T15:15:05Z</time></trkpt><trkpt lat="45.37095365393005" lon="9.049138706710732"><ele>104.0</ele><time>2026-04-08T15:15:06Z</time></trkpt><trkpt lat="45.37089066723667" lon="9.04900534349943"><ele>104.0</ele><time>2026-04-08T15:15:07Z</time></trkpt><trkpt lat="45.370832248858655" lon="9.048882165721508"><ele>104.2</ele><time>2026-04-08T15:15:07.999Z</time></trkpt><trkpt lat="45.37078468013269" lon="9.048781999533238"><ele>104.4</ele><time>2026-04-08T15:15:08.999Z</time></trkpt><trkpt lat="45.37074696343195" lon="9.048699211011341"><ele>104.6</ele><time>2026-04-08T15:15:09.999Z</time></trkpt><trkpt lat="45.370694599015515" lon="9.048550679225071"><ele>104.8</ele><time>2026-04-08T15:15:11.999Z</time></trkpt><trkpt lat="45.370648208464836" lon="9.04845161796255"><ele>105.0</ele><time>2026-04-08T15:15:13.999Z</time></trkpt><trkpt lat="45.370807168277636" lon="9.048231152610612"><ele>105.0</ele><time>2026-04-08T15:15:15.999Z</time></trkpt><trkpt lat="45.37088200043229" lon="9.048135668516053"><ele>105.0</ele><time>2026-04-08T15:15:16.999Z</time></trkpt><trkpt lat="45.37096757794107" lon="9.048027555618985"><ele>105.0</ele><time>2026-04-08T15:15:17.999Z</time></trkpt><trkpt lat="45.37106309630899" lon="9.047906109720142"><ele>105.0</ele><time>2026-04-08T15:15:18.999Z</time></trkpt><trkpt lat="45.37116707593611" lon="9.04777754858659"><ele>105.0</ele><time>2026-04-08T15:15:19.999Z</time></trkpt><trkpt lat="45.37127703257897" lon="9.047651531335587"><ele>105.0</ele><time>2026-04-08T15:15:20.999Z</time></trkpt><trkpt lat="45.3713948789499" lon="9.047520396160108"><ele>105.0</ele><time>2026-04-08T15:15:21.999Z</time></trkpt><trkpt lat="45.371512452583445" lon="9.047387653080003"><ele>105.0</ele><time>2026-04-08T15:15:22.999Z</time></trkpt><trkpt lat="45.37162665891608" lon="9.047253110776913"><ele>105.25</ele><time>2026-04-08T15:15:23.999Z</time></trkpt><trkpt lat="45.371731258655856" lon="9.04713012341697"><ele>105.5</ele><time>2026-04-08T15:15:24.999Z</time></trkpt><trkpt lat="45.371830491471606" lon="9.047017344776327"><ele>105.75</ele><time>2026-04-08T15:15:25.999Z</time></trkpt><trkpt lat="45.37192755648849" lon="9.046910149039427"><ele>106.0</ele><time>2026-04-08T15:15:26.999Z</time></trkpt><trkpt lat="45.37201127782704" lon="9.046819204826487"><ele>106.0</ele><time>2026-04-08T15:15:27.999Z</time></trkpt><trkpt lat="45.372087468307015" lon="9.046745699167195"><ele>106.0</ele><time>2026-04-08T15:15:28.999Z</time></trkpt><trkpt lat="45.372166012033865" lon="9.04669369925442"><ele>106.0</ele><time>2026-04-08T15:15:29.999Z</time></trkpt><trkpt lat="45.37225221667362" lon="9.04665457700366"><ele>106.0</ele><time>2026-04-08T15:15:30.999Z</time></trkpt><trkpt lat="45.3723444628521" lon="9.046613480896415"><ele>106.0</ele><time>2026-04-08T15:15:31.999Z</time></trkpt><trkpt lat="45.372443309847085" lon="9.046560868940373"><ele>105.75</ele><time>2026-04-08T15:15:32.999Z</time></trkpt><trkpt lat="45.372545808680755" lon="9.046503109875989"><ele>105.5</ele><time>2026-04-08T15:15:33.999Z</time></trkpt><trkpt lat="45.372655854739484" lon="9.046441186976107"><ele>105.25</ele><time>2026-04-08T15:15:34.999Z</time></trkpt><trkpt lat="45.37276829722658" lon="9.046374636657822"><ele>105.0</ele><time>2026-04-08T15:15:35.999Z</time></trkpt><trkpt lat="45.37288599109654" lon="9.046294947327787"><ele>105.0</ele><time>2026-04-08T15:15:36.999Z</time></trkpt><trkpt lat="45.37300603889303" lon="9.04620713476551"><ele>105.0</ele><time>2026-04-08T15:15:37.999Z</time></trkpt><trkpt lat="45.37312858126601" lon="9.04610915420522"><ele>105.0</ele><time>2026-04-08T15:15:38.999Z</time></trkpt><trkpt lat="45.37325960935851" lon="9.04599672351878"><ele>105.0</ele><time>2026-04-08T15:15:39.999Z</time></trkpt><trkpt lat="45.37339864583766" lon="9.045870309058019"><ele>104.66666666666666</ele><time>2026-04-08T15:15:40.999Z</time></trkpt><trkpt lat="45.37353711931369" lon="9.045732443367479"><ele>104.33333333333333</ele><time>2026-04-08T15:15:41.999Z</time></trkpt><trkpt lat="45.37367429201693" lon="9.045604802962533"><ele>104.0</ele><time>2026-04-08T15:15:42.999Z</time></trkpt><trkpt lat="45.37380833366401" lon="9.045483905851508"><ele>104.66666666666666</ele><time>2026-04-08T15:15:43.999Z</time></trkpt><trkpt lat="45.37394521867117" lon="9.045365940859721"><ele>105.33333333333334</ele><time>2026-04-08T15:15:44.999Z</time></trkpt><trkpt lat="45.37407215239015" lon="9.045254090578053"><ele>106.0</ele><time>2026-04-08T15:15:45.999Z</time></trkpt><trkpt lat="45.37419086747385" lon="9.045134598317008"><ele>106.0</ele><time>2026-04-08T15:15:46.999Z</time></trkpt><trkpt lat="45.37430554023975" lon="9.044994807442773"><ele>106.0</ele><time>2026-04-08T15:15:47.999Z</time></trkpt><trkpt lat="45.374419678251485" lon="9.044839647624773"><ele>106.0</ele><time>2026-04-08T15:15:48.999Z</time></trkpt><trkpt lat="45.37453977623874" lon="9.044678063309352"><ele>106.0</ele><time>2026-04-08T15:15:49.999Z</time></trkpt><trkpt lat="45.37466751705531" lon="9.044511302919831"><ele>106.0</ele><time>2026-04-08T15:15:50.999Z</time></trkpt><trkpt lat="45.374792390618936" lon="9.044351081140867"><ele>106.0</ele><time>2026-04-08T15:15:51.999Z</time></trkpt><trkpt lat="45.37491090410846" lon="9.04419713608154"><ele>106.66666666666667</ele><time>2026-04-08T15:15:52.999Z</time></trkpt><trkpt lat="45.375029785212085" lon="9.04405139106727"><ele>107.33333333333334</ele><time>2026-04-08T15:15:53.999Z</time></trkpt><trkpt lat="45.37514406107425" lon="9.043913215465752"><ele>108.0</ele><time>2026-04-08T15:15:54.999Z</time></trkpt><trkpt lat="45.37525512764706" lon="9.043784838754583"><ele>108.0</ele><time>2026-04-08T15:15:55.999Z</time></trkpt><trkpt lat="45.37537120309702" lon="9.043671170910125"><ele>108.0</ele><time>2026-04-08T15:15:56.999Z</time></trkpt><trkpt lat="45.37550261274246" lon="9.04358509294585"><ele>108.0</ele><time>2026-04-08T15:15:58Z</time></trkpt><trkpt lat="45.37563213336527" lon="9.043523839276176"><ele>108.0</ele><time>2026-04-08T15:15:59Z</time></trkpt><trkpt lat="45.37574430939647" lon="9.04345708237005"><ele>108.0</ele><time>2026-04-08T15:16:00Z</time></trkpt><trkpt lat="45.37586958099445" lon="9.043380100282686"><ele>108.0</ele><time>2026-04-08T15:16:01Z</time></trkpt><trkpt lat="45.37596252606117" lon="9.043281872748032"><ele>108.0</ele><time>2026-04-08T15:16:02Z</time></trkpt><trkpt lat="45.376089127208665" lon="9.043203888372137"><ele>108.0</ele><time>2026-04-08T15:16:03Z</time></trkpt><trkpt lat="45.37622496265264" lon="9.043140916583859"><ele>107.66666666666666</ele><time>2026-04-08T15:16:04Z</time></trkpt><trkpt lat="45.37636617367574" lon="9.043062526714774"><ele>107.33333333333333</ele><time>2026-04-08T15:16:05Z</time></trkpt><trkpt lat="45.37650763835718" lon="9.042958320462365"><ele>107.0</ele><time>2026-04-08T15:16:06Z</time></trkpt><trkpt lat="45.3766553725939" lon="9.04282083400861"><ele>107.0</ele><time>2026-04-08T15:16:07Z</time></trkpt><trkpt lat="45.37680246399554" lon="9.042671481935573"><ele>107.0</ele><time>2026-04-08T15:16:08Z</time></trkpt><trkpt lat="45.3769562731731" lon="9.042515586145273"><ele>107.0</ele><time>2026-04-08T15:16:09Z</time></trkpt><trkpt lat="45.377105215465534" lon="9.042371631725379"><ele>107.0</ele><time>2026-04-08T15:16:10Z</time></trkpt><trkpt lat="45.3772445257738" lon="9.04222346710308"><ele>107.0</ele><time>2026-04-08T15:16:11Z</time></trkpt><trkpt lat="45.377370199942256" lon="9.04207895971136"><ele>107.0</ele><time>2026-04-08T15:16:12Z</time></trkpt><trkpt lat="45.37749919909521" lon="9.041934198256511"><ele>107.0</ele><time>2026-04-08T15:16:13Z</time></trkpt><trkpt lat="45.37762453519927" lon="9.041794645485593"><ele>107.0</ele><time>2026-04-08T15:16:14Z</time></trkpt><trkpt lat="45.37773600190639" lon="9.041658873200891"><ele>107.0</ele><time>2026-04-08T15:16:15Z</time></trkpt><trkpt lat="45.37784612450107" lon="9.041542525453007"><ele>107.0</ele><time>2026-04-08T15:16:16Z</time></trkpt><trkpt lat="45.37796711992016" lon="9.041427342581214"><ele>107.33333333333333</ele><time>2026-04-08T15:16:17Z</time></trkpt><trkpt lat="45.378103802324446" lon="9.041309149266851"><ele>107.66666666666666</ele><time>2026-04-08T15:16:18Z</time></trkpt><trkpt lat="45.378251342502665" lon="9.041206445627223"><ele>108.0</ele><time>2026-04-08T15:16:19Z</time></trkpt><trkpt lat="45.37841261216601" lon="9.041110992308242"><ele>108.0</ele><time>2026-04-08T15:16:20Z</time></trkpt><trkpt lat="45.3785776594648" lon="9.04102709048866"><ele>108.0</ele><time>2026-04-08T15:16:21Z</time></trkpt><trkpt lat="45.37874639283901" lon="9.04094784982541"><ele>108.0</ele><time>2026-04-08T15:16:22Z</time></trkpt><trkpt lat="45.3789037057377" lon="9.040892520990381"><ele>108.0</ele><time>2026-04-08T15:16:23Z</time></trkpt><trkpt lat="45.37905235553063" lon="9.040836112686334"><ele>108.0</ele><time>2026-04-08T15:16:24Z</time></trkpt><trkpt lat="45.37919171329866" lon="9.040784514104823"><ele>108.0</ele><time>2026-04-08T15:16:25Z</time></trkpt><trkpt lat="45.37932079568789" lon="9.040728062603572"><ele>108.0</ele><time>2026-04-08T15:16:26Z</time></trkpt><trkpt lat="45.37944265868843" lon="9.040668830651514"><ele>107.75</ele><time>2026-04-08T15:16:27Z</time></trkpt><trkpt lat="45.37956492584207" lon="9.04060356934483"><ele>107.5</ele><time>2026-04-08T15:16:28Z</time></trkpt><trkpt lat="45.37968510815893" lon="9.040545030911058"><ele>107.25</ele><time>2026-04-08T15:16:29Z</time></trkpt><trkpt lat="45.379791129129224" lon="9.040504278389205"><ele>107.0</ele><time>2026-04-08T15:16:30Z</time></trkpt><trkpt lat="45.37989121268816" lon="9.04047223964457"><ele>106.75</ele><time>2026-04-08T15:16:31Z</time></trkpt><trkpt lat="45.38000364729322" lon="9.040448030633765"><ele>106.5</ele><time>2026-04-08T15:16:32Z</time></trkpt><trkpt lat="45.380146834404606" lon="9.040440586149156"><ele>106.25</ele><time>2026-04-08T15:16:33Z</time></trkpt><trkpt lat="45.38028789671067" lon="9.040433807240476"><ele>106.0</ele><time>2026-04-08T15:16:34Z</time></trkpt><trkpt lat="45.38042519078553" lon="9.040424538917494"><ele>106.25</ele><time>2026-04-08T15:16:35Z</time></trkpt><trkpt lat="45.380551341562594" lon="9.040409438823236"><ele>106.5</ele><time>2026-04-08T15:16:36Z</time></trkpt><trkpt lat="45.38067155765926" lon="9.040386362739106"><ele>106.75</ele><time>2026-04-08T15:16:37Z</time></trkpt><trkpt lat="45.38078233176522" lon="9.04035753486908"><ele>107.0</ele><time>2026-04-08T15:16:38Z</time></trkpt><trkpt lat="45.380886296650594" lon="9.040317613594103"><ele>107.0</ele><time>2026-04-08T15:16:39Z</time></trkpt><trkpt lat="45.38098130293046" lon="9.040281441964321"><ele>106.99999999999999</ele><time>2026-04-08T15:16:40Z</time></trkpt><trkpt lat="45.381077343653146" lon="9.040266712706979"><ele>106.99999999999999</ele><time>2026-04-08T15:16:41Z</time></trkpt><trkpt lat="45.381165797598314" lon="9.040295367347973"><ele>107.0</ele><time>2026-04-08T15:16:42Z</time></trkpt><trkpt lat="45.38125597061338" lon="9.040293280621436"><ele>107.0</ele><time>2026-04-08T15:16:43Z</time></trkpt><trkpt lat="45.38135815221073" lon="9.040228602297343"><ele>107.0</ele><time>2026-04-08T15:16:44Z</time></trkpt><trkpt lat="45.38147629489382" lon="9.04016247686423"><ele>107.0</ele><time>2026-04-08T15:16:45Z</time></trkpt><trkpt lat="45.38160444913061" lon="9.040130453865094"><ele>107.0</ele><time>2026-04-08T15:16:46Z</time></trkpt><trkpt lat="45.381725172719335" lon="9.040158258477597"><ele>107.0</ele><time>2026-04-08T15:16:47Z</time></trkpt><trkpt lat="45.38183567180654" lon="9.040177893357944"><ele>107.0</ele><time>2026-04-08T15:16:48Z</time></trkpt><trkpt lat="45.38193796990122" lon="9.04018099171933"><ele>107.0</ele><time>2026-04-08T15:16:49Z</time></trkpt><trkpt lat="45.382042577372786" lon="9.040187338314935"><ele>107.0</ele><time>2026-04-08T15:16:50Z</time></trkpt><trkpt lat="45.382159929901576" lon="9.040171468072066"><ele>107.0</ele><time>2026-04-08T15:16:51Z</time></trkpt><trkpt lat="45.38228892251488" lon="9.040139730008491"><ele>106.75</ele><time>2026-04-08T15:16:52Z</time></trkpt><trkpt lat="45.382425731087444" lon="9.040085577384806"><ele>106.5</ele><time>2026-04-08T15:16:53Z</time></trkpt><trkpt lat="45.38256338533176" lon="9.040019423171021"><ele>106.25</ele><time>2026-04-08T15:16:54Z</time></trkpt><trkpt lat="45.382705761619846" lon="9.039948373736127"><ele>106.0</ele><time>2026-04-08T15:16:55Z</time></trkpt><trkpt lat="45.38284973595478" lon="9.039895934059718"><ele>106.75</ele><time>2026-04-08T15:16:56Z</time></trkpt><trkpt lat="45.38299742865351" lon="9.03986357883261"><ele>107.5</ele><time>2026-04-08T15:16:57Z</time></trkpt><trkpt lat="45.383147811703246" lon="9.039837777655833"><ele>108.25</ele><time>2026-04-08T15:16:58Z</time></trkpt><trkpt lat="45.38329418630268" lon="9.039808846781021"><ele>109.0</ele><time>2026-04-08T15:16:59Z</time></trkpt><trkpt lat="45.383435857078624" lon="9.03977294998569"><ele>109.0</ele><time>2026-04-08T15:17:00Z</time></trkpt><trkpt lat="45.383572778355386" lon="9.039732925319951"><ele>109.0</ele><time>2026-04-08T15:17:01Z</time></trkpt><trkpt lat="45.38369565506673" lon="9.039678272552152"><ele>109.0</ele><time>2026-04-08T15:17:02Z</time></trkpt><trkpt lat="45.38380190319061" lon="9.039590007098749"><ele>109.0</ele><time>2026-04-08T15:17:03Z</time></trkpt><trkpt lat="45.383899909236185" lon="9.0394831877241"><ele>109.0</ele><time>2026-04-08T15:17:04Z</time></trkpt><trkpt lat="45.38400158265693" lon="9.039376389458576"><ele>109.0</ele><time>2026-04-08T15:17:05Z</time></trkpt><trkpt lat="45.384098242609134" lon="9.03927808418933"><ele>109.0</ele><time>2026-04-08T15:17:06Z</time></trkpt><trkpt lat="45.38418359109686" lon="9.039190190966945"><ele>109.0</ele><time>2026-04-08T15:17:07Z</time></trkpt><trkpt lat="45.384258173207776" lon="9.03911313357351"><ele>109.0</ele><time>2026-04-08T15:17:08Z</time></trkpt><trkpt lat="45.38432177502575" lon="9.039051510195895"><ele>109.0</ele><time>2026-04-08T15:17:09Z</time></trkpt><trkpt lat="45.38440979660453" lon="9.038962669815987"><ele>109.0</ele><time>2026-04-08T15:17:11Z</time></trkpt><trkpt lat="45.38450933010771" lon="9.038861240965073"><ele>109.0</ele><time>2026-04-08T15:17:13Z</time></trkpt><trkpt lat="45.38457593125291" lon="9.038787663717432"><ele>109.0</ele><time>2026-04-08T15:17:14Z</time></trkpt><trkpt lat="45.38466103546822" lon="9.038697932582267"><ele>109.0</ele><time>2026-04-08T15:17:15Z</time></trkpt><trkpt lat="45.38475545638345" lon="9.038604103849257"><ele>109.0</ele><time>2026-04-08T15:17:15.999Z</time></trkpt><trkpt lat="45.384861942506184" lon="9.038500305753022"><ele>109.0</ele><time>2026-04-08T15:17:16.999Z</time></trkpt><trkpt lat="45.38497187358301" lon="9.03839111238836"><ele>109.0</ele><time>2026-04-08T15:17:17.999Z</time></trkpt><trkpt lat="45.385091636623194" lon="9.038276904462023"><ele>109.0</ele><time>2026-04-08T15:17:18.999Z</time></trkpt><trkpt lat="45.38522111364602" lon="9.038152698778566"><ele>108.66666666666667</ele><time>2026-04-08T15:17:19.999Z</time></trkpt><trkpt lat="45.38535682046709" lon="9.038021916184604"><ele>108.33333333333334</ele><time>2026-04-08T15:17:20.999Z</time></trkpt><trkpt lat="45.38548967537614" lon="9.037893385041444"><ele>108.0</ele><time>2026-04-08T15:17:21.999Z</time></trkpt><trkpt lat="45.3856212456741" lon="9.037770954704385"><ele>108.0</ele><time>2026-04-08T15:17:22.999Z</time></trkpt><trkpt lat="45.38574654709926" lon="9.037663003840454"><ele>108.0</ele><time>2026-04-08T15:17:23.999Z</time></trkpt><trkpt lat="45.38586297597871" lon="9.037559165398584"><ele>108.0</ele><time>2026-04-08T15:17:24.999Z</time></trkpt><trkpt lat="45.38596907820462" lon="9.037458845613028"><ele>108.0</ele><time>2026-04-08T15:17:25.999Z</time></trkpt><trkpt lat="45.38607276555899" lon="9.037360742189707"><ele>108.0</ele><time>2026-04-08T15:17:26.999Z</time></trkpt><trkpt lat="45.386178314789554" lon="9.037256747898677"><ele>108.0</ele><time>2026-04-08T15:17:27.999Z</time></trkpt><trkpt lat="45.38628767625525" lon="9.03715269926091"><ele>108.0</ele><time>2026-04-08T15:17:28.999Z</time></trkpt><trkpt lat="45.38639954664691" lon="9.037046674075006"><ele>108.0</ele><time>2026-04-08T15:17:29.999Z</time></trkpt><trkpt lat="45.386518545672814" lon="9.036942435230094"><ele>108.0</ele><time>2026-04-08T15:17:30.999Z</time></trkpt><trkpt lat="45.386638417010744" lon="9.036839776628993"><ele>108.0</ele><time>2026-04-08T15:17:31.999Z</time></trkpt><trkpt lat="45.386761173503274" lon="9.036733456087333"><ele>108.0</ele><time>2026-04-08T15:17:32.999Z</time></trkpt><trkpt lat="45.386883630498346" lon="9.036622348802966"><ele>108.0</ele><time>2026-04-08T15:17:33.999Z</time></trkpt><trkpt lat="45.387014297255206" lon="9.036510652909621"><ele>108.0</ele><time>2026-04-08T15:17:34.999Z</time></trkpt><trkpt lat="45.38714949710118" lon="9.036403625815462"><ele>108.0</ele><time>2026-04-08T15:17:35.999Z</time></trkpt><trkpt lat="45.38728693007731" lon="9.036289955967641"><ele>108.0</ele><time>2026-04-08T15:17:36.999Z</time></trkpt><trkpt lat="45.387426460167134" lon="9.036170883031607"><ele>108.33333333333334</ele><time>2026-04-08T15:17:37.999Z</time></trkpt><trkpt lat="45.38756614669857" lon="9.036058222024234"><ele>108.66666666666667</ele><time>2026-04-08T15:17:38.999Z</time></trkpt><trkpt lat="45.38771597765932" lon="9.035936508489725"><ele>109.0</ele><time>2026-04-08T15:17:39.999Z</time></trkpt><trkpt lat="45.387863068665396" lon="9.035825360853616"><ele>109.0</ele><time>2026-04-08T15:17:40.999Z</time></trkpt><trkpt lat="45.38800487223116" lon="9.035715649875481"><ele>109.0</ele><time>2026-04-08T15:17:41.999Z</time></trkpt><trkpt lat="45.38815262402101" lon="9.035599656902491"><ele>109.0</ele><time>2026-04-08T15:17:42.999Z</time></trkpt><trkpt lat="45.388289028450735" lon="9.035498452832954"><ele>109.0</ele><time>2026-04-08T15:17:43.999Z</time></trkpt><trkpt lat="45.38843389848626" lon="9.035389681365418"><ele>109.0</ele><time>2026-04-08T15:17:44.999Z</time></trkpt><trkpt lat="45.3885696789662" lon="9.035301294062162"><ele>109.0</ele><time>2026-04-08T15:17:45.999Z</time></trkpt><trkpt lat="45.38870816080125" lon="9.035194825101987"><ele>109.0</ele><time>2026-04-08T15:17:46.999Z</time></trkpt><trkpt lat="45.38883838406856" lon="9.035085215510403"><ele>109.0</ele><time>2026-04-08T15:17:47.999Z</time></trkpt><trkpt lat="45.38896057945591" lon="9.03497638481784"><ele>109.0</ele><time>2026-04-08T15:17:48.999Z</time></trkpt><trkpt lat="45.3890774400875" lon="9.03487464905002"><ele>109.0</ele><time>2026-04-08T15:17:49.999Z</time></trkpt><trkpt lat="45.38918955241089" lon="9.034783986859944"><ele>108.75</ele><time>2026-04-08T15:17:50.999Z</time></trkpt><trkpt lat="45.389302127444076" lon="9.034706305270452"><ele>108.5</ele><time>2026-04-08T15:17:51.999Z</time></trkpt><trkpt lat="45.38941559556521" lon="9.034635489468117"><ele>108.25</ele><time>2026-04-08T15:17:52.999Z</time></trkpt><trkpt lat="45.389530519815885" lon="9.03455119253146"><ele>108.0</ele><time>2026-04-08T15:17:53.999Z</time></trkpt><trkpt lat="45.38964066601053" lon="9.034454263858013"><ele>108.25</ele><time>2026-04-08T15:17:54.999Z</time></trkpt><trkpt lat="45.38975029652625" lon="9.034347619066523"><ele>108.5</ele><time>2026-04-08T15:17:55.999Z</time></trkpt><trkpt lat="45.38985793325708" lon="9.034232865832628"><ele>108.75</ele><time>2026-04-08T15:17:56.999Z</time></trkpt><trkpt lat="45.38996846918223" lon="9.034115009542283"><ele>109.0</ele><time>2026-04-08T15:17:57.999Z</time></trkpt><trkpt lat="45.39008385160219" lon="9.033994285349266"><ele>109.0</ele><time>2026-04-08T15:17:58.999Z</time></trkpt><trkpt lat="45.39019961774221" lon="9.033877293489843"><ele>109.0</ele><time>2026-04-08T15:17:59.999Z</time></trkpt><trkpt lat="45.39031847154308" lon="9.03375440319296"><ele>109.0</ele><time>2026-04-08T15:18:00.999Z</time></trkpt><trkpt lat="45.39043258781994" lon="9.033629045726158"><ele>109.0</ele><time>2026-04-08T15:18:01.999Z</time></trkpt><trkpt lat="45.39054256305176" lon="9.03351000367253"><ele>109.0</ele><time>2026-04-08T15:18:03Z</time></trkpt><trkpt lat="45.39064462538208" lon="9.033400468210296"><ele>109.0</ele><time>2026-04-08T15:18:04Z</time></trkpt><trkpt lat="45.39074469873905" lon="9.03328405722269"><ele>109.0</ele><time>2026-04-08T15:18:05Z</time></trkpt><trkpt lat="45.39084765927521" lon="9.033169148976581"><ele>109.0</ele><time>2026-04-08T15:18:06Z</time></trkpt><trkpt lat="45.39095375848084" lon="9.033054109863228"><ele>109.0</ele><time>2026-04-08T15:18:07Z</time></trkpt><trkpt lat="45.39105747418659" lon="9.032923202864756"><ele>109.0</ele><time>2026-04-08T15:18:08Z</time></trkpt><trkpt lat="45.39115933299988" lon="9.03278384142995"><ele>109.0</ele><time>2026-04-08T15:18:09Z</time></trkpt><trkpt lat="45.39126202422028" lon="9.032649227288548"><ele>109.0</ele><time>2026-04-08T15:18:10Z</time></trkpt><trkpt lat="45.39136134551965" lon="9.032527745708814"><ele>109.0</ele><time>2026-04-08T15:18:11Z</time></trkpt><trkpt lat="45.39145160719387" lon="9.032426098974666"><ele>109.0</ele><time>2026-04-08T15:18:12Z</time></trkpt><trkpt lat="45.39152797497836" lon="9.03235512831408"><ele>109.0</ele><time>2026-04-08T15:18:13Z</time></trkpt><trkpt lat="45.391599200478346" lon="9.032308777563058"><ele>109.0</ele><time>2026-04-08T15:18:14Z</time></trkpt><trkpt lat="45.39166490699803" lon="9.032288284477334"><ele>109.0</ele><time>2026-04-08T15:18:15Z</time></trkpt><trkpt lat="45.3917913127475" lon="9.032304711506919"><ele>109.0</ele><time>2026-04-08T15:18:17Z</time></trkpt><trkpt lat="45.391850388601426" lon="9.03238486279154"><ele>109.0</ele><time>2026-04-08T15:18:18Z</time></trkpt><trkpt lat="45.39191442365345" lon="9.032467818800034"><ele>109.0</ele><time>2026-04-08T15:18:19Z</time></trkpt><trkpt lat="45.391975922211195" lon="9.032608023532038"><ele>109.0</ele><time>2026-04-08T15:18:20Z</time></trkpt><trkpt lat="45.392057439547905" lon="9.032759734249291"><ele>109.0</ele><time>2026-04-08T15:18:21Z</time></trkpt><trkpt lat="45.392157048879056" lon="9.032924858946076"><ele>109.33333333333334</ele><time>2026-04-08T15:18:22Z</time></trkpt><trkpt lat="45.392271161621345" lon="9.033102700610213"><ele>109.66666666666666</ele><time>2026-04-08T15:18:23Z</time></trkpt><trkpt lat="45.392387699074995" lon="9.033298385473504"><ele>110.0</ele><time>2026-04-08T15:18:24Z</time></trkpt><trkpt lat="45.39249458096424" lon="9.033499749249785"><ele>110.0</ele><time>2026-04-08T15:18:25Z</time></trkpt><trkpt lat="45.39260182053135" lon="9.033702970376297"><ele>110.0</ele><time>2026-04-08T15:18:26Z</time></trkpt><trkpt lat="45.392718650540765" lon="9.03391948920737"><ele>110.0</ele><time>2026-04-08T15:18:27Z</time></trkpt><trkpt lat="45.39283799209733" lon="9.034141824537997"><ele>109.66666666666666</ele><time>2026-04-08T15:18:28Z</time></trkpt><trkpt lat="45.392963740796844" lon="9.034363694282106"><ele>109.33333333333334</ele><time>2026-04-08T15:18:29Z</time></trkpt><trkpt lat="45.393096186749084" lon="9.03457216563457"><ele>109.0</ele><time>2026-04-08T15:18:30Z</time></trkpt><trkpt lat="45.39323671820525" lon="9.034774306653134"><ele>109.0</ele><time>2026-04-08T15:18:31Z</time></trkpt><trkpt lat="45.393387348496454" lon="9.034967847229058"><ele>109.0</ele><time>2026-04-08T15:18:32Z</time></trkpt><trkpt lat="45.393550892655846" lon="9.035138020967155"><ele>109.0</ele><time>2026-04-08T15:18:33Z</time></trkpt><trkpt lat="45.39373326138709" lon="9.035281627090448"><ele>109.0</ele><time>2026-04-08T15:18:34Z</time></trkpt><trkpt lat="45.39392117190073" lon="9.035393779827094"><ele>109.0</ele><time>2026-04-08T15:18:35Z</time></trkpt><trkpt lat="45.39412297523757" lon="9.035483796197052"><ele>109.0</ele><time>2026-04-08T15:18:36Z</time></trkpt><trkpt lat="45.394332339306054" lon="9.03554659163557"><ele>109.0</ele><time>2026-04-08T15:18:37Z</time></trkpt><trkpt lat="45.39454607891421" lon="9.035600166029313"><ele>109.0</ele><time>2026-04-08T15:18:38Z</time></trkpt><trkpt lat="45.394762103174" lon="9.035658976012826"><ele>109.0</ele><time>2026-04-08T15:18:39Z</time></trkpt><trkpt lat="45.394982222699916" lon="9.035714440957454"><ele>109.0</ele><time>2026-04-08T15:18:40Z</time></trkpt><trkpt lat="45.3952022385311" lon="9.035768522678653"><ele>109.0</ele><time>2026-04-08T15:18:41Z</time></trkpt><trkpt lat="45.3954101348327" lon="9.035821202958353"><ele>109.0</ele><time>2026-04-08T15:18:42Z</time></trkpt><trkpt lat="45.39561481279952" lon="9.03587659637126"><ele>109.0</ele><time>2026-04-08T15:18:43Z</time></trkpt><trkpt lat="45.395818075121305" lon="9.035930859232995"><ele>109.0</ele><time>2026-04-08T15:18:44Z</time></trkpt><trkpt lat="45.39602339019964" lon="9.035981171360438"><ele>109.0</ele><time>2026-04-08T15:18:45Z</time></trkpt><trkpt lat="45.39623065424061" lon="9.03603431863854"><ele>110.0</ele><time>2026-04-08T15:18:46Z</time></trkpt><trkpt lat="45.396446516162875" lon="9.036088153043321"><ele>111.0</ele><time>2026-04-08T15:18:47Z</time></trkpt><trkpt lat="45.39667168469014" lon="9.036140172730683"><ele>112.0</ele><time>2026-04-08T15:18:48Z</time></trkpt><trkpt lat="45.396905410708854" lon="9.03619510762866"><ele>112.0</ele><time>2026-04-08T15:18:49Z</time></trkpt><trkpt lat="45.39713945091294" lon="9.036254761831968"><ele>112.0</ele><time>2026-04-08T15:18:50Z</time></trkpt><trkpt lat="45.39737781420848" lon="9.036313483295832"><ele>111.0</ele><time>2026-04-08T15:18:51Z</time></trkpt><trkpt lat="45.397615037420984" lon="9.036372900550703"><ele>110.0</ele><time>2026-04-08T15:18:52Z</time></trkpt><trkpt lat="45.39785282118576" lon="9.036431620866612"><ele>110.5</ele><time>2026-04-08T15:18:53Z</time></trkpt><trkpt lat="45.398092232894506" lon="9.036492618957816"><ele>111.0</ele><time>2026-04-08T15:18:54Z</time></trkpt><trkpt lat="45.39833215124011" lon="9.036553681798509"><ele>111.0</ele><time>2026-04-08T15:18:55Z</time></trkpt><trkpt lat="45.39857085793842" lon="9.036617750503643"><ele>111.0</ele><time>2026-04-08T15:18:56Z</time></trkpt><trkpt lat="45.39881036299413" lon="9.036679938760866"><ele>111.0</ele><time>2026-04-08T15:18:57Z</time></trkpt><trkpt lat="45.3990504677249" lon="9.03674254686612"><ele>111.0</ele><time>2026-04-08T15:18:58Z</time></trkpt><trkpt lat="45.39928879262483" lon="9.036802378849048"><ele>111.0</ele><time>2026-04-08T15:18:59Z</time></trkpt><trkpt lat="45.39952493740768" lon="9.036867131701992"><ele>111.0</ele><time>2026-04-08T15:19:00Z</time></trkpt><trkpt lat="45.39975796994056" lon="9.036938602266504"><ele>111.0</ele><time>2026-04-08T15:19:01Z</time></trkpt><trkpt lat="45.39998480605959" lon="9.037024693734006"><ele>111.0</ele><time>2026-04-08T15:19:02Z</time></trkpt><trkpt lat="45.40020683114152" lon="9.037124890916896"><ele>111.0</ele><time>2026-04-08T15:19:03Z</time></trkpt><trkpt lat="45.40042203911534" lon="9.037231301286733"><ele>111.0</ele><time>2026-04-08T15:19:04Z</time></trkpt><trkpt lat="45.40062870760248" lon="9.037355928872168"><ele>111.33333333333334</ele><time>2026-04-08T15:19:05Z</time></trkpt><trkpt lat="45.40082391302446" lon="9.037517681730476"><ele>111.66666666666667</ele><time>2026-04-08T15:19:06Z</time></trkpt><trkpt lat="45.40101574787435" lon="9.037671439448056"><ele>112.0</ele><time>2026-04-08T15:19:07Z</time></trkpt><trkpt lat="45.4012059346099" lon="9.037826027069697"><ele>112.0</ele><time>2026-04-08T15:19:08Z</time></trkpt><trkpt lat="45.401385027954866" lon="9.038011408752757"><ele>112.0</ele><time>2026-04-08T15:19:09Z</time></trkpt><trkpt lat="45.40155361607206" lon="9.038203679738867"><ele>112.0</ele><time>2026-04-08T15:19:10Z</time></trkpt><trkpt lat="45.40171488262743" lon="9.038413097886643"><ele>112.33333333333334</ele><time>2026-04-08T15:19:11Z</time></trkpt><trkpt lat="45.4018674410632" lon="9.038634558310196"><ele>112.66666666666666</ele><time>2026-04-08T15:19:12Z</time></trkpt><trkpt lat="45.402011139217834" lon="9.038866917096469"><ele>113.0</ele><time>2026-04-08T15:19:13Z</time></trkpt><trkpt lat="45.40214696240731" lon="9.039106838819468"><ele>112.33333333333333</ele><time>2026-04-08T15:19:14Z</time></trkpt><trkpt lat="45.40227526202651" lon="9.0393605255958"><ele>111.66666666666666</ele><time>2026-04-08T15:19:15Z</time></trkpt><trkpt lat="45.4023959712907" lon="9.03962525644125"><ele>111.0</ele><time>2026-04-08T15:19:16Z</time></trkpt><trkpt lat="45.40249498423016" lon="9.039911396892188"><ele>111.5</ele><time>2026-04-08T15:19:17Z</time></trkpt><trkpt lat="45.402617416076296" lon="9.040185699944692"><ele>112.0</ele><time>2026-04-08T15:19:18Z</time></trkpt><trkpt lat="45.40271979638951" lon="9.040481139212389"><ele>112.0</ele><time>2026-04-08T15:19:19Z</time></trkpt><trkpt lat="45.402821030152765" lon="9.040781384480075"><ele>112.0</ele><time>2026-04-08T15:19:20Z</time></trkpt><trkpt lat="45.402916885203076" lon="9.041076715965088"><ele>112.0</ele><time>2026-04-08T15:19:21Z</time></trkpt><trkpt lat="45.40300603831667" lon="9.041363280313247"><ele>112.0</ele><time>2026-04-08T15:19:22Z</time></trkpt><trkpt lat="45.403087542069606" lon="9.041642252016548"><ele>112.0</ele><time>2026-04-08T15:19:23Z</time></trkpt><trkpt lat="45.40316822423851" lon="9.041910285502427"><ele>112.0</ele><time>2026-04-08T15:19:24Z</time></trkpt><trkpt lat="45.40325257153955" lon="9.042178405315719"><ele>112.0</ele><time>2026-04-08T15:19:25Z</time></trkpt><trkpt lat="45.40333769081263" lon="9.042440295339857"><ele>112.0</ele><time>2026-04-08T15:19:26Z</time></trkpt><trkpt lat="45.40341485913629" lon="9.042697624902804"><ele>112.0</ele><time>2026-04-08T15:19:26.999Z</time></trkpt><trkpt lat="45.403493207690694" lon="9.04295395386389"><ele>112.0</ele><time>2026-04-08T15:19:27.999Z</time></trkpt><trkpt lat="45.403578979560834" lon="9.04321063330036"><ele>112.0</ele><time>2026-04-08T15:19:28.999Z</time></trkpt><trkpt lat="45.40366933217893" lon="9.04347833887392"><ele>112.0</ele><time>2026-04-08T15:19:29.999Z</time></trkpt><trkpt lat="45.403754031298014" lon="9.043751758132842"><ele>112.0</ele><time>2026-04-08T15:19:30.999Z</time></trkpt><trkpt lat="45.40383764193008" lon="9.044010579669601"><ele>112.0</ele><time>2026-04-08T15:19:31.999Z</time></trkpt><trkpt lat="45.40392444467362" lon="9.044263514387652"><ele>112.66666666666667</ele><time>2026-04-08T15:19:32.999Z</time></trkpt><trkpt lat="45.40400339805428" lon="9.04450181020315"><ele>113.33333333333334</ele><time>2026-04-08T15:19:33.999Z</time></trkpt><trkpt lat="45.404078039691626" lon="9.044734920355461"><ele>114.0</ele><time>2026-04-08T15:19:34.999Z</time></trkpt><trkpt lat="45.40414906988333" lon="9.04495038105442"><ele>114.33333333333334</ele><time>2026-04-08T15:19:35.999Z</time></trkpt><trkpt lat="45.40422126225899" lon="9.045167313850888"><ele>114.66666666666667</ele><time>2026-04-08T15:19:36.999Z</time></trkpt><trkpt lat="45.40429480307564" lon="9.045387321494232"><ele>115.0</ele><time>2026-04-08T15:19:37.999Z</time></trkpt><trkpt lat="45.40436853009784" lon="9.045613047404398"><ele>115.66666666666667</ele><time>2026-04-08T15:19:38.999Z</time></trkpt><trkpt lat="45.40444389448224" lon="9.045834396925038"><ele>116.33333333333334</ele><time>2026-04-08T15:19:39.999Z</time></trkpt><trkpt lat="45.4045216103343" lon="9.04605533267921"><ele>117.0</ele><time>2026-04-08T15:19:40.999Z</time></trkpt><trkpt lat="45.40460917209625" lon="9.046270016100438"><ele>116.66666666666666</ele><time>2026-04-08T15:19:41.999Z</time></trkpt><trkpt lat="45.40471137816293" lon="9.046468248687955"><ele>116.33333333333333</ele><time>2026-04-08T15:19:42.999Z</time></trkpt><trkpt lat="45.404835195553204" lon="9.046645913711066"><ele>116.0</ele><time>2026-04-08T15:19:43.999Z</time></trkpt><trkpt lat="45.404975417030606" lon="9.046799934449984"><ele>116.0</ele><time>2026-04-08T15:19:44.999Z</time></trkpt><trkpt lat="45.405138493256096" lon="9.046920278462636"><ele>116.0</ele><time>2026-04-08T15:19:45.999Z</time></trkpt><trkpt lat="45.405310781548394" lon="9.047003654551844"><ele>116.0</ele><time>2026-04-08T15:19:46.999Z</time></trkpt><trkpt lat="45.40549113180833" lon="9.047049051861594"><ele>114.66666666666666</ele><time>2026-04-08T15:19:47.999Z</time></trkpt><trkpt lat="45.40568214690592" lon="9.047039815672022"><ele>113.33333333333334</ele><time>2026-04-08T15:19:48.999Z</time></trkpt><trkpt lat="45.405870341942716" lon="9.0469898625939"><ele>112.0</ele><time>2026-04-08T15:19:49.999Z</time></trkpt><trkpt lat="45.406058803659434" lon="9.046908924449669"><ele>112.0</ele><time>2026-04-08T15:19:50.999Z</time></trkpt><trkpt lat="45.406237380733444" lon="9.04680336925673"><ele>112.0</ele><time>2026-04-08T15:19:51.999Z</time></trkpt><trkpt lat="45.406402837171925" lon="9.046699511980625"><ele>112.0</ele><time>2026-04-08T15:19:52.999Z</time></trkpt><trkpt lat="45.406556025680246" lon="9.046603898585886"><ele>112.39999999999999</ele><time>2026-04-08T15:19:53.999Z</time></trkpt><trkpt lat="45.40667672923604" lon="9.046529365230798"><ele>112.79999999999998</ele><time>2026-04-08T15:19:54.999Z</time></trkpt><trkpt lat="45.40677496605817" lon="9.046468368266948"><ele>113.2</ele><time>2026-04-08T15:19:55.999Z</time></trkpt><trkpt lat="45.40684934319308" lon="9.046421098224787"><ele>113.6</ele><time>2026-04-08T15:19:56.999Z</time></trkpt><trkpt lat="45.406912784361495" lon="9.0463798010478"><ele>114.0</ele><time>2026-04-08T15:19:57.999Z</time></trkpt><trkpt lat="45.40697340821862" lon="9.046338123312438"><ele>114.0</ele><time>2026-04-08T15:19:58.999Z</time></trkpt><trkpt lat="45.40707781551335" lon="9.046274778363918"><ele>114.0</ele><time>2026-04-08T15:20:00.999Z</time></trkpt><trkpt lat="45.40715848706406" lon="9.046245091334578"><ele>114.0</ele><time>2026-04-08T15:20:02.999Z</time></trkpt><trkpt lat="45.407238786240754" lon="9.046199180575696"><ele>114.0</ele><time>2026-04-08T15:20:04.999Z</time></trkpt><trkpt lat="45.4072970578085" lon="9.046158501313522"><ele>114.0</ele><time>2026-04-08T15:20:06.999Z</time></trkpt><trkpt lat="45.4073492265958" lon="9.046061525431448"><ele>114.0</ele><time>2026-04-08T15:20:25Z</time></trkpt><trkpt lat="45.407428623446634" lon="9.04602137911077"><ele>113.83333333333333</ele><time>2026-04-08T15:20:27Z</time></trkpt><trkpt lat="45.407490842056426" lon="9.045999293029265"><ele>113.66666666666666</ele><time>2026-04-08T15:20:28Z</time></trkpt><trkpt lat="45.40758702126694" lon="9.045940344219632"><ele>113.5</ele><time>2026-04-08T15:20:30Z</time></trkpt><trkpt lat="45.40767163049911" lon="9.045888274795567"><ele>113.33333333333333</ele><time>2026-04-08T15:20:32Z</time></trkpt><trkpt lat="45.40775348472448" lon="9.045827278240443"><ele>113.16666666666666</ele><time>2026-04-08T15:20:34Z</time></trkpt><trkpt lat="45.407826277972404" lon="9.045788808661472"><ele>113.0</ele><time>2026-04-08T15:20:36Z</time></trkpt><trkpt lat="45.407901354885496" lon="9.045748145603254"><ele>113.0</ele><time>2026-04-08T15:20:38Z</time></trkpt><trkpt lat="45.4079796229544" lon="9.045705295353207"><ele>113.00000000000001</ele><time>2026-04-08T15:20:40Z</time></trkpt><trkpt lat="45.40807480611689" lon="9.045652492949248"><ele>113.00000000000001</ele><time>2026-04-08T15:20:42Z</time></trkpt><trkpt lat="45.4081327938426" lon="9.045616485780622"><ele>113.0</ele><time>2026-04-08T15:20:43Z</time></trkpt><trkpt lat="45.4082374517267" lon="9.045548171538604"><ele>113.0</ele><time>2026-04-08T15:20:45Z</time></trkpt><trkpt lat="45.40832773802404" lon="9.045488265691755"><ele>113.2</ele><time>2026-04-08T15:20:47Z</time></trkpt><trkpt lat="45.40842562634649" lon="9.045424610196404"><ele>113.4</ele><time>2026-04-08T15:20:49Z</time></trkpt><trkpt lat="45.40852393677811" lon="9.04535612716261"><ele>113.60000000000001</ele><time>2026-04-08T15:20:51Z</time></trkpt><trkpt lat="45.40862108163807" lon="9.045292619120948"><ele>113.80000000000001</ele><time>2026-04-08T15:20:53Z</time></trkpt><trkpt lat="45.408726014771574" lon="9.045216269380012"><ele>114.0</ele><time>2026-04-08T15:20:55Z</time></trkpt><trkpt lat="45.40879229520596" lon="9.045168283841276"><ele>113.85714285714285</ele><time>2026-04-08T15:20:56Z</time></trkpt><trkpt lat="45.4088665432027" lon="9.04512271550923"><ele>113.7142857142857</ele><time>2026-04-08T15:20:57Z</time></trkpt><trkpt lat="45.40893869020366" lon="9.045079894270133"><ele>113.57142857142857</ele><time>2026-04-08T15:20:58Z</time></trkpt><trkpt lat="45.409009374245976" lon="9.045033825968801"><ele>113.42857142857142</ele><time>2026-04-08T15:20:59Z</time></trkpt><trkpt lat="45.40907369281923" lon="9.044989325400408"><ele>113.28571428571428</ele><time>2026-04-08T15:21:00Z</time></trkpt><trkpt lat="45.40913536728489" lon="9.04494710612988"><ele>113.14285714285714</ele><time>2026-04-08T15:21:01Z</time></trkpt><trkpt lat="45.40919483592904" lon="9.044909673679006"><ele>113.0</ele><time>2026-04-08T15:21:02Z</time></trkpt><trkpt lat="45.40925280830417" lon="9.044873711614978"><ele>113.0</ele><time>2026-04-08T15:21:03Z</time></trkpt><trkpt lat="45.40936581119535" lon="9.044803762440802"><ele>113.00000000000001</ele><time>2026-04-08T15:21:05Z</time></trkpt><trkpt lat="45.40946625791786" lon="9.044740498204238"><ele>113.00000000000001</ele><time>2026-04-08T15:21:07Z</time></trkpt><trkpt lat="45.409527107014846" lon="9.044709918745596"><ele>113.0</ele><time>2026-04-08T15:21:09Z</time></trkpt><trkpt lat="45.40959513039992" lon="9.04469329697895"><ele>113.0</ele><time>2026-04-08T15:21:14Z</time></trkpt><trkpt lat="45.40970891380708" lon="9.044667121114419"><ele>112.75</ele><time>2026-04-08T15:21:16Z</time></trkpt><trkpt lat="45.40978059502412" lon="9.04466229771918"><ele>112.5</ele><time>2026-04-08T15:21:18Z</time></trkpt><trkpt lat="45.40982763843392" lon="9.044898413304866"><ele>112.25</ele><time>2026-04-08T15:21:21Z</time></trkpt><trkpt lat="45.4098669320464" lon="9.045023718476017"><ele>112.0</ele><time>2026-04-08T15:21:22Z</time></trkpt><trkpt lat="45.409911855065516" lon="9.04517692393677"><ele>112.0</ele><time>2026-04-08T15:21:23Z</time></trkpt><trkpt lat="45.40996246629384" lon="9.045339869213405"><ele>112.0</ele><time>2026-04-08T15:21:24Z</time></trkpt><trkpt lat="45.410089669455516" lon="9.045499127978012"><ele>112.0</ele><time>2026-04-08T15:21:25Z</time></trkpt><trkpt lat="45.41016546907568" lon="9.04572004028004"><ele>112.0</ele><time>2026-04-08T15:21:26Z</time></trkpt><trkpt lat="45.41024604120978" lon="9.0459518518486"><ele>112.0</ele><time>2026-04-08T15:21:27Z</time></trkpt><trkpt lat="45.41032847986929" lon="9.046196018833802"><ele>112.0</ele><time>2026-04-08T15:21:28Z</time></trkpt><trkpt lat="45.41042334133643" lon="9.046478350503673"><ele>112.66666666666667</ele><time>2026-04-08T15:21:29Z</time></trkpt><trkpt lat="45.410509840684675" lon="9.046754814931925"><ele>113.33333333333334</ele><time>2026-04-08T15:21:30Z</time></trkpt><trkpt lat="45.41052068554623" lon="9.047079118308552"><ele>114.0</ele><time>2026-04-08T15:21:31Z</time></trkpt><trkpt lat="45.41061091545538" lon="9.047364938602493"><ele>113.66666666666666</ele><time>2026-04-08T15:21:32Z</time></trkpt><trkpt lat="45.41069271569612" lon="9.047624797673507"><ele>113.33333333333333</ele><time>2026-04-08T15:21:33Z</time></trkpt><trkpt lat="45.410772510260266" lon="9.04787856781211"><ele>113.0</ele><time>2026-04-08T15:21:34Z</time></trkpt><trkpt lat="45.410849936740576" lon="9.048125333087405"><ele>112.66666666666666</ele><time>2026-04-08T15:21:35Z</time></trkpt><trkpt lat="45.410925802214265" lon="9.048368733776869"><ele>112.33333333333334</ele><time>2026-04-08T15:21:36Z</time></trkpt><trkpt lat="45.41107639334186" lon="9.048566211145353"><ele>112.0</ele><time>2026-04-08T15:21:37Z</time></trkpt><trkpt lat="45.4111486439368" lon="9.048800128841803"><ele>112.0</ele><time>2026-04-08T15:21:37.999Z</time></trkpt><trkpt lat="45.4112205060594" lon="9.049027607719223"><ele>112.0</ele><time>2026-04-08T15:21:38.999Z</time></trkpt><trkpt lat="45.411286433241486" lon="9.049234651389163"><ele>112.0</ele><time>2026-04-08T15:21:39.999Z</time></trkpt><trkpt lat="45.41134922008433" lon="9.049423586459074"><ele>111.75</ele><time>2026-04-08T15:21:40.999Z</time></trkpt><trkpt lat="45.411402793781285" lon="9.049595246539907"><ele>111.5</ele><time>2026-04-08T15:21:41.999Z</time></trkpt><trkpt lat="45.41145822990433" lon="9.04977345230813"><ele>111.25</ele><time>2026-04-08T15:21:42.999Z</time></trkpt><trkpt lat="45.41151693189925" lon="9.049966792142852"><ele>111.0</ele><time>2026-04-08T15:21:43.999Z</time></trkpt><trkpt lat="45.41158297662186" lon="9.050172844699608"><ele>111.0</ele><time>2026-04-08T15:21:44.999Z</time></trkpt><trkpt lat="45.41165257790539" lon="9.050387782745057"><ele>111.0</ele><time>2026-04-08T15:21:45.999Z</time></trkpt><trkpt lat="45.411724634400734" lon="9.05061441816894"><ele>111.0</ele><time>2026-04-08T15:21:46.999Z</time></trkpt><trkpt lat="45.411801405533275" lon="9.050857863057958"><ele>111.66666666666666</ele><time>2026-04-08T15:21:47.999Z</time></trkpt><trkpt lat="45.41187909665426" lon="9.051110383302412"><ele>112.33333333333333</ele><time>2026-04-08T15:21:48.999Z</time></trkpt><trkpt lat="45.411969232648296" lon="9.051356787615857"><ele>113.0</ele><time>2026-04-08T15:21:49.999Z</time></trkpt><trkpt lat="45.41204098083634" lon="9.051625630926148"><ele>113.0</ele><time>2026-04-08T15:21:50.999Z</time></trkpt><trkpt lat="45.41212396285815" lon="9.05188336292578"><ele>113.0</ele><time>2026-04-08T15:21:51.999Z</time></trkpt><trkpt lat="45.41219538159709" lon="9.052112943569991"><ele>113.0</ele><time>2026-04-08T15:21:52.999Z</time></trkpt><trkpt lat="45.41225626701252" lon="9.052315108785656"><ele>113.5</ele><time>2026-04-08T15:21:53.999Z</time></trkpt><trkpt lat="45.41230930864938" lon="9.052490554529651"><ele>114.0</ele><time>2026-04-08T15:21:54.999Z</time></trkpt><trkpt lat="45.4123535919181" lon="9.052640167056452"><ele>114.5</ele><time>2026-04-08T15:21:55.999Z</time></trkpt><trkpt lat="45.412399033346645" lon="9.052784657559245"><ele>115.0</ele><time>2026-04-08T15:21:56.999Z</time></trkpt><trkpt lat="45.41245082511491" lon="9.052937080818952"><ele>115.0</ele><time>2026-04-08T15:21:57.999Z</time></trkpt><trkpt lat="45.41250367016765" lon="9.053096576589203"><ele>115.0</ele><time>2026-04-08T15:21:58.999Z</time></trkpt><trkpt lat="45.412553902813244" lon="9.053264069874835"><ele>115.0</ele><time>2026-04-08T15:21:59.999Z</time></trkpt><trkpt lat="45.41260597920941" lon="9.053437365810266"><ele>115.0</ele><time>2026-04-08T15:22:00.999Z</time></trkpt><trkpt lat="45.41266042167782" lon="9.053613799959425"><ele>115.0</ele><time>2026-04-08T15:22:01.999Z</time></trkpt><trkpt lat="45.41271660541587" lon="9.053793661306505"><ele>115.0</ele><time>2026-04-08T15:22:02.999Z</time></trkpt><trkpt lat="45.41277737535605" lon="9.05398379406611"><ele>115.0</ele><time>2026-04-08T15:22:03.999Z</time></trkpt><trkpt lat="45.41283950922166" lon="9.054179678642448"><ele>115.0</ele><time>2026-04-08T15:22:04.999Z</time></trkpt><trkpt lat="45.412905087606084" lon="9.05438740618476"><ele>114.66666666666667</ele><time>2026-04-08T15:22:05.999Z</time></trkpt><trkpt lat="45.41297083130129" lon="9.054600264841335"><ele>114.33333333333334</ele><time>2026-04-08T15:22:06.999Z</time></trkpt><trkpt lat="45.41303960128823" lon="9.054824586319317"><ele>114.0</ele><time>2026-04-08T15:22:07.999Z</time></trkpt><trkpt lat="45.41311115098451" lon="9.055045700785053"><ele>114.0</ele><time>2026-04-08T15:22:08.999Z</time></trkpt><trkpt lat="45.41318574510066" lon="9.05527718522064"><ele>114.0</ele><time>2026-04-08T15:22:09.999Z</time></trkpt><trkpt lat="45.41326079640528" lon="9.055514781907846"><ele>114.0</ele><time>2026-04-08T15:22:10.999Z</time></trkpt><trkpt lat="45.41333532301767" lon="9.055748360920107"><ele>114.0</ele><time>2026-04-08T15:22:11.999Z</time></trkpt><trkpt lat="45.413411555617095" lon="9.055983609659394"><ele>114.0</ele><time>2026-04-08T15:22:12.999Z</time></trkpt><trkpt lat="45.413485626075655" lon="9.056223731280593"><ele>114.0</ele><time>2026-04-08T15:22:14.001Z</time></trkpt><trkpt lat="45.41355602820317" lon="9.05645714647218"><ele>114.0</ele><time>2026-04-08T15:22:15.001Z</time></trkpt><trkpt lat="45.413628022660916" lon="9.056693463287054"><ele>114.0</ele><time>2026-04-08T15:22:16.001Z</time></trkpt><trkpt lat="45.413696945896454" lon="9.056918068639495"><ele>114.0</ele><time>2026-04-08T15:22:17.001Z</time></trkpt><trkpt lat="45.41376418523136" lon="9.05713926398881"><ele>114.66666666666666</ele><time>2026-04-08T15:22:18.001Z</time></trkpt><trkpt lat="45.41383161958747" lon="9.057354981771141"><ele>115.33333333333333</ele><time>2026-04-08T15:22:19.001Z</time></trkpt><trkpt lat="45.413898569687376" lon="9.0575638616482"><ele>116.0</ele><time>2026-04-08T15:22:20.001Z</time></trkpt><trkpt lat="45.413962202541384" lon="9.057757181481525"><ele>116.5</ele><time>2026-04-08T15:22:21.001Z</time></trkpt><trkpt lat="45.4140234589298" lon="9.057952062197291"><ele>117.0</ele><time>2026-04-08T15:22:22.001Z</time></trkpt><trkpt lat="45.41408123765705" lon="9.058143850569266"><ele>117.5</ele><time>2026-04-08T15:22:23.001Z</time></trkpt><trkpt lat="45.41413905197257" lon="9.058327871073013"><ele>118.0</ele><time>2026-04-08T15:22:24.001Z</time></trkpt><trkpt lat="45.41420039715335" lon="9.058515204756715"><ele>116.75</ele><time>2026-04-08T15:22:25.001Z</time></trkpt><trkpt lat="45.41425727847532" lon="9.058699568882101"><ele>115.5</ele><time>2026-04-08T15:22:26.001Z</time></trkpt><trkpt lat="45.41431585348859" lon="9.058889431134894"><ele>114.25</ele><time>2026-04-08T15:22:27.001Z</time></trkpt><trkpt lat="45.41437702479019" lon="9.059083504290381"><ele>113.0</ele><time>2026-04-08T15:22:28.001Z</time></trkpt><trkpt lat="45.41444097263844" lon="9.059282118027475"><ele>112.33333333333333</ele><time>2026-04-08T15:22:29.001Z</time></trkpt><trkpt lat="45.41450265967253" lon="9.059480184983398"><ele>111.66666666666666</ele><time>2026-04-08T15:22:30.001Z</time></trkpt><trkpt lat="45.41456738862012" lon="9.059685071799079"><ele>111.0</ele><time>2026-04-08T15:22:31.001Z</time></trkpt><trkpt lat="45.414631781266436" lon="9.059895085873022"><ele>112.66666666666666</ele><time>2026-04-08T15:22:32.001Z</time></trkpt><trkpt lat="45.414702765931104" lon="9.060111815475146"><ele>114.33333333333333</ele><time>2026-04-08T15:22:33.001Z</time></trkpt><trkpt lat="45.414766978488025" lon="9.060321853367018"><ele>116.0</ele><time>2026-04-08T15:22:34.001Z</time></trkpt><trkpt lat="45.4148393177626" lon="9.060545997544683"><ele>116.0</ele><time>2026-04-08T15:22:35Z</time></trkpt><trkpt lat="45.41490557949173" lon="9.060763688479058"><ele>116.0</ele><time>2026-04-08T15:22:36Z</time></trkpt><trkpt lat="45.41497145839848" lon="9.060982563022536"><ele>116.0</ele><time>2026-04-08T15:22:37Z</time></trkpt><trkpt lat="45.415041651901" lon="9.061203906258806"><ele>116.0</ele><time>2026-04-08T15:22:38Z</time></trkpt><trkpt lat="45.41511182851002" lon="9.061427421987453"><ele>116.0</ele><time>2026-04-08T15:22:39Z</time></trkpt><trkpt lat="45.41518165709613" lon="9.061650687705962"><ele>116.0</ele><time>2026-04-08T15:22:40Z</time></trkpt><trkpt lat="45.41524993883447" lon="9.061870842466373"><ele>116.0</ele><time>2026-04-08T15:22:41Z</time></trkpt><trkpt lat="45.41531787762831" lon="9.062085819800826"><ele>116.0</ele><time>2026-04-08T15:22:42Z</time></trkpt><trkpt lat="45.41538486156657" lon="9.062293902919183"><ele>116.0</ele><time>2026-04-08T15:22:43Z</time></trkpt><trkpt lat="45.415453398922544" lon="9.062506120066653"><ele>116.0</ele><time>2026-04-08T15:22:44Z</time></trkpt><trkpt lat="45.4155163017324" lon="9.062709643984638"><ele>116.0</ele><time>2026-04-08T15:22:45Z</time></trkpt><trkpt lat="45.41558499090548" lon="9.062923685476294"><ele>116.0</ele><time>2026-04-08T15:22:46Z</time></trkpt><trkpt lat="45.41564527539082" lon="9.063124411542656"><ele>115.33333333333333</ele><time>2026-04-08T15:22:47Z</time></trkpt><trkpt lat="45.41570949552375" lon="9.063339384613759"><ele>114.66666666666666</ele><time>2026-04-08T15:22:48Z</time></trkpt><trkpt lat="45.415775377241275" lon="9.063550006430821"><ele>114.0</ele><time>2026-04-08T15:22:49Z</time></trkpt><trkpt lat="45.41584161378826" lon="9.06375525232264"><ele>114.0</ele><time>2026-04-08T15:22:50Z</time></trkpt><trkpt lat="45.41590880361708" lon="9.063958847953543"><ele>114.0</ele><time>2026-04-08T15:22:51Z</time></trkpt><trkpt lat="45.41597186531397" lon="9.064153504188177"><ele>114.0</ele><time>2026-04-08T15:22:52Z</time></trkpt><trkpt lat="45.4160309784488" lon="9.06434592179754"><ele>113.25</ele><time>2026-04-08T15:22:53Z</time></trkpt><trkpt lat="45.41609053613324" lon="9.064538231294987"><ele>112.5</ele><time>2026-04-08T15:22:54Z</time></trkpt><trkpt lat="45.41614993480959" lon="9.064725301733787"><ele>111.75</ele><time>2026-04-08T15:22:55Z</time></trkpt><trkpt lat="45.416207244964184" lon="9.0649027546874"><ele>111.0</ele><time>2026-04-08T15:22:56Z</time></trkpt><trkpt lat="45.41625601588091" lon="9.065049982755356"><ele>110.8</ele><time>2026-04-08T15:22:57Z</time></trkpt><trkpt lat="45.416289628262156" lon="9.065153312753749"><ele>110.6</ele><time>2026-04-08T15:22:58Z</time></trkpt><trkpt lat="45.41633049192021" lon="9.06527562842996"><ele>110.4</ele><time>2026-04-08T15:23:00Z</time></trkpt><trkpt lat="45.41637239302182" lon="9.06539894204794"><ele>110.2</ele><time>2026-04-08T15:23:02Z</time></trkpt><trkpt lat="45.416410548909376" lon="9.06551801214947"><ele>110.0</ele><time>2026-04-08T15:23:04Z</time></trkpt><trkpt lat="45.41645348333257" lon="9.065672221577387"><ele>111.16666666666666</ele><time>2026-04-08T15:23:06Z</time></trkpt><trkpt lat="45.41648998680166" lon="9.065792321765423"><ele>112.33333333333333</ele><time>2026-04-08T15:23:07Z</time></trkpt><trkpt lat="45.41652173019046" lon="9.065887656717184"><ele>113.5</ele><time>2026-04-08T15:23:08Z</time></trkpt><trkpt lat="45.41657911659514" lon="9.06604828528291"><ele>114.66666666666666</ele><time>2026-04-08T15:23:10Z</time></trkpt><trkpt lat="45.41659158593551" lon="9.066141330866488"><ele>115.83333333333333</ele><time>2026-04-08T15:23:11Z</time></trkpt><trkpt lat="45.416621537074995" lon="9.066236624453344"><ele>117.0</ele><time>2026-04-08T15:23:12Z</time></trkpt><trkpt lat="45.41666830534241" lon="9.066334905717829"><ele>117.0</ele><time>2026-04-08T15:23:13Z</time></trkpt><trkpt lat="45.41670169260599" lon="9.066469149459493"><ele>116.99999999999999</ele><time>2026-04-08T15:23:14Z</time></trkpt><trkpt lat="45.41674669707703" lon="9.066605409277093"><ele>116.99999999999999</ele><time>2026-04-08T15:23:15Z</time></trkpt><trkpt lat="45.41678822158142" lon="9.066719327778948"><ele>117.0</ele><time>2026-04-08T15:23:16Z</time></trkpt><trkpt lat="45.416821160872715" lon="9.06682086422399"><ele>117.0</ele><time>2026-04-08T15:23:17Z</time></trkpt><trkpt lat="45.416852667208985" lon="9.066919753064193"><ele>116.39999999999999</ele><time>2026-04-08T15:23:18Z</time></trkpt><trkpt lat="45.41687842326981" lon="9.067029212041986"><ele>115.79999999999998</ele><time>2026-04-08T15:23:19Z</time></trkpt><trkpt lat="45.41690193197555" lon="9.067145344225176"><ele>115.2</ele><time>2026-04-08T15:23:20Z</time></trkpt><trkpt lat="45.41692306014641" lon="9.067272425053908"><ele>114.6</ele><time>2026-04-08T15:23:21Z</time></trkpt><trkpt lat="45.41694055120657" lon="9.067412927810215"><ele>114.0</ele><time>2026-04-08T15:23:22Z</time></trkpt><trkpt lat="45.416957310350554" lon="9.067561288287854"><ele>113.75</ele><time>2026-04-08T15:23:23Z</time></trkpt><trkpt lat="45.41697142291474" lon="9.06771493159847"><ele>113.5</ele><time>2026-04-08T15:23:24Z</time></trkpt><trkpt lat="45.416967811516095" lon="9.067885138915912"><ele>113.25</ele><time>2026-04-08T15:23:25Z</time></trkpt><trkpt lat="45.41697651081422" lon="9.068046530776467"><ele>113.0</ele><time>2026-04-08T15:23:26Z</time></trkpt><trkpt lat="45.416985910036715" lon="9.068209206897073"><ele>113.0</ele><time>2026-04-08T15:23:27Z</time></trkpt><trkpt lat="45.41701099330931" lon="9.068368997307353"><ele>113.00000000000001</ele><time>2026-04-08T15:23:28Z</time></trkpt><trkpt lat="45.417015774508435" lon="9.068523223749365"><ele>113.00000000000001</ele><time>2026-04-08T15:23:29Z</time></trkpt><trkpt lat="45.41702390096408" lon="9.068667527210264"><ele>113.0</ele><time>2026-04-08T15:23:30Z</time></trkpt><trkpt lat="45.41702987387721" lon="9.068804591315125"><ele>113.0</ele><time>2026-04-08T15:23:31Z</time></trkpt><trkpt lat="45.41703558154707" lon="9.068930993227633"><ele>112.99999999999999</ele><time>2026-04-08T15:23:32Z</time></trkpt><trkpt lat="45.4170399093126" lon="9.069050860792535"><ele>113.0</ele><time>2026-04-08T15:23:33Z</time></trkpt><trkpt lat="45.417044338819935" lon="9.069171057779293"><ele>113.0</ele><time>2026-04-08T15:23:34Z</time></trkpt><trkpt lat="45.4170495929662" lon="9.069291305342409"><ele>113.0</ele><time>2026-04-08T15:23:35Z</time></trkpt><trkpt lat="45.41705535954704" lon="9.06942074642763"><ele>112.99999999999999</ele><time>2026-04-08T15:23:36Z</time></trkpt><trkpt lat="45.41706530895404" lon="9.069551360204445"><ele>113.0</ele><time>2026-04-08T15:23:37Z</time></trkpt><trkpt lat="45.41707646638823" lon="9.069681297643765"><ele>112.99999999999999</ele><time>2026-04-08T15:23:38Z</time></trkpt><trkpt lat="45.417088746158655" lon="9.069807921816517"><ele>113.0</ele><time>2026-04-08T15:23:38.999Z</time></trkpt><trkpt lat="45.417102010380184" lon="9.069925420419784"><ele>113.0</ele><time>2026-04-08T15:23:39.999Z</time></trkpt><trkpt lat="45.4171180302455" lon="9.070014353746819"><ele>113.0</ele><time>2026-04-08T15:23:40.999Z</time></trkpt><trkpt lat="45.4171549329026" lon="9.070145417249126"><ele>112.99999999999999</ele><time>2026-04-08T15:23:42.999Z</time></trkpt><trkpt lat="45.417176647223364" lon="9.0702670434463"><ele>113.0</ele><time>2026-04-08T15:23:45.999Z</time></trkpt><trkpt lat="45.417235283731095" lon="9.070394194271302"><ele>113.66666666666666</ele><time>2026-04-08T15:23:48.999Z</time></trkpt><trkpt lat="45.417256858439316" lon="9.070478608133957"><ele>114.33333333333333</ele><time>2026-04-08T15:23:49.999Z</time></trkpt><trkpt lat="45.41728366595381" lon="9.070584639315364"><ele>115.0</ele><time>2026-04-08T15:23:50.999Z</time></trkpt><trkpt lat="45.417317078548585" lon="9.070704506968534"><ele>115.66666666666666</ele><time>2026-04-08T15:23:51.999Z</time></trkpt><trkpt lat="45.417357713776205" lon="9.070827644398113"><ele>116.33333333333333</ele><time>2026-04-08T15:23:52.999Z</time></trkpt><trkpt lat="45.41739452005065" lon="9.070944821242954"><ele>117.0</ele><time>2026-04-08T15:23:53.999Z</time></trkpt><trkpt lat="45.41742791944506" lon="9.071065223624093"><ele>116.8</ele><time>2026-04-08T15:23:54.999Z</time></trkpt><trkpt lat="45.41746076273288" lon="9.071184945714842"><ele>116.6</ele><time>2026-04-08T15:23:55.999Z</time></trkpt><trkpt lat="45.417496373733904" lon="9.071308828261603"><ele>116.39999999999999</ele><time>2026-04-08T15:23:56.999Z</time></trkpt><trkpt lat="45.41753523997731" lon="9.071430501035934"><ele>116.19999999999999</ele><time>2026-04-08T15:23:57.999Z</time></trkpt><trkpt lat="45.41757681739214" lon="9.07155338158199"><ele>116.0</ele><time>2026-04-08T15:23:58.999Z</time></trkpt><trkpt lat="45.41761756584648" lon="9.071670104107405"><ele>115.99999999999999</ele><time>2026-04-08T15:23:59.999Z</time></trkpt><trkpt lat="45.417657299483274" lon="9.071777867784723"><ele>116.0</ele><time>2026-04-08T15:24:00.999Z</time></trkpt><trkpt lat="45.41769697757849" lon="9.071877385695759"><ele>116.0</ele><time>2026-04-08T15:24:01.999Z</time></trkpt><trkpt lat="45.417738827743506" lon="9.071976199535126"><ele>116.0</ele><time>2026-04-08T15:24:02.999Z</time></trkpt><trkpt lat="45.417782926265474" lon="9.072064477231306"><ele>115.99999999999999</ele><time>2026-04-08T15:24:03.999Z</time></trkpt><trkpt lat="45.417829187397736" lon="9.072149660089227"><ele>116.0</ele><time>2026-04-08T15:24:04.999Z</time></trkpt><trkpt lat="45.417876726833775" lon="9.07222555402123"><ele>115.99999999999999</ele><time>2026-04-08T15:24:05.999Z</time></trkpt><trkpt lat="45.41795268098092" lon="9.072335537455034"><ele>116.0</ele><time>2026-04-08T15:24:07.999Z</time></trkpt><trkpt lat="45.418012015439366" lon="9.072420095685656"><ele>116.0</ele><time>2026-04-08T15:24:09.999Z</time></trkpt><trkpt lat="45.41807276794152" lon="9.072516646566246"><ele>116.0</ele><time>2026-04-08T15:24:12.999Z</time></trkpt><trkpt lat="45.418140718175444" lon="9.072598282038935"><ele>115.99999999999999</ele><time>2026-04-08T15:24:16.999Z</time></trkpt><trkpt lat="45.418194119632524" lon="9.072660913888653"><ele>116.0</ele><time>2026-04-08T15:24:19.001Z</time></trkpt><trkpt lat="45.41825644958461" lon="9.07273048008424"><ele>115.8</ele><time>2026-04-08T15:24:21.001Z</time></trkpt><trkpt lat="45.418323712143106" lon="9.072791525699508"><ele>115.6</ele><time>2026-04-08T15:24:23.001Z</time></trkpt><trkpt lat="45.41840208943752" lon="9.072852305655484"><ele>115.4</ele><time>2026-04-08T15:24:25.001Z</time></trkpt><trkpt lat="45.41848727056873" lon="9.072917380851054"><ele>115.2</ele><time>2026-04-08T15:24:27.001Z</time></trkpt><trkpt lat="45.41858306440655" lon="9.072982599002133"><ele>115.0</ele><time>2026-04-08T15:24:29.001Z</time></trkpt><trkpt lat="45.41867084100663" lon="9.073055116660122"><ele>115.0</ele><time>2026-04-08T15:24:31.001Z</time></trkpt><trkpt lat="45.418765578906296" lon="9.073143681306162"><ele>115.0</ele><time>2026-04-08T15:24:33.001Z</time></trkpt><trkpt lat="45.418835471317635" lon="9.073176336754257"><ele>115.0</ele><time>2026-04-08T15:24:34Z</time></trkpt><trkpt lat="45.41892024440192" lon="9.07320270047442"><ele>115.0</ele><time>2026-04-08T15:24:35Z</time></trkpt><trkpt lat="45.419010216171515" lon="9.073226416466508"><ele>115.0</ele><time>2026-04-08T15:24:36Z</time></trkpt><trkpt lat="45.4190938373592" lon="9.073256544228677"><ele>114.66666666666667</ele><time>2026-04-08T15:24:37Z</time></trkpt><trkpt lat="45.419167541213646" lon="9.073296423885816"><ele>114.33333333333334</ele><time>2026-04-08T15:24:38Z</time></trkpt><trkpt lat="45.41923647920408" lon="9.07334021144437"><ele>114.0</ele><time>2026-04-08T15:24:39Z</time></trkpt><trkpt lat="45.419303889143556" lon="9.073390551131364"><ele>113.66666666666666</ele><time>2026-04-08T15:24:40Z</time></trkpt><trkpt lat="45.41936977228778" lon="9.073446516123914"><ele>113.33333333333333</ele><time>2026-04-08T15:24:41Z</time></trkpt><trkpt lat="45.41943522490249" lon="9.073505083359631"><ele>113.0</ele><time>2026-04-08T15:24:42Z</time></trkpt><trkpt lat="45.41950091147452" lon="9.07356711469795"><ele>113.0</ele><time>2026-04-08T15:24:43Z</time></trkpt><trkpt lat="45.41956932503734" lon="9.073633422884537"><ele>113.00000000000001</ele><time>2026-04-08T15:24:44Z</time></trkpt><trkpt lat="45.41964185518165" lon="9.073709532788667"><ele>113.00000000000001</ele><time>2026-04-08T15:24:45Z</time></trkpt><trkpt lat="45.41971705334537" lon="9.07379288329038"><ele>113.0</ele><time>2026-04-08T15:24:46Z</time></trkpt><trkpt lat="45.41979269881893" lon="9.073887091386627"><ele>113.0</ele><time>2026-04-08T15:24:47Z</time></trkpt><trkpt lat="45.419868644858525" lon="9.073993803571838"><ele>113.2</ele><time>2026-04-08T15:24:48Z</time></trkpt><trkpt lat="45.41994599351069" lon="9.074107825835682"><ele>113.4</ele><time>2026-04-08T15:24:49Z</time></trkpt><trkpt lat="45.42001837714927" lon="9.07423223751062"><ele>113.60000000000001</ele><time>2026-04-08T15:24:50Z</time></trkpt><trkpt lat="45.42007937684787" lon="9.07435470560994"><ele>113.80000000000001</ele><time>2026-04-08T15:24:51Z</time></trkpt><trkpt lat="45.4201323718513" lon="9.074466592160485"><ele>114.0</ele><time>2026-04-08T15:24:52Z</time></trkpt><trkpt lat="45.4201766645688" lon="9.074566032417389"><ele>114.0</ele><time>2026-04-08T15:24:53Z</time></trkpt><trkpt lat="45.42021214479669" lon="9.074654745753396"><ele>113.99999999999999</ele><time>2026-04-08T15:24:54Z</time></trkpt><trkpt lat="45.420245313318624" lon="9.074739491925628"><ele>114.0</ele><time>2026-04-08T15:24:55Z</time></trkpt><trkpt lat="45.42028294493045" lon="9.074823466781128"><ele>114.0</ele><time>2026-04-08T15:24:56Z</time></trkpt><trkpt lat="45.42032193944044" lon="9.074902138008348"><ele>113.99999999999999</ele><time>2026-04-08T15:24:57Z</time></trkpt><trkpt lat="45.42036028195001" lon="9.07498277445042"><ele>114.0</ele><time>2026-04-08T15:24:58Z</time></trkpt><trkpt lat="45.420400467375956" lon="9.075061848559248"><ele>114.0</ele><time>2026-04-08T15:24:59Z</time></trkpt><trkpt lat="45.420441275804684" lon="9.075138507614314"><ele>114.16666666666667</ele><time>2026-04-08T15:25:00Z</time></trkpt><trkpt lat="45.42048285822551" lon="9.075223028277714"><ele>114.33333333333334</ele><time>2026-04-08T15:25:01Z</time></trkpt><trkpt lat="45.42052925351552" lon="9.075318812912833"><ele>114.5</ele><time>2026-04-08T15:25:02Z</time></trkpt><trkpt lat="45.420576806363336" lon="9.075406214759235"><ele>114.66666666666667</ele><time>2026-04-08T15:25:03Z</time></trkpt><trkpt lat="45.42062400497404" lon="9.075498910542683"><ele>114.83333333333334</ele><time>2026-04-08T15:25:04Z</time></trkpt><trkpt lat="45.420674270336725" lon="9.075597826291075"><ele>115.0</ele><time>2026-04-08T15:25:05Z</time></trkpt><trkpt lat="45.42073287409118" lon="9.075698986547122"><ele>114.6</ele><time>2026-04-08T15:25:06Z</time></trkpt><trkpt lat="45.42079528208957" lon="9.075807728438626"><ele>114.2</ele><time>2026-04-08T15:25:07Z</time></trkpt><trkpt lat="45.42085603389516" lon="9.075917253978785"><ele>113.80000000000001</ele><time>2026-04-08T15:25:08Z</time></trkpt><trkpt lat="45.42091571802428" lon="9.076023158639416"><ele>113.4</ele><time>2026-04-08T15:25:09Z</time></trkpt><trkpt lat="45.42096968141538" lon="9.076125741815943"><ele>113.0</ele><time>2026-04-08T15:25:10Z</time></trkpt><trkpt lat="45.4210213738274" lon="9.076233612871162"><ele>113.0</ele><time>2026-04-08T15:25:11Z</time></trkpt><trkpt lat="45.42107517880982" lon="9.076344819451426"><ele>113.00000000000001</ele><time>2026-04-08T15:25:12Z</time></trkpt><trkpt lat="45.421134428693655" lon="9.076465143399046"><ele>113.00000000000001</ele><time>2026-04-08T15:25:13Z</time></trkpt><trkpt lat="45.42119629968466" lon="9.076589594241197"><ele>113.0</ele><time>2026-04-08T15:25:14Z</time></trkpt><trkpt lat="45.42126048051376" lon="9.076715643027201"><ele>113.0</ele><time>2026-04-08T15:25:15Z</time></trkpt><trkpt lat="45.42132472152259" lon="9.076845922373113"><ele>113.2</ele><time>2026-04-08T15:25:16Z</time></trkpt><trkpt lat="45.42138610589341" lon="9.076969984036358"><ele>113.4</ele><time>2026-04-08T15:25:17Z</time></trkpt><trkpt lat="45.42144741320998" lon="9.07709311341637"><ele>113.60000000000001</ele><time>2026-04-08T15:25:18Z</time></trkpt><trkpt lat="45.4215079127848" lon="9.07721597912519"><ele>113.80000000000001</ele><time>2026-04-08T15:25:19Z</time></trkpt><trkpt lat="45.42157118953347" lon="9.077341551516254"><ele>114.0</ele><time>2026-04-08T15:25:20Z</time></trkpt><trkpt lat="45.42163580417119" lon="9.07747336737182"><ele>114.25</ele><time>2026-04-08T15:25:21Z</time></trkpt><trkpt lat="45.4217019370873" lon="9.077609098495877"><ele>114.5</ele><time>2026-04-08T15:25:22Z</time></trkpt><trkpt lat="45.421773019247894" lon="9.077746211174984"><ele>114.75</ele><time>2026-04-08T15:25:23Z</time></trkpt><trkpt lat="45.42183107801627" lon="9.077904229200849"><ele>115.0</ele><time>2026-04-08T15:25:24Z</time></trkpt><trkpt lat="45.42190392767837" lon="9.078051418222612"><ele>115.0</ele><time>2026-04-08T15:25:25Z</time></trkpt><trkpt lat="45.42197795569241" lon="9.078200989138034"><ele>115.0</ele><time>2026-04-08T15:25:26Z</time></trkpt><trkpt lat="45.42205506850672" lon="9.078359274882192"><ele>115.0</ele><time>2026-04-08T15:25:27Z</time></trkpt><trkpt lat="45.42214647611917" lon="9.07851263494866"><ele>115.0</ele><time>2026-04-08T15:25:28Z</time></trkpt><trkpt lat="45.4222216175178" lon="9.07867809368853"><ele>114.75</ele><time>2026-04-08T15:25:29Z</time></trkpt><trkpt lat="45.42229682104838" lon="9.07884688397414"><ele>114.5</ele><time>2026-04-08T15:25:30Z</time></trkpt><trkpt lat="45.42237366041023" lon="9.079015774096247"><ele>114.25</ele><time>2026-04-08T15:25:31Z</time></trkpt><trkpt lat="45.42245310054242" lon="9.079185033108782"><ele>114.0</ele><time>2026-04-08T15:25:32Z</time></trkpt><trkpt lat="45.422531154042" lon="9.079356442986201"><ele>114.5</ele><time>2026-04-08T15:25:33Z</time></trkpt><trkpt lat="45.42261099732493" lon="9.079529686799956"><ele>115.0</ele><time>2026-04-08T15:25:34Z</time></trkpt><trkpt lat="45.42269286960528" lon="9.079692390544391"><ele>115.5</ele><time>2026-04-08T15:25:35Z</time></trkpt><trkpt lat="45.42277474187621" lon="9.079844036264577"><ele>116.0</ele><time>2026-04-08T15:25:35.999Z</time></trkpt><trkpt lat="45.42285791785173" lon="9.079999316967628"><ele>116.0</ele><time>2026-04-08T15:25:36.999Z</time></trkpt><trkpt lat="45.42293989609989" lon="9.080171504805339"><ele>116.0</ele><time>2026-04-08T15:25:37.999Z</time></trkpt><trkpt lat="45.42303210969898" lon="9.080370986518398"><ele>116.0</ele><time>2026-04-08T15:25:38.999Z</time></trkpt><trkpt lat="45.42312742530192" lon="9.080567279375472"><ele>115.0</ele><time>2026-04-08T15:25:39.999Z</time></trkpt><trkpt lat="45.423237767316245" lon="9.080794854118388"><ele>114.0</ele><time>2026-04-08T15:25:40.999Z</time></trkpt><trkpt lat="45.42336435709556" lon="9.081040500606942"><ele>113.0</ele><time>2026-04-08T15:25:41.999Z</time></trkpt><trkpt lat="45.42349617932157" lon="9.08129315597357"><ele>113.0</ele><time>2026-04-08T15:25:42.999Z</time></trkpt><trkpt lat="45.42362135565109" lon="9.081544246391333"><ele>113.0</ele><time>2026-04-08T15:25:43.999Z</time></trkpt><trkpt lat="45.4237391187597" lon="9.081792363026999"><ele>113.0</ele><time>2026-04-08T15:25:44.999Z</time></trkpt><trkpt lat="45.42386211710252" lon="9.082042082726566"><ele>114.0</ele><time>2026-04-08T15:25:45.999Z</time></trkpt><trkpt lat="45.4239926137758" lon="9.082310450137618"><ele>115.0</ele><time>2026-04-08T15:25:46.999Z</time></trkpt><trkpt lat="45.42412840269887" lon="9.08259268569461"><ele>115.0</ele><time>2026-04-08T15:25:47.999Z</time></trkpt><trkpt lat="45.42426051881874" lon="9.082871921447094"><ele>115.0</ele><time>2026-04-08T15:25:48.999Z</time></trkpt><trkpt lat="45.424389777055794" lon="9.083142368276205"><ele>116.0</ele><time>2026-04-08T15:25:49.999Z</time></trkpt><trkpt lat="45.42451586987622" lon="9.083406227919955"><ele>117.0</ele><time>2026-04-08T15:25:50.999Z</time></trkpt><trkpt lat="45.424631324879755" lon="9.08366520893325"><ele>118.0</ele><time>2026-04-08T15:25:51.999Z</time></trkpt><trkpt lat="45.424729197089945" lon="9.083926798185354"><ele>117.66666666666667</ele><time>2026-04-08T15:25:52.999Z</time></trkpt><trkpt lat="45.42480662537888" lon="9.084198623269929"><ele>117.33333333333334</ele><time>2026-04-08T15:25:53.999Z</time></trkpt><trkpt lat="45.42486763814324" lon="9.084483792692572"><ele>117.0</ele><time>2026-04-08T15:25:54.999Z</time></trkpt><trkpt lat="45.42493024621404" lon="9.084775491502219"><ele>118.0</ele><time>2026-04-08T15:25:55.999Z</time></trkpt><trkpt lat="45.425002299255965" lon="9.085070401442525"><ele>119.0</ele><time>2026-04-08T15:25:56.999Z</time></trkpt><trkpt lat="45.42507742861788" lon="9.085368415477921"><ele>120.0</ele><time>2026-04-08T15:25:57.999Z</time></trkpt><trkpt lat="45.425149541500225" lon="9.08565553463723"><ele>119.0</ele><time>2026-04-08T15:25:58.999Z</time></trkpt><trkpt lat="45.42522099931493" lon="9.085930986269782"><ele>118.0</ele><time>2026-04-08T15:25:59.999Z</time></trkpt><trkpt lat="45.42528756448167" lon="9.08619570099098"><ele>117.0</ele><time>2026-04-08T15:26:00.999Z</time></trkpt><trkpt lat="45.42535036563668" lon="9.086448428469307"><ele>116.33333333333334</ele><time>2026-04-08T15:26:01.999Z</time></trkpt><trkpt lat="45.425410095347665" lon="9.086699919063244"><ele>115.66666666666667</ele><time>2026-04-08T15:26:02.999Z</time></trkpt><trkpt lat="45.425467404659834" lon="9.086934624123742"><ele>115.0</ele><time>2026-04-08T15:26:03.999Z</time></trkpt><trkpt lat="45.425523322543974" lon="9.087169298799145"><ele>115.0</ele><time>2026-04-08T15:26:04.999Z</time></trkpt><trkpt lat="45.425580024432655" lon="9.08739442398306"><ele>115.0</ele><time>2026-04-08T15:26:05.999Z</time></trkpt><trkpt lat="45.42563498265734" lon="9.087611835888643"><ele>115.0</ele><time>2026-04-08T15:26:06.999Z</time></trkpt><trkpt lat="45.42568796942053" lon="9.08782225825763"><ele>115.25</ele><time>2026-04-08T15:26:07.999Z</time></trkpt><trkpt lat="45.42574061960188" lon="9.088039067977734"><ele>115.5</ele><time>2026-04-08T15:26:08.999Z</time></trkpt><trkpt lat="45.425779269327236" lon="9.088212540871572"><ele>115.75</ele><time>2026-04-08T15:26:09.999Z</time></trkpt><trkpt lat="45.42581510105298" lon="9.08836201664543"><ele>116.0</ele><time>2026-04-08T15:26:10.999Z</time></trkpt><trkpt lat="45.425854400128756" lon="9.0885118481613"><ele>116.0</ele><time>2026-04-08T15:26:11.999Z</time></trkpt><trkpt lat="45.42589536139846" lon="9.088664193373317"><ele>116.0</ele><time>2026-04-08T15:26:12.999Z</time></trkpt><trkpt lat="45.42593730808049" lon="9.088826951801355"><ele>116.0</ele><time>2026-04-08T15:26:13.999Z</time></trkpt><trkpt lat="45.42598585892786" lon="9.089015553574116"><ele>116.0</ele><time>2026-04-08T15:26:14.999Z</time></trkpt><trkpt lat="45.42603326766187" lon="9.089212199343702"><ele>116.33333333333333</ele><time>2026-04-08T15:26:15.999Z</time></trkpt><trkpt lat="45.42608633663071" lon="9.089425922218869"><ele>116.66666666666666</ele><time>2026-04-08T15:26:16.999Z</time></trkpt><trkpt lat="45.426138655568714" lon="9.08965034433759"><ele>117.0</ele><time>2026-04-08T15:26:17.999Z</time></trkpt><trkpt lat="45.42619622588179" lon="9.089896404346597"><ele>116.66666666666666</ele><time>2026-04-08T15:26:18.999Z</time></trkpt><trkpt lat="45.42625459347643" lon="9.090144869403277"><ele>116.33333333333333</ele><time>2026-04-08T15:26:19.999Z</time></trkpt><trkpt lat="45.426312793727554" lon="9.090389099671496"><ele>116.0</ele><time>2026-04-08T15:26:20.999Z</time></trkpt><trkpt lat="45.42637344826824" lon="9.090631639869281"><ele>115.33333333333333</ele><time>2026-04-08T15:26:21.999Z</time></trkpt><trkpt lat="45.42642822183604" lon="9.090859005781327"><ele>114.66666666666666</ele><time>2026-04-08T15:26:22.999Z</time></trkpt><trkpt lat="45.42648010374471" lon="9.091075148396518"><ele>114.0</ele><time>2026-04-08T15:26:23.999Z</time></trkpt><trkpt lat="45.42652985406289" lon="9.091284832757061"><ele>114.0</ele><time>2026-04-08T15:26:25Z</time></trkpt><trkpt lat="45.4265768733776" lon="9.0914807401889"><ele>114.0</ele><time>2026-04-08T15:26:26Z</time></trkpt><trkpt lat="45.42662203899129" lon="9.091668978964988"><ele>114.0</ele><time>2026-04-08T15:26:27Z</time></trkpt><trkpt lat="45.426664555537045" lon="9.091851615249054"><ele>114.0</ele><time>2026-04-08T15:26:28Z</time></trkpt><trkpt lat="45.4267090756231" lon="9.092028178711004"><ele>114.0</ele><time>2026-04-08T15:26:29Z</time></trkpt><trkpt lat="45.42675622506809" lon="9.092209827566931"><ele>114.0</ele><time>2026-04-08T15:26:30Z</time></trkpt><trkpt lat="45.42679922492982" lon="9.092399410586799"><ele>114.0</ele><time>2026-04-08T15:26:31Z</time></trkpt><trkpt lat="45.42684260252444" lon="9.092596107567882"><ele>114.0</ele><time>2026-04-08T15:26:32Z</time></trkpt><trkpt lat="45.42688850327447" lon="9.092799723932995"><ele>114.0</ele><time>2026-04-08T15:26:33Z</time></trkpt><trkpt lat="45.4269380385391" lon="9.09300850147865"><ele>114.0</ele><time>2026-04-08T15:26:34Z</time></trkpt><trkpt lat="45.42698842479902" lon="9.093219346476527"><ele>114.0</ele><time>2026-04-08T15:26:35Z</time></trkpt><trkpt lat="45.42703875429626" lon="9.09342797902731"><ele>113.5</ele><time>2026-04-08T15:26:36Z</time></trkpt><trkpt lat="45.42708809756397" lon="9.09362505561773"><ele>113.0</ele><time>2026-04-08T15:26:37Z</time></trkpt><trkpt lat="45.42713480833124" lon="9.093808172898846"><ele>112.5</ele><time>2026-04-08T15:26:38Z</time></trkpt><trkpt lat="45.42717591408373" lon="9.093977896023217"><ele>112.0</ele><time>2026-04-08T15:26:39Z</time></trkpt><trkpt lat="45.42720863076154" lon="9.094134294685546"><ele>113.00000000000001</ele><time>2026-04-08T15:26:40Z</time></trkpt><trkpt lat="45.42723504770708" lon="9.094271442466136"><ele>114.0</ele><time>2026-04-08T15:26:41Z</time></trkpt><trkpt lat="45.42725722936449" lon="9.094392174230547"><ele>115.0</ele><time>2026-04-08T15:26:42Z</time></trkpt><trkpt lat="45.42727378621724" lon="9.094493387812868"><ele>116.0</ele><time>2026-04-08T15:26:43Z</time></trkpt><trkpt lat="45.42728780085599" lon="9.094582366602873"><ele>117.00000000000001</ele><time>2026-04-08T15:26:44Z</time></trkpt><trkpt lat="45.42729729320057" lon="9.094674253059754"><ele>118.0</ele><time>2026-04-08T15:26:45Z</time></trkpt><trkpt lat="45.42730474178472" lon="9.094774922655533"><ele>118.00000000000001</ele><time>2026-04-08T15:26:46Z</time></trkpt><trkpt lat="45.427316828565466" lon="9.094873090011475"><ele>118.0</ele><time>2026-04-08T15:26:47Z</time></trkpt><trkpt lat="45.42735410222805" lon="9.095020231418259"><ele>118.0</ele><time>2026-04-08T15:26:49Z</time></trkpt><trkpt lat="45.42738466173545" lon="9.095109540336905"><ele>118.0</ele><time>2026-04-08T15:26:51Z</time></trkpt><trkpt lat="45.42741771895411" lon="9.095247526858477"><ele>118.00000000000001</ele><time>2026-04-08T15:27:11Z</time></trkpt><trkpt lat="45.427445072301545" lon="9.095356321470693"><ele>118.0</ele><time>2026-04-08T15:27:12Z</time></trkpt><trkpt lat="45.42748014405961" lon="9.095496020612469"><ele>118.0</ele><time>2026-04-08T15:27:13Z</time></trkpt><trkpt lat="45.4275272038585" lon="9.095656266585914"><ele>118.0</ele><time>2026-04-08T15:27:14Z</time></trkpt><trkpt lat="45.42758132675578" lon="9.09583907106637"><ele>118.0</ele><time>2026-04-08T15:27:15Z</time></trkpt><trkpt lat="45.427634206588614" lon="9.096021227742638"><ele>118.0</ele><time>2026-04-08T15:27:16Z</time></trkpt><trkpt lat="45.42768931004659" lon="9.096212334400896"><ele>117.0</ele><time>2026-04-08T15:27:17Z</time></trkpt><trkpt lat="45.42774645664636" lon="9.096414995425404"><ele>116.0</ele><time>2026-04-08T15:27:18Z</time></trkpt><trkpt lat="45.42780476304917" lon="9.096630720488077"><ele>115.0</ele><time>2026-04-08T15:27:19Z</time></trkpt><trkpt lat="45.42786398565337" lon="9.09685658306882"><ele>114.66666666666667</ele><time>2026-04-08T15:27:20Z</time></trkpt><trkpt lat="45.42792281767535" lon="9.097089699773669"><ele>114.33333333333334</ele><time>2026-04-08T15:27:21Z</time></trkpt><trkpt lat="45.42798280116505" lon="9.09731995161558"><ele>114.0</ele><time>2026-04-08T15:27:22Z</time></trkpt><trkpt lat="45.4280477352013" lon="9.097560441241948"><ele>113.66666666666666</ele><time>2026-04-08T15:27:23Z</time></trkpt><trkpt lat="45.428112865023905" lon="9.097798103489797"><ele>113.33333333333333</ele><time>2026-04-08T15:27:24Z</time></trkpt><trkpt lat="45.42817394261341" lon="9.098042066533035"><ele>113.0</ele><time>2026-04-08T15:27:25Z</time></trkpt><trkpt lat="45.42823274032094" lon="9.09829207781063"><ele>113.0</ele><time>2026-04-08T15:27:26Z</time></trkpt><trkpt lat="45.4282897406864" lon="9.098526873982783"><ele>113.0</ele><time>2026-04-08T15:27:27Z</time></trkpt><trkpt lat="45.428346145718876" lon="9.09876084296378"><ele>113.0</ele><time>2026-04-08T15:27:28Z</time></trkpt><trkpt lat="45.42840320658978" lon="9.09899103935168"><ele>112.33333333333333</ele><time>2026-04-08T15:27:29Z</time></trkpt><trkpt lat="45.42846148693707" lon="9.099215992234122"><ele>111.66666666666666</ele><time>2026-04-08T15:27:30Z</time></trkpt><trkpt lat="45.4285176539637" lon="9.099430413002075"><ele>111.0</ele><time>2026-04-08T15:27:31Z</time></trkpt><trkpt lat="45.42857320911894" lon="9.09964560700291"><ele>111.0</ele><time>2026-04-08T15:27:31.999Z</time></trkpt><trkpt lat="45.42862563073546" lon="9.099863175750732"><ele>111.0</ele><time>2026-04-08T15:27:32.999Z</time></trkpt><trkpt lat="45.42867765423565" lon="9.10008326847637"><ele>111.0</ele><time>2026-04-08T15:27:33.999Z</time></trkpt><trkpt lat="45.42872767520297" lon="9.100302770953974"><ele>112.33333333333334</ele><time>2026-04-08T15:27:34.999Z</time></trkpt><trkpt lat="45.428778848366164" lon="9.100527256872365"><ele>113.66666666666667</ele><time>2026-04-08T15:27:35.999Z</time></trkpt><trkpt lat="45.42882944608299" lon="9.100745510892475"><ele>115.0</ele><time>2026-04-08T15:27:36.999Z</time></trkpt><trkpt lat="45.428878692936735" lon="9.100952241468253"><ele>115.0</ele><time>2026-04-08T15:27:37.999Z</time></trkpt><trkpt lat="45.42892335996842" lon="9.101150375884895"><ele>115.0</ele><time>2026-04-08T15:27:38.999Z</time></trkpt><trkpt lat="45.42896560280211" lon="9.10133283691381"><ele>115.0</ele><time>2026-04-08T15:27:39.999Z</time></trkpt><trkpt lat="45.42900623905" lon="9.101506613178463"><ele>115.0</ele><time>2026-04-08T15:27:40.999Z</time></trkpt><trkpt lat="45.42905503153689" lon="9.10173216513447"><ele>114.6</ele><time>2026-04-08T15:27:41.999Z</time></trkpt><trkpt lat="45.42909112776854" lon="9.1018811238744"><ele>114.2</ele><time>2026-04-08T15:27:42.999Z</time></trkpt><trkpt lat="45.42912375143002" lon="9.102014764490685"><ele>113.80000000000001</ele><time>2026-04-08T15:27:43.999Z</time></trkpt><trkpt lat="45.42915313769388" lon="9.102134612051524"><ele>113.4</ele><time>2026-04-08T15:27:44.999Z</time></trkpt><trkpt lat="45.429177750561216" lon="9.102236146926662"><ele>113.0</ele><time>2026-04-08T15:27:45.999Z</time></trkpt><trkpt lat="45.42919808955986" lon="9.102363686739903"><ele>113.2</ele><time>2026-04-08T15:27:47.999Z</time></trkpt><trkpt lat="45.42921316673679" lon="9.102469703983084"><ele>113.4</ele><time>2026-04-08T15:27:50.999Z</time></trkpt><trkpt lat="45.42927517637944" lon="9.10261535049175"><ele>113.60000000000001</ele><time>2026-04-08T15:28:27.999Z</time></trkpt><trkpt lat="45.429297524896896" lon="9.102716858080793"><ele>113.80000000000001</ele><time>2026-04-08T15:28:28.999Z</time></trkpt><trkpt lat="45.42932508603674" lon="9.10283500037315"><ele>114.0</ele><time>2026-04-08T15:28:29.999Z</time></trkpt><trkpt lat="45.42935509561011" lon="9.102973856374359"><ele>114.0</ele><time>2026-04-08T15:28:31Z</time></trkpt><trkpt lat="45.429391420167356" lon="9.103119685463689"><ele>114.0</ele><time>2026-04-08T15:28:32Z</time></trkpt><trkpt lat="45.429429262861696" lon="9.103274313322755"><ele>114.0</ele><time>2026-04-08T15:28:33Z</time></trkpt><trkpt lat="45.42947059894638" lon="9.103443807556081"><ele>114.0</ele><time>2026-04-08T15:28:34Z</time></trkpt><trkpt lat="45.42951455663395" lon="9.103618323369082"><ele>114.0</ele><time>2026-04-08T15:28:35Z</time></trkpt><trkpt lat="45.429558494810536" lon="9.103788664394138"><ele>114.0</ele><time>2026-04-08T15:28:36Z</time></trkpt><trkpt lat="45.42960582627947" lon="9.103942720023884"><ele>114.0</ele><time>2026-04-08T15:28:37Z</time></trkpt><trkpt lat="45.429660056080586" lon="9.1040996388944"><ele>114.0</ele><time>2026-04-08T15:28:38Z</time></trkpt><trkpt lat="45.429714330493624" lon="9.104260011955857"><ele>113.75</ele><time>2026-04-08T15:28:39Z</time></trkpt><trkpt lat="45.429771418669255" lon="9.104418905679118"><ele>113.5</ele><time>2026-04-08T15:28:40Z</time></trkpt><trkpt lat="45.429823561716496" lon="9.104575383956387"><ele>113.25</ele><time>2026-04-08T15:28:41Z</time></trkpt><trkpt lat="45.42987586706136" lon="9.104729703681905"><ele>113.0</ele><time>2026-04-08T15:28:42Z</time></trkpt><trkpt lat="45.42992305979429" lon="9.10488521906662"><ele>113.75</ele><time>2026-04-08T15:28:43Z</time></trkpt><trkpt lat="45.429966716603225" lon="9.105035736965439"><ele>114.5</ele><time>2026-04-08T15:28:44Z</time></trkpt><trkpt lat="45.4300132384488" lon="9.105191236704082"><ele>115.25</ele><time>2026-04-08T15:28:45Z</time></trkpt><trkpt lat="45.430065184052744" lon="9.105337052963655"><ele>116.0</ele><time>2026-04-08T15:28:46Z</time></trkpt><trkpt lat="45.43012001719934" lon="9.105466728467292"><ele>116.0</ele><time>2026-04-08T15:28:47Z</time></trkpt><trkpt lat="45.4301798894461" lon="9.105578985497312"><ele>116.0</ele><time>2026-04-08T15:28:48Z</time></trkpt><trkpt lat="45.430240380991584" lon="9.105668488004754"><ele>116.0</ele><time>2026-04-08T15:28:49Z</time></trkpt><trkpt lat="45.43029203071086" lon="9.105764292981592"><ele>116.0</ele><time>2026-04-08T15:28:51Z</time></trkpt><trkpt lat="45.430359608948464" lon="9.105846254358772"><ele>116.0</ele><time>2026-04-08T15:28:55Z</time></trkpt><trkpt lat="45.43046228744235" lon="9.105940613933313"><ele>115.8</ele><time>2026-04-08T15:28:57Z</time></trkpt><trkpt lat="45.43052308160497" lon="9.105989882539596"><ele>115.6</ele><time>2026-04-08T15:28:58Z</time></trkpt><trkpt lat="45.43059616511135" lon="9.10604405785732"><ele>115.4</ele><time>2026-04-08T15:28:59Z</time></trkpt><trkpt lat="45.4306836105697" lon="9.106105452504648"><ele>115.2</ele><time>2026-04-08T15:29:00Z</time></trkpt><trkpt lat="45.43078355742547" lon="9.10616988348552"><ele>115.0</ele><time>2026-04-08T15:29:01Z</time></trkpt><trkpt lat="45.4308942955707" lon="9.106243191000742"><ele>115.0</ele><time>2026-04-08T15:29:02Z</time></trkpt><trkpt lat="45.4310004628177" lon="9.106313472620592"><ele>115.0</ele><time>2026-04-08T15:29:03Z</time></trkpt><trkpt lat="45.431111078821914" lon="9.106385454765057"><ele>115.0</ele><time>2026-04-08T15:29:04Z</time></trkpt><trkpt lat="45.43121670175472" lon="9.106453533393761"><ele>115.0</ele><time>2026-04-08T15:29:05Z</time></trkpt><trkpt lat="45.43131251239807" lon="9.106515287286072"><ele>115.2</ele><time>2026-04-08T15:29:06Z</time></trkpt><trkpt lat="45.431398770820664" lon="9.106572812520506"><ele>115.4</ele><time>2026-04-08T15:29:07Z</time></trkpt><trkpt lat="45.431476679688664" lon="9.10662435227315"><ele>115.6</ele><time>2026-04-08T15:29:08Z</time></trkpt><trkpt lat="45.43154466583323" lon="9.106669327646241"><ele>115.8</ele><time>2026-04-08T15:29:09Z</time></trkpt><trkpt lat="45.43164260247623" lon="9.10673411652642"><ele>116.0</ele><time>2026-04-08T15:29:11Z</time></trkpt><trkpt lat="45.431759084136644" lon="9.106810827605315"><ele>116.19999999999999</ele><time>2026-04-08T15:29:13Z</time></trkpt><trkpt lat="45.43183710468586" lon="9.106862019069448"><ele>116.39999999999999</ele><time>2026-04-08T15:29:14Z</time></trkpt><trkpt lat="45.43192615961036" lon="9.106920963142072"><ele>116.6</ele><time>2026-04-08T15:29:15Z</time></trkpt><trkpt lat="45.43203066318709" lon="9.106965881397876"><ele>116.8</ele><time>2026-04-08T15:29:16Z</time></trkpt><trkpt lat="45.43212877759336" lon="9.107049418596896"><ele>117.0</ele><time>2026-04-08T15:29:17Z</time></trkpt><trkpt lat="45.4322212410459" lon="9.107132542702136"><ele>117.0</ele><time>2026-04-08T15:29:18Z</time></trkpt><trkpt lat="45.43230875787281" lon="9.10721482486553"><ele>116.99999999999999</ele><time>2026-04-08T15:29:19Z</time></trkpt><trkpt lat="45.43239891795344" lon="9.107303657087499"><ele>116.99999999999999</ele><time>2026-04-08T15:29:20Z</time></trkpt><trkpt lat="45.432477326159415" lon="9.10742261319017"><ele>117.0</ele><time>2026-04-08T15:29:21Z</time></trkpt><trkpt lat="45.43255950838522" lon="9.10753482592723"><ele>117.0</ele><time>2026-04-08T15:29:22Z</time></trkpt><trkpt lat="45.432643711991055" lon="9.107643565833978"><ele>117.19999999999999</ele><time>2026-04-08T15:29:23Z</time></trkpt><trkpt lat="45.4327047955405" lon="9.107757947739037"><ele>117.39999999999999</ele><time>2026-04-08T15:29:24Z</time></trkpt><trkpt lat="45.43276692054197" lon="9.107859518908528"><ele>117.60000000000001</ele><time>2026-04-08T15:29:25Z</time></trkpt><trkpt lat="45.432830853250834" lon="9.107964264300286"><ele>117.80000000000001</ele><time>2026-04-08T15:29:26Z</time></trkpt><trkpt lat="45.43289933490205" lon="9.108066711905051"><ele>118.0</ele><time>2026-04-08T15:29:27Z</time></trkpt><trkpt lat="45.43296664209864" lon="9.10815555759844"><ele>117.66666666666667</ele><time>2026-04-08T15:29:28Z</time></trkpt><trkpt lat="45.43302554061308" lon="9.108228454271735"><ele>117.33333333333334</ele><time>2026-04-08T15:29:29Z</time></trkpt><trkpt lat="45.43308218869775" lon="9.108302062483602"><ele>117.0</ele><time>2026-04-08T15:29:30Z</time></trkpt><trkpt lat="45.433130264228716" lon="9.108364895748997"><ele>116.66666666666666</ele><time>2026-04-08T15:29:31Z</time></trkpt><trkpt lat="45.43320437469798" lon="9.10846154275631"><ele>116.33333333333333</ele><time>2026-04-08T15:29:33Z</time></trkpt><trkpt lat="45.43327828555784" lon="9.10852266833757"><ele>116.0</ele><time>2026-04-08T15:30:00.999Z</time></trkpt><trkpt lat="45.43338899198114" lon="9.108635043032855"><ele>115.75</ele><time>2026-04-08T15:30:02.999Z</time></trkpt><trkpt lat="45.43346842653551" lon="9.108704364238429"><ele>115.5</ele><time>2026-04-08T15:30:03.999Z</time></trkpt><trkpt lat="45.43357253115351" lon="9.108790289011127"><ele>115.25</ele><time>2026-04-08T15:30:04.999Z</time></trkpt><trkpt lat="45.433680154445376" lon="9.108870662448483"><ele>115.0</ele><time>2026-04-08T15:30:05.999Z</time></trkpt><trkpt lat="45.43378391643032" lon="9.108941650423011"><ele>114.8</ele><time>2026-04-08T15:30:06.999Z</time></trkpt><trkpt lat="45.433882231364684" lon="9.109013281511029"><ele>114.6</ele><time>2026-04-08T15:30:07.999Z</time></trkpt><trkpt lat="45.433966489418516" lon="9.109075058121727"><ele>114.4</ele><time>2026-04-08T15:30:08.999Z</time></trkpt><trkpt lat="45.4340492305311" lon="9.109134717831912"><ele>114.2</ele><time>2026-04-08T15:30:09.999Z</time></trkpt><trkpt lat="45.434118361616996" lon="9.109181230487978"><ele>114.0</ele><time>2026-04-08T15:30:10.999Z</time></trkpt><trkpt lat="45.43419958933144" lon="9.109234603242072"><ele>114.4</ele><time>2026-04-08T15:30:12.999Z</time></trkpt><trkpt lat="45.43426435036222" lon="9.109280309601356"><ele>114.80000000000001</ele><time>2026-04-08T15:30:26.999Z</time></trkpt><trkpt lat="45.43433897075675" lon="9.109330439232194"><ele>115.19999999999999</ele><time>2026-04-08T15:30:27.999Z</time></trkpt><trkpt lat="45.434417932057144" lon="9.109386210803669"><ele>115.6</ele><time>2026-04-08T15:30:28.999Z</time></trkpt><trkpt lat="45.434513498144035" lon="9.109461829555718"><ele>116.0</ele><time>2026-04-08T15:30:29.999Z</time></trkpt><trkpt lat="45.434629504599116" lon="9.109557791510884"><ele>115.5</ele><time>2026-04-08T15:30:30.999Z</time></trkpt><trkpt lat="45.434739353822586" lon="9.109648620751951"><ele>115.0</ele><time>2026-04-08T15:30:31.999Z</time></trkpt><trkpt lat="45.43484208532753" lon="9.109747996084353"><ele>114.5</ele><time>2026-04-08T15:30:32.999Z</time></trkpt><trkpt lat="45.434931838684946" lon="9.109871670466235"><ele>114.0</ele><time>2026-04-08T15:30:33.999Z</time></trkpt><trkpt lat="45.43500514855051" lon="9.11001654416245"><ele>114.0</ele><time>2026-04-08T15:30:34.999Z</time></trkpt><trkpt lat="45.43509709343077" lon="9.110207874311696"><ele>114.0</ele><time>2026-04-08T15:30:36Z</time></trkpt><trkpt lat="45.43515711318546" lon="9.110409164516692"><ele>114.0</ele><time>2026-04-08T15:30:37Z</time></trkpt><trkpt lat="45.435199840878596" lon="9.11062234545724"><ele>114.25</ele><time>2026-04-08T15:30:38Z</time></trkpt><trkpt lat="45.435226378743224" lon="9.110816087511587"><ele>114.5</ele><time>2026-04-08T15:30:39Z</time></trkpt><trkpt lat="45.435249998351296" lon="9.110997206144175"><ele>114.75</ele><time>2026-04-08T15:30:40Z</time></trkpt><trkpt lat="45.43527375608487" lon="9.11116714917871"><ele>115.0</ele><time>2026-04-08T15:30:41Z</time></trkpt><trkpt lat="45.435294491322004" lon="9.111321599690527"><ele>115.00000000000001</ele><time>2026-04-08T15:30:42Z</time></trkpt><trkpt lat="45.43531000445549" lon="9.111455297987122"><ele>115.0</ele><time>2026-04-08T15:30:43Z</time></trkpt><trkpt lat="45.43532292468656" lon="9.111573692048095"><ele>115.0</ele><time>2026-04-08T15:30:44Z</time></trkpt><trkpt lat="45.43533437176693" lon="9.111685746328758"><ele>115.0</ele><time>2026-04-08T15:30:45Z</time></trkpt><trkpt lat="45.43534410555491" lon="9.111794186850318"><ele>115.00000000000001</ele><time>2026-04-08T15:30:46Z</time></trkpt><trkpt lat="45.43535339566613" lon="9.111898531863776"><ele>115.0</ele><time>2026-04-08T15:30:47Z</time></trkpt><trkpt lat="45.435361975438354" lon="9.111997010124133"><ele>114.99999999999999</ele><time>2026-04-08T15:30:48Z</time></trkpt><trkpt lat="45.435371433487504" lon="9.11210118409642"><ele>115.0</ele><time>2026-04-08T15:30:49Z</time></trkpt><trkpt lat="45.43538155076174" lon="9.112205520894909"><ele>114.99999999999999</ele><time>2026-04-08T15:30:50Z</time></trkpt><trkpt lat="45.43539247588913" lon="9.112303898970788"><ele>114.99999999999999</ele><time>2026-04-08T15:30:51Z</time></trkpt><trkpt lat="45.435406177249135" lon="9.112404317548949"><ele>115.0</ele><time>2026-04-08T15:30:52Z</time></trkpt><trkpt lat="45.43541925297764" lon="9.112504126855113"><ele>114.99999999999999</ele><time>2026-04-08T15:30:53Z</time></trkpt><trkpt lat="45.435431553338816" lon="9.11260343967375"><ele>114.99999999999999</ele><time>2026-04-08T15:30:54Z</time></trkpt><trkpt lat="45.435442636450546" lon="9.112696289636215"><ele>115.25</ele><time>2026-04-08T15:30:55Z</time></trkpt><trkpt lat="45.4354624649524" lon="9.112860755362172"><ele>115.5</ele><time>2026-04-08T15:30:57Z</time></trkpt><trkpt lat="45.435487895987535" lon="9.113024598656647"><ele>115.75</ele><time>2026-04-08T15:30:59Z</time></trkpt><trkpt lat="45.43550917839045" lon="9.113185362890214"><ele>116.0</ele><time>2026-04-08T15:31:01Z</time></trkpt><trkpt lat="45.43552763746432" lon="9.11335809211539"><ele>116.0</ele><time>2026-04-08T15:31:03Z</time></trkpt><trkpt lat="45.4355373253045" lon="9.113467141695377"><ele>116.0</ele><time>2026-04-08T15:31:04Z</time></trkpt><trkpt lat="45.435547081590244" lon="9.1135912566612"><ele>116.0</ele><time>2026-04-08T15:31:05Z</time></trkpt><trkpt lat="45.435568026293005" lon="9.113726593545044"><ele>116.0</ele><time>2026-04-08T15:31:06Z</time></trkpt><trkpt lat="45.43560138716504" lon="9.113873190232079"><ele>116.0</ele><time>2026-04-08T15:31:07Z</time></trkpt><trkpt lat="45.43564323401671" lon="9.114024680578911"><ele>115.5</ele><time>2026-04-08T15:31:08Z</time></trkpt><trkpt lat="45.43568695164653" lon="9.114170500296732"><ele>115.0</ele><time>2026-04-08T15:31:09Z</time></trkpt><trkpt lat="45.435731340574755" lon="9.114314374684403"><ele>114.5</ele><time>2026-04-08T15:31:10Z</time></trkpt><trkpt lat="45.43577611886015" lon="9.11446420710489"><ele>114.0</ele><time>2026-04-08T15:31:11Z</time></trkpt><trkpt lat="45.43581719333741" lon="9.11462311235712"><ele>114.0</ele><time>2026-04-08T15:31:12Z</time></trkpt><trkpt lat="45.43585616012726" lon="9.114791613406222"><ele>114.0</ele><time>2026-04-08T15:31:13Z</time></trkpt><trkpt lat="45.43589537181303" lon="9.114962197162402"><ele>114.0</ele><time>2026-04-08T15:31:14Z</time></trkpt><trkpt lat="45.43593649019855" lon="9.115132006700316"><ele>114.0</ele><time>2026-04-08T15:31:15Z</time></trkpt><trkpt lat="45.435976671578786" lon="9.11529927492869"><ele>114.0</ele><time>2026-04-08T15:31:16Z</time></trkpt><trkpt lat="45.43601553473805" lon="9.115465230816845"><ele>114.0</ele><time>2026-04-08T15:31:17Z</time></trkpt><trkpt lat="45.43605333851251" lon="9.115630289814069"><ele>114.0</ele><time>2026-04-08T15:31:18Z</time></trkpt><trkpt lat="45.43609070439972" lon="9.115794218831532"><ele>114.0</ele><time>2026-04-08T15:31:19Z</time></trkpt><trkpt lat="45.43612696353239" lon="9.115951025510299"><ele>114.0</ele><time>2026-04-08T15:31:20Z</time></trkpt><trkpt lat="45.436163145954886" lon="9.116083927845093"><ele>114.0</ele><time>2026-04-08T15:31:21Z</time></trkpt><trkpt lat="45.436195199400686" lon="9.11619942059121"><ele>114.0</ele><time>2026-04-08T15:31:22Z</time></trkpt><trkpt lat="45.43622354799547" lon="9.116296654531043"><ele>114.0</ele><time>2026-04-08T15:31:23Z</time></trkpt><trkpt lat="45.43627898817107" lon="9.116455174784614"><ele>114.0</ele><time>2026-04-08T15:31:25Z</time></trkpt><trkpt lat="45.436319106554535" lon="9.116613880151853"><ele>114.6</ele><time>2026-04-08T15:31:27Z</time></trkpt><trkpt lat="45.43635284172794" lon="9.116755572123388"><ele>115.2</ele><time>2026-04-08T15:31:29Z</time></trkpt><trkpt lat="45.43637640938169" lon="9.116854880209608"><ele>115.79999999999998</ele><time>2026-04-08T15:31:35Z</time></trkpt><trkpt lat="45.436408459848366" lon="9.116985368608274"><ele>116.39999999999999</ele><time>2026-04-08T15:31:36.999Z</time></trkpt><trkpt lat="45.43643366219047" lon="9.11709726100079"><ele>117.0</ele><time>2026-04-08T15:31:37.999Z</time></trkpt><trkpt lat="45.43646032979073" lon="9.117226904929137"><ele>117.0</ele><time>2026-04-08T15:31:38.999Z</time></trkpt><trkpt lat="45.43648883870655" lon="9.117372354982994"><ele>117.0</ele><time>2026-04-08T15:31:39.999Z</time></trkpt><trkpt lat="45.436527369703214" lon="9.11753575853944"><ele>117.0</ele><time>2026-04-08T15:31:40.999Z</time></trkpt><trkpt lat="45.436572566948236" lon="9.117700763212538"><ele>117.0</ele><time>2026-04-08T15:31:41.999Z</time></trkpt><trkpt lat="45.43661965612289" lon="9.11788273172859"><ele>117.0</ele><time>2026-04-08T15:31:42.999Z</time></trkpt><trkpt lat="45.436668979305715" lon="9.11806863625024"><ele>117.0</ele><time>2026-04-08T15:31:43.999Z</time></trkpt><trkpt lat="45.436719198394016" lon="9.118251208248033"><ele>117.0</ele><time>2026-04-08T15:31:44.999Z</time></trkpt><trkpt lat="45.43676762089423" lon="9.118416823529309"><ele>117.0</ele><time>2026-04-08T15:31:45.999Z</time></trkpt><trkpt lat="45.43681242045312" lon="9.118570566597429"><ele>117.0</ele><time>2026-04-08T15:31:46.999Z</time></trkpt><trkpt lat="45.43685328461435" lon="9.118710770738959"><ele>117.0</ele><time>2026-04-08T15:31:47.999Z</time></trkpt><trkpt lat="45.43688400709195" lon="9.118834383435502"><ele>117.0</ele><time>2026-04-08T15:31:48.999Z</time></trkpt><trkpt lat="45.43690985469221" lon="9.118940893397694"><ele>117.0</ele><time>2026-04-08T15:31:49.999Z</time></trkpt><trkpt lat="45.436933259046135" lon="9.119032882997855"><ele>117.0</ele><time>2026-04-08T15:31:50.999Z</time></trkpt><trkpt lat="45.436972759917076" lon="9.11916707987458"><ele>117.0</ele><time>2026-04-08T15:31:52.999Z</time></trkpt><trkpt lat="45.4369967989479" lon="9.119256255537039"><ele>117.0</ele><time>2026-04-08T15:31:54.999Z</time></trkpt><trkpt lat="45.437016901831655" lon="9.119345146065566"><ele>116.99999999999999</ele><time>2026-04-08T15:31:56.999Z</time></trkpt><trkpt lat="45.43703911775632" lon="9.119442638109089"><ele>116.99999999999999</ele><time>2026-04-08T15:31:57.999Z</time></trkpt><trkpt lat="45.43707107759455" lon="9.11957657555853"><ele>117.0</ele><time>2026-04-08T15:31:58.999Z</time></trkpt><trkpt lat="45.43710866813342" lon="9.119741771315503"><ele>117.0</ele><time>2026-04-08T15:31:59.999Z</time></trkpt><trkpt lat="45.43715184106419" lon="9.11991792540985"><ele>116.75</ele><time>2026-04-08T15:32:00.999Z</time></trkpt><trkpt lat="45.4371952262662" lon="9.120082370001443"><ele>116.5</ele><time>2026-04-08T15:32:01.999Z</time></trkpt><trkpt lat="45.43723952351493" lon="9.120243053253908"><ele>116.25</ele><time>2026-04-08T15:32:02.999Z</time></trkpt><trkpt lat="45.43728756306948" lon="9.12040854207143"><ele>116.0</ele><time>2026-04-08T15:32:03.999Z</time></trkpt><trkpt lat="45.437338772005674" lon="9.120577194403424"><ele>115.75</ele><time>2026-04-08T15:32:04.999Z</time></trkpt><trkpt lat="45.437390372776306" lon="9.120749778738592"><ele>115.5</ele><time>2026-04-08T15:32:05.999Z</time></trkpt><trkpt lat="45.437438635341564" lon="9.120921635330266"><ele>115.25</ele><time>2026-04-08T15:32:06.999Z</time></trkpt><trkpt lat="45.43748557341822" lon="9.121089915943438"><ele>115.0</ele><time>2026-04-08T15:32:07.999Z</time></trkpt><trkpt lat="45.43753388795235" lon="9.121261078454395"><ele>115.0</ele><time>2026-04-08T15:32:08.999Z</time></trkpt><trkpt lat="45.43758334151562" lon="9.12143665281297"><ele>115.0</ele><time>2026-04-08T15:32:09.999Z</time></trkpt><trkpt lat="45.43763227526042" lon="9.12161662316507"><ele>115.0</ele><time>2026-04-08T15:32:10.999Z</time></trkpt><trkpt lat="45.43768282093878" lon="9.121796658370213"><ele>115.0</ele><time>2026-04-08T15:32:11.999Z</time></trkpt><trkpt lat="45.437719176827486" lon="9.121986397739672"><ele>114.75</ele><time>2026-04-08T15:32:12.999Z</time></trkpt><trkpt lat="45.437769349771315" lon="9.12216956143002"><ele>114.5</ele><time>2026-04-08T15:32:13.999Z</time></trkpt><trkpt lat="45.4378209605311" lon="9.122357974189564"><ele>114.25</ele><time>2026-04-08T15:32:14.999Z</time></trkpt><trkpt lat="45.437873670704946" lon="9.122549929485283"><ele>114.0</ele><time>2026-04-08T15:32:15.999Z</time></trkpt><trkpt lat="45.437941578560746" lon="9.12273785003234"><ele>114.0</ele><time>2026-04-08T15:32:16.999Z</time></trkpt><trkpt lat="45.43799280827371" lon="9.122939133700207"><ele>114.0</ele><time>2026-04-08T15:32:17.999Z</time></trkpt><trkpt lat="45.43804527822362" lon="9.12312997260998"><ele>114.0</ele><time>2026-04-08T15:32:18.999Z</time></trkpt><trkpt lat="45.43809931758455" lon="9.123312297688754"><ele>114.0</ele><time>2026-04-08T15:32:19.999Z</time></trkpt><trkpt lat="45.4381466312303" lon="9.123477901715198"><ele>114.0</ele><time>2026-04-08T15:32:20.999Z</time></trkpt><trkpt lat="45.4381911430806" lon="9.123627513514398"><ele>114.0</ele><time>2026-04-08T15:32:21.999Z</time></trkpt><trkpt lat="45.438236346612925" lon="9.123766391619249"><ele>114.0</ele><time>2026-04-08T15:32:22.999Z</time></trkpt><trkpt lat="45.43826087636948" lon="9.123910060893989"><ele>114.0</ele><time>2026-04-08T15:32:23.999Z</time></trkpt><trkpt lat="45.438301505354424" lon="9.12404521595541"><ele>114.0</ele><time>2026-04-08T15:32:24.999Z</time></trkpt><trkpt lat="45.438340504358735" lon="9.124174391474279"><ele>114.2</ele><time>2026-04-08T15:32:25.999Z</time></trkpt><trkpt lat="45.438379950605224" lon="9.124305048261155"><ele>114.4</ele><time>2026-04-08T15:32:26.999Z</time></trkpt><trkpt lat="45.43841940205877" lon="9.12443291503997"><ele>114.6</ele><time>2026-04-08T15:32:27.999Z</time></trkpt><trkpt lat="45.438459373689895" lon="9.124561162867064"><ele>114.8</ele><time>2026-04-08T15:32:28.999Z</time></trkpt><trkpt lat="45.43849817969433" lon="9.124685670855065"><ele>115.0</ele><time>2026-04-08T15:32:29.999Z</time></trkpt><trkpt lat="45.43853643218323" lon="9.124807839794844"><ele>114.8</ele><time>2026-04-08T15:32:30.999Z</time></trkpt><trkpt lat="45.43857531246646" lon="9.12492437333485"><ele>114.6</ele><time>2026-04-08T15:32:31.999Z</time></trkpt><trkpt lat="45.438614595704166" lon="9.125040502531178"><ele>114.4</ele><time>2026-04-08T15:32:32.999Z</time></trkpt><trkpt lat="45.43865709077817" lon="9.125153723369603"><ele>114.2</ele><time>2026-04-08T15:32:33.999Z</time></trkpt><trkpt lat="45.43870261950698" lon="9.125272034052674"><ele>114.0</ele><time>2026-04-08T15:32:34.999Z</time></trkpt><trkpt lat="45.43875432005447" lon="9.125402891202903"><ele>114.25</ele><time>2026-04-08T15:32:35.999Z</time></trkpt><trkpt lat="45.438813859846356" lon="9.125542804563"><ele>114.5</ele><time>2026-04-08T15:32:36.999Z</time></trkpt><trkpt lat="45.43889361168373" lon="9.125684401470334"><ele>114.75</ele><time>2026-04-08T15:32:37.999Z</time></trkpt><trkpt lat="45.43895248863619" lon="9.125840223917333"><ele>115.0</ele><time>2026-04-08T15:32:38.999Z</time></trkpt><trkpt lat="45.43906192960108" lon="9.125949093846295"><ele>115.0</ele><time>2026-04-08T15:32:39.999Z</time></trkpt><trkpt lat="45.43916233987326" lon="9.126086277154306"><ele>115.0</ele><time>2026-04-08T15:32:41Z</time></trkpt><trkpt lat="45.43926302520037" lon="9.126244658899568"><ele>115.0</ele><time>2026-04-08T15:32:42Z</time></trkpt><trkpt lat="45.43936516004785" lon="9.126402626316006"><ele>115.0</ele><time>2026-04-08T15:32:43Z</time></trkpt><trkpt lat="45.43945820154628" lon="9.126580928044675"><ele>115.33333333333334</ele><time>2026-04-08T15:32:44Z</time></trkpt><trkpt lat="45.43957507643912" lon="9.126731010122695"><ele>115.66666666666666</ele><time>2026-04-08T15:32:45Z</time></trkpt><trkpt lat="45.439690387952815" lon="9.126879172228945"><ele>116.0</ele><time>2026-04-08T15:32:46Z</time></trkpt><trkpt lat="45.43980072732182" lon="9.127021669277871"><ele>116.0</ele><time>2026-04-08T15:32:47Z</time></trkpt><trkpt lat="45.43990462775181" lon="9.12715585079552"><ele>116.0</ele><time>2026-04-08T15:32:48Z</time></trkpt><trkpt lat="45.43999992228413" lon="9.127278918234074"><ele>116.0</ele><time>2026-04-08T15:32:49Z</time></trkpt><trkpt lat="45.44008756714158" lon="9.127391464543052"><ele>116.0</ele><time>2026-04-08T15:32:50Z</time></trkpt><trkpt lat="45.44016676178154" lon="9.127490847523537"><ele>116.0</ele><time>2026-04-08T15:32:51Z</time></trkpt><trkpt lat="45.44024111160814" lon="9.127584150468344"><ele>116.0</ele><time>2026-04-08T15:32:52Z</time></trkpt><trkpt lat="45.440321880109224" lon="9.12765842462701"><ele>116.0</ele><time>2026-04-08T15:32:53Z</time></trkpt><trkpt lat="45.44038034143729" lon="9.127768039506973"><ele>116.0</ele><time>2026-04-08T15:32:54Z</time></trkpt><trkpt lat="45.44044630340502" lon="9.127867771815579"><ele>116.0</ele><time>2026-04-08T15:32:55Z</time></trkpt><trkpt lat="45.44050649147732" lon="9.127977774060396"><ele>115.99999999999999</ele><time>2026-04-08T15:32:56Z</time></trkpt><trkpt lat="45.440569416470964" lon="9.12808435298162"><ele>116.0</ele><time>2026-04-08T15:32:57Z</time></trkpt><trkpt lat="45.44061209657033" lon="9.128197355989979"><ele>116.0</ele><time>2026-04-08T15:32:58Z</time></trkpt><trkpt lat="45.440649799085456" lon="9.128304618846975"><ele>116.0</ele><time>2026-04-08T15:32:59Z</time></trkpt><trkpt lat="45.44067244041091" lon="9.128417429457299"><ele>115.99999999999999</ele><time>2026-04-08T15:33:00Z</time></trkpt><trkpt lat="45.440717613712486" lon="9.128499845068593"><ele>116.0</ele><time>2026-04-08T15:33:01Z</time></trkpt><trkpt lat="45.4407624556794" lon="9.12864480994444"><ele>116.0</ele><time>2026-04-08T15:33:03Z</time></trkpt><trkpt lat="45.44080011171474" lon="9.1287795180612"><ele>116.0</ele><time>2026-04-08T15:33:05Z</time></trkpt><trkpt lat="45.440832639696346" lon="9.128901804449722"><ele>116.0</ele><time>2026-04-08T15:33:07Z</time></trkpt><trkpt lat="45.44087150158051" lon="9.129034600627644"><ele>116.0</ele><time>2026-04-08T15:33:09Z</time></trkpt><trkpt lat="45.44092059646534" lon="9.129183940044715"><ele>116.0</ele><time>2026-04-08T15:33:11Z</time></trkpt><trkpt lat="45.44097944789659" lon="9.12934145700752"><ele>116.00000000000001</ele><time>2026-04-08T15:33:13Z</time></trkpt><trkpt lat="45.44100568364595" lon="9.129428766315554"><ele>116.0</ele><time>2026-04-08T15:33:14Z</time></trkpt><trkpt lat="45.44103058864152" lon="9.129518645215976"><ele>116.00000000000001</ele><time>2026-04-08T15:33:15Z</time></trkpt><trkpt lat="45.441056809719974" lon="9.129611077587535"><ele>116.00000000000001</ele><time>2026-04-08T15:33:16Z</time></trkpt><trkpt lat="45.441088282000486" lon="9.129709206512901"><ele>116.0</ele><time>2026-04-08T15:33:17Z</time></trkpt><trkpt lat="45.441121304472716" lon="9.129809444446373"><ele>116.00000000000001</ele><time>2026-04-08T15:33:18Z</time></trkpt><trkpt lat="45.4411526514076" lon="9.129907408290403"><ele>116.00000000000001</ele><time>2026-04-08T15:33:19Z</time></trkpt><trkpt lat="45.441182511756026" lon="9.130003519345246"><ele>115.99999999999999</ele><time>2026-04-08T15:33:20Z</time></trkpt><trkpt lat="45.441210475037984" lon="9.130093203036061"><ele>116.0</ele><time>2026-04-08T15:33:21Z</time></trkpt><trkpt lat="45.4412377449472" lon="9.130183976846535"><ele>116.0</ele><time>2026-04-08T15:33:22Z</time></trkpt><trkpt lat="45.441263574263985" lon="9.13027292710805"><ele>116.0</ele><time>2026-04-08T15:33:23Z</time></trkpt><trkpt lat="45.441293751490484" lon="9.130371997557539"><ele>115.99999999999999</ele><time>2026-04-08T15:33:24Z</time></trkpt><trkpt lat="45.441327121516444" lon="9.130477699007008"><ele>116.0</ele><time>2026-04-08T15:33:25Z</time></trkpt><trkpt lat="45.44136312809434" lon="9.130591435333333"><ele>115.99999999999999</ele><time>2026-04-08T15:33:26Z</time></trkpt><trkpt lat="45.4413994833926" lon="9.130707420943194"><ele>116.0</ele><time>2026-04-08T15:33:27Z</time></trkpt><trkpt lat="45.44143561301637" lon="9.13081971403036"><ele>116.0</ele><time>2026-04-08T15:33:28Z</time></trkpt><trkpt lat="45.44146698601853" lon="9.13092297210448"><ele>116.0</ele><time>2026-04-08T15:33:29Z</time></trkpt><trkpt lat="45.44149327617156" lon="9.13101987299025"><ele>115.99999999999999</ele><time>2026-04-08T15:33:30Z</time></trkpt><trkpt lat="45.44152158332919" lon="9.131109593709247"><ele>116.0</ele><time>2026-04-08T15:33:31Z</time></trkpt><trkpt lat="45.44155323204382" lon="9.13119934622131"><ele>115.99999999999999</ele><time>2026-04-08T15:33:32Z</time></trkpt><trkpt lat="45.44158476691265" lon="9.131288159464331"><ele>116.0</ele><time>2026-04-08T15:33:33Z</time></trkpt><trkpt lat="45.441616487860394" lon="9.131381567212909"><ele>116.0</ele><time>2026-04-08T15:33:34Z</time></trkpt><trkpt lat="45.441650120313376" lon="9.131478703340516"><ele>116.0</ele><time>2026-04-08T15:33:35Z</time></trkpt><trkpt lat="45.441686309281216" lon="9.13158151114814"><ele>115.99999999999999</ele><time>2026-04-08T15:33:35.999Z</time></trkpt><trkpt lat="45.4417205609612" lon="9.131686653452862"><ele>116.0</ele><time>2026-04-08T15:33:36.999Z</time></trkpt><trkpt lat="45.441751578747024" lon="9.131787540537905"><ele>115.99999999999999</ele><time>2026-04-08T15:33:37.999Z</time></trkpt><trkpt lat="45.4417795312505" lon="9.131882114508015"><ele>116.0</ele><time>2026-04-08T15:33:38.999Z</time></trkpt><trkpt lat="45.44180677794723" lon="9.131969535402874"><ele>116.0</ele><time>2026-04-08T15:33:39.999Z</time></trkpt><trkpt lat="45.4418364722384" lon="9.132055359505511"><ele>116.0</ele><time>2026-04-08T15:33:40.999Z</time></trkpt><trkpt lat="45.44188682060747" lon="9.132202977625793"><ele>115.99999999999999</ele><time>2026-04-08T15:33:42.999Z</time></trkpt><trkpt lat="45.44191655284905" lon="9.132299530441301"><ele>116.0</ele><time>2026-04-08T15:33:44.999Z</time></trkpt><trkpt lat="45.441943753808665" lon="9.13239268433014"><ele>115.99999999999999</ele><time>2026-04-08T15:33:46.999Z</time></trkpt><trkpt lat="45.441992430267284" lon="9.132521851488002"><ele>116.0</ele><time>2026-04-08T15:33:48.999Z</time></trkpt><trkpt lat="45.442030775252235" lon="9.132613597231257"><ele>116.0</ele><time>2026-04-08T15:33:49.999Z</time></trkpt><trkpt lat="45.44207160077562" lon="9.132712371401942"><ele>116.0</ele><time>2026-04-08T15:33:50.999Z</time></trkpt><trkpt lat="45.44210855110416" lon="9.13281726044413"><ele>115.99999999999999</ele><time>2026-04-08T15:33:51.999Z</time></trkpt><trkpt lat="45.44214436902073" lon="9.132921400093746"><ele>116.0</ele><time>2026-04-08T15:33:52.999Z</time></trkpt><trkpt lat="45.44218248248434" lon="9.133029531614017"><ele>115.99999999999999</ele><time>2026-04-08T15:33:53.999Z</time></trkpt><trkpt lat="45.44222150764088" lon="9.133136115035523"><ele>116.0</ele><time>2026-04-08T15:33:54.999Z</time></trkpt><trkpt lat="45.44225890211244" lon="9.13324264168677"><ele>116.0</ele><time>2026-04-08T15:33:55.999Z</time></trkpt><trkpt lat="45.4422931651182" lon="9.133342340335865"><ele>116.0</ele><time>2026-04-08T15:33:56.999Z</time></trkpt><trkpt lat="45.44232686755238" lon="9.133435096988698"><ele>115.99999999999999</ele><time>2026-04-08T15:33:57.999Z</time></trkpt><trkpt lat="45.44236200738636" lon="9.133525406365811"><ele>116.0</ele><time>2026-04-08T15:33:58.999Z</time></trkpt><trkpt lat="45.44239739563303" lon="9.133616531801975"><ele>115.66666666666666</ele><time>2026-04-08T15:33:59.999Z</time></trkpt><trkpt lat="45.442431244878236" lon="9.133703024291984"><ele>115.33333333333333</ele><time>2026-04-08T15:34:00.999Z</time></trkpt><trkpt lat="45.44246111234227" lon="9.133782118732979"><ele>115.0</ele><time>2026-04-08T15:34:01.999Z</time></trkpt><trkpt lat="45.4425114732801" lon="9.133891510027318"><ele>114.66666666666666</ele><time>2026-04-08T15:34:03.999Z</time></trkpt><trkpt lat="45.44254422057352" lon="9.134002789989859"><ele>114.33333333333333</ele><time>2026-04-08T15:34:15.999Z</time></trkpt><trkpt lat="45.44258210357101" lon="9.134104184048269"><ele>114.0</ele><time>2026-04-08T15:34:19.999Z</time></trkpt><trkpt lat="45.44261739080669" lon="9.134187588824966"><ele>114.0</ele><time>2026-04-08T15:34:24.999Z</time></trkpt><trkpt lat="45.44266329336606" lon="9.134305398960636"><ele>114.0</ele><time>2026-04-08T15:34:26.999Z</time></trkpt><trkpt lat="45.44270121517285" lon="9.134409296577159"><ele>114.0</ele><time>2026-04-08T15:34:27.999Z</time></trkpt><trkpt lat="45.442746529729064" lon="9.134527375195772"><ele>114.0</ele><time>2026-04-08T15:34:28.999Z</time></trkpt><trkpt lat="45.44279297369858" lon="9.134650434457779"><ele>114.0</ele><time>2026-04-08T15:34:29.999Z</time></trkpt><trkpt lat="45.442839975287384" lon="9.134782849537647"><ele>114.2</ele><time>2026-04-08T15:34:30.999Z</time></trkpt><trkpt lat="45.442889231897624" lon="9.134912576268302"><ele>114.4</ele><time>2026-04-08T15:34:31.999Z</time></trkpt><trkpt lat="45.44293790361344" lon="9.135043402638425"><ele>114.6</ele><time>2026-04-08T15:34:32.999Z</time></trkpt><trkpt lat="45.44298753726892" lon="9.135177312302382"><ele>114.8</ele><time>2026-04-08T15:34:33.999Z</time></trkpt><trkpt lat="45.44304046431507" lon="9.135315294259092"><ele>115.0</ele><time>2026-04-08T15:34:34.999Z</time></trkpt><trkpt lat="45.44309652596398" lon="9.135457294042928"><ele>115.0</ele><time>2026-04-08T15:34:35.999Z</time></trkpt><trkpt lat="45.44315335234127" lon="9.135602658101742"><ele>115.0</ele><time>2026-04-08T15:34:36.999Z</time></trkpt><trkpt lat="45.443207758508194" lon="9.135754358990575"><ele>115.0</ele><time>2026-04-08T15:34:37.999Z</time></trkpt><trkpt lat="45.44326482191812" lon="9.135910517662795"><ele>115.0</ele><time>2026-04-08T15:34:38.999Z</time></trkpt><trkpt lat="45.44332253533006" lon="9.136064179127601"><ele>115.0</ele><time>2026-04-08T15:34:39.999Z</time></trkpt><trkpt lat="45.44338292990814" lon="9.136223347743039"><ele>115.0</ele><time>2026-04-08T15:34:40.999Z</time></trkpt><trkpt lat="45.44344918466866" lon="9.136393773008654"><ele>115.0</ele><time>2026-04-08T15:34:41.999Z</time></trkpt><trkpt lat="45.443513273164584" lon="9.136573862966653"><ele>115.0</ele><time>2026-04-08T15:34:42.999Z</time></trkpt><trkpt lat="45.44357849766886" lon="9.136762440569788"><ele>115.0</ele><time>2026-04-08T15:34:43.999Z</time></trkpt><trkpt lat="45.443646202510614" lon="9.136962719976909"><ele>115.0</ele><time>2026-04-08T15:34:44.999Z</time></trkpt><trkpt lat="45.44371343478957" lon="9.137174398031107"><ele>115.0</ele><time>2026-04-08T15:34:45.999Z</time></trkpt><trkpt lat="45.44377114965892" lon="9.137388452879165"><ele>115.0</ele><time>2026-04-08T15:34:47Z</time></trkpt><trkpt lat="45.44381841884186" lon="9.137614104362527"><ele>115.0</ele><time>2026-04-08T15:34:48Z</time></trkpt><trkpt lat="45.44386203170351" lon="9.137836683990345"><ele>115.0</ele><time>2026-04-08T15:34:49Z</time></trkpt><trkpt lat="45.44389956496422" lon="9.138056726239522"><ele>114.6</ele><time>2026-04-08T15:34:50Z</time></trkpt><trkpt lat="45.4439300035996" lon="9.138238897623948"><ele>114.2</ele><time>2026-04-08T15:34:51Z</time></trkpt><trkpt lat="45.44394987585819" lon="9.138374244025396"><ele>113.80000000000001</ele><time>2026-04-08T15:34:52Z</time></trkpt><trkpt lat="45.44396164195564" lon="9.138472336627704"><ele>113.4</ele><time>2026-04-08T15:34:53Z</time></trkpt><trkpt lat="45.44397866488427" lon="9.138598965240043"><ele>113.0</ele><time>2026-04-08T15:34:55Z</time></trkpt><trkpt lat="45.44400082062163" lon="9.13870362637793"><ele>112.99999999999999</ele><time>2026-04-08T15:34:57Z</time></trkpt><trkpt lat="45.44402331593105" lon="9.138797972385795"><ele>113.0</ele><time>2026-04-08T15:35:25Z</time></trkpt><trkpt lat="45.44404427205762" lon="9.138924831934105"><ele>113.0</ele><time>2026-04-08T15:35:27Z</time></trkpt><trkpt lat="45.44406820901126" lon="9.139030977841175"><ele>113.0</ele><time>2026-04-08T15:35:28Z</time></trkpt><trkpt lat="45.444097733795196" lon="9.139157526324073"><ele>112.99999999999999</ele><time>2026-04-08T15:35:29Z</time></trkpt><trkpt lat="45.44413232127132" lon="9.139306823553914"><ele>113.0</ele><time>2026-04-08T15:35:30Z</time></trkpt><trkpt lat="45.44417092545617" lon="9.13946590508503"><ele>113.0</ele><time>2026-04-08T15:35:31Z</time></trkpt><trkpt lat="45.44421425000627" lon="9.139627887325927"><ele>113.0</ele><time>2026-04-08T15:35:32Z</time></trkpt><trkpt lat="45.44423723562006" lon="9.139803781245142"><ele>113.0</ele><time>2026-04-08T15:35:33Z</time></trkpt><trkpt lat="45.444276135268865" lon="9.139989268213538"><ele>113.0</ele><time>2026-04-08T15:35:34Z</time></trkpt><trkpt lat="45.44431749520653" lon="9.140182707564797"><ele>113.33333333333333</ele><time>2026-04-08T15:35:35Z</time></trkpt><trkpt lat="45.44436573290819" lon="9.140405437158893"><ele>113.66666666666666</ele><time>2026-04-08T15:35:36Z</time></trkpt><trkpt lat="45.44442103680446" lon="9.140662196251363"><ele>114.0</ele><time>2026-04-08T15:35:37Z</time></trkpt><trkpt lat="45.444475715326014" lon="9.140922495299538"><ele>114.66666666666666</ele><time>2026-04-08T15:35:38Z</time></trkpt><trkpt lat="45.4445304619522" lon="9.141184165481786"><ele>115.33333333333333</ele><time>2026-04-08T15:35:39Z</time></trkpt><trkpt lat="45.444581170558834" lon="9.141426535613087"><ele>116.0</ele><time>2026-04-08T15:35:40Z</time></trkpt><trkpt lat="45.444626325416024" lon="9.141642360698654"><ele>116.19999999999999</ele><time>2026-04-08T15:35:40.999Z</time></trkpt><trkpt lat="45.444664489782475" lon="9.14182477313952"><ele>116.39999999999999</ele><time>2026-04-08T15:35:41.999Z</time></trkpt><trkpt lat="45.44469419729122" lon="9.141966765044538"><ele>116.6</ele><time>2026-04-08T15:35:42.999Z</time></trkpt><trkpt lat="45.444719157668096" lon="9.142085244919969"><ele>116.8</ele><time>2026-04-08T15:35:43.999Z</time></trkpt><trkpt lat="45.44475014015747" lon="9.142179805266966"><ele>117.0</ele><time>2026-04-08T15:35:44.999Z</time></trkpt><trkpt lat="45.44476800084593" lon="9.1422856403818"><ele>117.33333333333333</ele><time>2026-04-08T15:35:45.999Z</time></trkpt><trkpt lat="45.44479528867448" lon="9.142407159247885"><ele>117.66666666666666</ele><time>2026-04-08T15:35:46.999Z</time></trkpt><trkpt lat="45.44482352109716" lon="9.142513536713924"><ele>118.0</ele><time>2026-04-08T15:35:47.999Z</time></trkpt><trkpt lat="45.44482850015534" lon="9.142603514793956"><ele>118.33333333333333</ele><time>2026-04-08T15:35:48.999Z</time></trkpt><trkpt lat="45.444856733470985" lon="9.142738006396156"><ele>118.66666666666666</ele><time>2026-04-08T15:35:50.999Z</time></trkpt><trkpt lat="45.44488541681996" lon="9.142874641686578"><ele>119.0</ele><time>2026-04-08T15:35:52.999Z</time></trkpt><trkpt lat="45.44491555386024" lon="9.14301820171996"><ele>119.0</ele><time>2026-04-08T15:35:54.999Z</time></trkpt><trkpt lat="45.444956474242815" lon="9.143155733889865"><ele>119.0</ele><time>2026-04-08T15:35:56.999Z</time></trkpt><trkpt lat="45.44498610824779" lon="9.143278001382036"><ele>119.0</ele><time>2026-04-08T15:35:58.999Z</time></trkpt><trkpt lat="45.445008730950974" lon="9.143402853989171"><ele>119.0</ele><time>2026-04-08T15:36:00.999Z</time></trkpt><trkpt lat="45.44503504380883" lon="9.143523071940708"><ele>119.0</ele><time>2026-04-08T15:36:02.999Z</time></trkpt><trkpt lat="45.445058277724314" lon="9.143637214726915"><ele>118.99999999999999</ele><time>2026-04-08T15:36:04.999Z</time></trkpt><trkpt lat="45.44508083717243" lon="9.14375106963336"><ele>119.0</ele><time>2026-04-08T15:36:06.999Z</time></trkpt><trkpt lat="45.445096060150554" lon="9.14387805694415"><ele>119.0</ele><time>2026-04-08T15:36:08.999Z</time></trkpt><trkpt lat="45.445118211353794" lon="9.143983575869452"><ele>119.0</ele><time>2026-04-08T15:36:09.999Z</time></trkpt><trkpt lat="45.44513938658622" lon="9.144084445732682"><ele>118.99999999999999</ele><time>2026-04-08T15:36:10.999Z</time></trkpt><trkpt lat="45.44516010468288" lon="9.14418313790833"><ele>119.0</ele><time>2026-04-08T15:36:12.999Z</time></trkpt><trkpt lat="45.44518370120801" lon="9.14432493786104"><ele>119.0</ele><time>2026-04-08T15:36:15.999Z</time></trkpt><trkpt lat="45.445217065745645" lon="9.144432603363063"><ele>119.0</ele><time>2026-04-08T15:36:16.999Z</time></trkpt><trkpt lat="45.44524967896797" lon="9.144579261503292"><ele>119.0</ele><time>2026-04-08T15:36:17.999Z</time></trkpt><trkpt lat="45.44528693657537" lon="9.14475913174454"><ele>119.0</ele><time>2026-04-08T15:36:18.999Z</time></trkpt><trkpt lat="45.44532391845906" lon="9.144943056461404"><ele>118.75</ele><time>2026-04-08T15:36:19.999Z</time></trkpt><trkpt lat="45.44535877731678" lon="9.145123626552692"><ele>118.5</ele><time>2026-04-08T15:36:20.999Z</time></trkpt><trkpt lat="45.445392711816154" lon="9.145292537797129"><ele>118.25</ele><time>2026-04-08T15:36:21.999Z</time></trkpt><trkpt lat="45.44542440502858" lon="9.145443448188304"><ele>118.0</ele><time>2026-04-08T15:36:22.999Z</time></trkpt><trkpt lat="45.445456925632875" lon="9.145573365874924"><ele>117.50000000000001</ele><time>2026-04-08T15:36:23.999Z</time></trkpt><trkpt lat="45.44547812236459" lon="9.145684315337085"><ele>117.0</ele><time>2026-04-08T15:36:24.999Z</time></trkpt><trkpt lat="45.44550062402077" lon="9.14577924641963"><ele>116.5</ele><time>2026-04-08T15:36:25.999Z</time></trkpt><trkpt lat="45.44551967463456" lon="9.145866669504251"><ele>116.0</ele><time>2026-04-08T15:36:26.999Z</time></trkpt><trkpt lat="45.44555164969064" lon="9.146012960085391"><ele>115.50000000000001</ele><time>2026-04-08T15:36:28.999Z</time></trkpt><trkpt lat="45.4455785115564" lon="9.146154132616587"><ele>115.0</ele><time>2026-04-08T15:36:30.999Z</time></trkpt><trkpt lat="45.4456164251145" lon="9.146317009274222"><ele>115.00000000000001</ele><time>2026-04-08T15:36:32.999Z</time></trkpt><trkpt lat="45.44563971474962" lon="9.146411022933608"><ele>115.0</ele><time>2026-04-08T15:36:33.999Z</time></trkpt><trkpt lat="45.44565335142586" lon="9.146505994977867"><ele>115.0</ele><time>2026-04-08T15:36:34.999Z</time></trkpt><trkpt lat="45.44567797750146" lon="9.14665778933064"><ele>115.0</ele><time>2026-04-08T15:36:36.999Z</time></trkpt><trkpt lat="45.44570550280205" lon="9.146788678459641"><ele>115.00000000000001</ele><time>2026-04-08T15:36:38.999Z</time></trkpt><trkpt lat="45.44572452835382" lon="9.14687914921831"><ele>115.0</ele><time>2026-04-08T15:36:40.999Z</time></trkpt><trkpt lat="45.4457501364173" lon="9.147000002783589"><ele>115.0</ele><time>2026-04-08T15:36:42.999Z</time></trkpt><trkpt lat="45.445772059537354" lon="9.147103398288861"><ele>115.0</ele><time>2026-04-08T15:36:43.999Z</time></trkpt><trkpt lat="45.445800915276486" lon="9.147239489665157"><ele>115.0</ele><time>2026-04-08T15:36:44.999Z</time></trkpt><trkpt lat="45.445834368446555" lon="9.147397263842706"><ele>115.0</ele><time>2026-04-08T15:36:45.999Z</time></trkpt><trkpt lat="45.445872723905254" lon="9.14758060542328"><ele>115.0</ele><time>2026-04-08T15:36:46.999Z</time></trkpt><trkpt lat="45.445912936692025" lon="9.147772323193951"><ele>114.75</ele><time>2026-04-08T15:36:47.999Z</time></trkpt><trkpt lat="45.445960366589134" lon="9.14797053707655"><ele>114.5</ele><time>2026-04-08T15:36:48.999Z</time></trkpt><trkpt lat="45.446000236569326" lon="9.148180843682608"><ele>114.25</ele><time>2026-04-08T15:36:49.999Z</time></trkpt><trkpt lat="45.44604718476371" lon="9.148381402253895"><ele>114.0</ele><time>2026-04-08T15:36:50.999Z</time></trkpt><trkpt lat="45.44609117685691" lon="9.148566871159565"><ele>114.6</ele><time>2026-04-08T15:36:51.999Z</time></trkpt><trkpt lat="45.44612679358406" lon="9.148729618976732"><ele>115.2</ele><time>2026-04-08T15:36:53Z</time></trkpt><trkpt lat="45.44615835848742" lon="9.148867586515225"><ele>115.79999999999998</ele><time>2026-04-08T15:36:54Z</time></trkpt><trkpt lat="45.44618347611546" lon="9.148981054861954"><ele>116.39999999999999</ele><time>2026-04-08T15:36:55Z</time></trkpt><trkpt lat="45.446203195478496" lon="9.149072652718974"><ele>117.0</ele><time>2026-04-08T15:36:56Z</time></trkpt><trkpt lat="45.44623277213294" lon="9.149199134875264"><ele>117.19999999999999</ele><time>2026-04-08T15:36:58Z</time></trkpt><trkpt lat="45.44625744607494" lon="9.149300663158739"><ele>117.39999999999999</ele><time>2026-04-08T15:37:01Z</time></trkpt><trkpt lat="45.44628076196535" lon="9.149419122116152"><ele>117.60000000000001</ele><time>2026-04-08T15:37:05Z</time></trkpt><trkpt lat="45.446311829169" lon="9.149532391690002"><ele>117.80000000000001</ele><time>2026-04-08T15:37:07Z</time></trkpt><trkpt lat="45.44634166848528" lon="9.149681643361646"><ele>118.0</ele><time>2026-04-08T15:37:09Z</time></trkpt><trkpt lat="45.44637414925565" lon="9.149844211929794"><ele>117.83333333333334</ele><time>2026-04-08T15:37:11Z</time></trkpt><trkpt lat="45.44640934097907" lon="9.150004537635727"><ele>117.66666666666667</ele><time>2026-04-08T15:37:13Z</time></trkpt><trkpt lat="45.44642787478874" lon="9.150098696058079"><ele>117.5</ele><time>2026-04-08T15:37:14Z</time></trkpt><trkpt lat="45.446449168654404" lon="9.15019998795647"><ele>117.33333333333334</ele><time>2026-04-08T15:37:15Z</time></trkpt><trkpt lat="45.446467387113714" lon="9.15029925957278"><ele>117.16666666666667</ele><time>2026-04-08T15:37:16Z</time></trkpt><trkpt lat="45.44650034803685" lon="9.150411557218494"><ele>117.0</ele><time>2026-04-08T15:37:17Z</time></trkpt><trkpt lat="45.446516961023676" lon="9.150557796825153"><ele>117.0</ele><time>2026-04-08T15:37:18Z</time></trkpt><trkpt lat="45.446554137393285" lon="9.150738967512426"><ele>117.0</ele><time>2026-04-08T15:37:19Z</time></trkpt><trkpt lat="45.44660814737861" lon="9.150928054148668"><ele>117.0</ele><time>2026-04-08T15:37:20Z</time></trkpt><trkpt lat="45.44663796694949" lon="9.15113842928725"><ele>117.0</ele><time>2026-04-08T15:37:21Z</time></trkpt><trkpt lat="45.446673898251994" lon="9.151342034222369"><ele>116.66666666666666</ele><time>2026-04-08T15:37:22Z</time></trkpt><trkpt lat="45.446727747752526" lon="9.151576893979854"><ele>116.33333333333333</ele><time>2026-04-08T15:37:23Z</time></trkpt><trkpt lat="45.446779331883626" lon="9.151824554064948"><ele>116.0</ele><time>2026-04-08T15:37:24Z</time></trkpt><trkpt lat="45.44682693900023" lon="9.152058911773183"><ele>116.0</ele><time>2026-04-08T15:37:25Z</time></trkpt><trkpt lat="45.4468703793776" lon="9.152264972107638"><ele>116.0</ele><time>2026-04-08T15:37:26Z</time></trkpt><trkpt lat="45.44691004217281" lon="9.152459385114952"><ele>116.0</ele><time>2026-04-08T15:37:27Z</time></trkpt><trkpt lat="45.44694951787675" lon="9.152644878583258"><ele>116.0</ele><time>2026-04-08T15:37:28Z</time></trkpt><trkpt lat="45.4469825596819" lon="9.15281676205405"><ele>116.5</ele><time>2026-04-08T15:37:29Z</time></trkpt><trkpt lat="45.447015135726716" lon="9.152976939487754"><ele>117.0</ele><time>2026-04-08T15:37:30Z</time></trkpt><trkpt lat="45.447046193787834" lon="9.153138052467158"><ele>117.5</ele><time>2026-04-08T15:37:31Z</time></trkpt><trkpt lat="45.44707777068752" lon="9.153301756456322"><ele>118.0</ele><time>2026-04-08T15:37:32Z</time></trkpt><trkpt lat="45.44711616142576" lon="9.153485432849061"><ele>118.0</ele><time>2026-04-08T15:37:33Z</time></trkpt><trkpt lat="45.44716005136338" lon="9.153656495192832"><ele>118.00000000000001</ele><time>2026-04-08T15:37:34Z</time></trkpt><trkpt lat="45.44719137412952" lon="9.153812355250025"><ele>118.00000000000001</ele><time>2026-04-08T15:37:35Z</time></trkpt><trkpt lat="45.44721901157017" lon="9.153959058105105"><ele>118.0</ele><time>2026-04-08T15:37:36Z</time></trkpt><trkpt lat="45.44724794036843" lon="9.154087690036148"><ele>118.0</ele><time>2026-04-08T15:37:37Z</time></trkpt><trkpt lat="45.447279589454894" lon="9.15423060099292"><ele>118.0</ele><time>2026-04-08T15:37:38Z</time></trkpt><trkpt lat="45.44731207181525" lon="9.154374952263712"><ele>118.00000000000001</ele><time>2026-04-08T15:37:39Z</time></trkpt><trkpt lat="45.44734161086106" lon="9.154514038571568"><ele>118.00000000000001</ele><time>2026-04-08T15:37:40Z</time></trkpt><trkpt lat="45.44738995054438" lon="9.154643103394333"><ele>118.0</ele><time>2026-04-08T15:37:41Z</time></trkpt><trkpt lat="45.447414215963704" lon="9.154782255171508"><ele>118.0</ele><time>2026-04-08T15:37:42Z</time></trkpt><trkpt lat="45.44743652188947" lon="9.154920853474076"><ele>118.4</ele><time>2026-04-08T15:37:43Z</time></trkpt><trkpt lat="45.44746043259075" lon="9.15505011646157"><ele>118.80000000000001</ele><time>2026-04-08T15:37:44Z</time></trkpt><trkpt lat="45.447493716852065" lon="9.155185602761938"><ele>119.2</ele><time>2026-04-08T15:37:45Z</time></trkpt><trkpt lat="45.44752159839389" lon="9.155311994809356"><ele>119.6</ele><time>2026-04-08T15:37:46Z</time></trkpt><trkpt lat="45.4475498893376" lon="9.155439314714856"><ele>120.0</ele><time>2026-04-08T15:37:47Z</time></trkpt><trkpt lat="45.44757858547465" lon="9.155591801513465"><ele>119.6</ele><time>2026-04-08T15:37:48Z</time></trkpt><trkpt lat="45.44760376602836" lon="9.155716364834198"><ele>119.2</ele><time>2026-04-08T15:37:49Z</time></trkpt><trkpt lat="45.44762678835495" lon="9.155829941543741"><ele>118.80000000000001</ele><time>2026-04-08T15:37:50Z</time></trkpt><trkpt lat="45.44765172581228" lon="9.155949056035986"><ele>118.4</ele><time>2026-04-08T15:37:51Z</time></trkpt><trkpt lat="45.44767791695619" lon="9.156073895751915"><ele>118.0</ele><time>2026-04-08T15:37:52Z</time></trkpt><trkpt lat="45.44770857662945" lon="9.156223728844942"><ele>118.0</ele><time>2026-04-08T15:37:53Z</time></trkpt><trkpt lat="45.447737406162915" lon="9.156368503350725"><ele>118.00000000000001</ele><time>2026-04-08T15:37:54Z</time></trkpt><trkpt lat="45.44776373657105" lon="9.15648476665167"><ele>118.00000000000001</ele><time>2026-04-08T15:37:55Z</time></trkpt><trkpt lat="45.447789408671454" lon="9.156604455899481"><ele>118.0</ele><time>2026-04-08T15:37:56Z</time></trkpt><trkpt lat="45.44781511337011" lon="9.156715261172012"><ele>118.0</ele><time>2026-04-08T15:37:57Z</time></trkpt><trkpt lat="45.44784354432267" lon="9.156853149686789"><ele>118.0</ele><time>2026-04-08T15:37:58Z</time></trkpt><trkpt lat="45.447874690243154" lon="9.157000576741524"><ele>118.00000000000001</ele><time>2026-04-08T15:37:59Z</time></trkpt><trkpt lat="45.4479103464791" lon="9.157151427376677"><ele>118.00000000000001</ele><time>2026-04-08T15:37:59.999Z</time></trkpt><trkpt lat="45.44794342604994" lon="9.15729815983826"><ele>118.0</ele><time>2026-04-08T15:38:00.999Z</time></trkpt><trkpt lat="45.44797750416479" lon="9.157451463568925"><ele>118.0</ele><time>2026-04-08T15:38:01.999Z</time></trkpt><trkpt lat="45.44800968837362" lon="9.157588292078053"><ele>118.00000000000001</ele><time>2026-04-08T15:38:02.999Z</time></trkpt><trkpt lat="45.4480391075538" lon="9.157716977887375"><ele>118.0</ele><time>2026-04-08T15:38:03.999Z</time></trkpt><trkpt lat="45.44807810074311" lon="9.157847784008764"><ele>118.0</ele><time>2026-04-08T15:38:04.999Z</time></trkpt><trkpt lat="45.44810716574494" lon="9.157934783575818"><ele>118.0</ele><time>2026-04-08T15:38:05.999Z</time></trkpt><trkpt lat="45.44811773396923" lon="9.15803558294964"><ele>118.00000000000001</ele><time>2026-04-08T15:38:06.999Z</time></trkpt><trkpt lat="45.448129749148585" lon="9.158155424294847"><ele>118.0</ele><time>2026-04-08T15:38:07.999Z</time></trkpt><trkpt lat="45.44815239095518" lon="9.158289617298495"><ele>117.80000000000001</ele><time>2026-04-08T15:38:08.999Z</time></trkpt><trkpt lat="45.44819117756634" lon="9.158425952900695"><ele>117.60000000000001</ele><time>2026-04-08T15:38:09.999Z</time></trkpt><trkpt lat="45.448217195178216" lon="9.158573653802101"><ele>117.39999999999999</ele><time>2026-04-08T15:38:10.999Z</time></trkpt><trkpt lat="45.4482429012732" lon="9.158716448179721"><ele>117.19999999999999</ele><time>2026-04-08T15:38:11.999Z</time></trkpt><trkpt lat="45.448269899098676" lon="9.15884232883413"><ele>117.0</ele><time>2026-04-08T15:38:12.999Z</time></trkpt><trkpt lat="45.44829033447036" lon="9.158960558482093"><ele>117.0</ele><time>2026-04-08T15:38:13.999Z</time></trkpt><trkpt lat="45.448319208011945" lon="9.159095642346678"><ele>116.99999999999999</ele><time>2026-04-08T15:38:14.999Z</time></trkpt><trkpt lat="45.448345377065756" lon="9.159236514291289"><ele>116.99999999999999</ele><time>2026-04-08T15:38:15.999Z</time></trkpt><trkpt lat="45.44837669504387" lon="9.159371717439827"><ele>117.0</ele><time>2026-04-08T15:38:16.999Z</time></trkpt><trkpt lat="45.44840255683804" lon="9.159488477352834"><ele>117.0</ele><time>2026-04-08T15:38:17.999Z</time></trkpt><trkpt lat="45.44842729490039" lon="9.159595479414493"><ele>117.0</ele><time>2026-04-08T15:38:18.999Z</time></trkpt><trkpt lat="45.448446793968316" lon="9.159701710604574"><ele>117.0</ele><time>2026-04-08T15:38:19.999Z</time></trkpt><trkpt lat="45.44846948280608" lon="9.159811865117447"><ele>117.0</ele><time>2026-04-08T15:38:20.999Z</time></trkpt><trkpt lat="45.448491369385174" lon="9.159926900325466"><ele>117.0</ele><time>2026-04-08T15:38:21.999Z</time></trkpt><trkpt lat="45.448515139167725" lon="9.160044009285327"><ele>117.0</ele><time>2026-04-08T15:38:22.999Z</time></trkpt><trkpt lat="45.44854086651571" lon="9.160160892685026"><ele>117.0</ele><time>2026-04-08T15:38:23.999Z</time></trkpt><trkpt lat="45.448568999588865" lon="9.160295678824573"><ele>117.0</ele><time>2026-04-08T15:38:24.999Z</time></trkpt><trkpt lat="45.44859674360887" lon="9.160415820250861"><ele>116.99999999999999</ele><time>2026-04-08T15:38:25.999Z</time></trkpt><trkpt lat="45.44862354639232" lon="9.160559446328634"><ele>116.99999999999999</ele><time>2026-04-08T15:38:26.999Z</time></trkpt><trkpt lat="45.44865201854403" lon="9.160698051540065"><ele>117.0</ele><time>2026-04-08T15:38:27.999Z</time></trkpt><trkpt lat="45.448681801513516" lon="9.160834032305765"><ele>117.0</ele><time>2026-04-08T15:38:28.999Z</time></trkpt><trkpt lat="45.44871061104503" lon="9.160982619027417"><ele>117.19999999999999</ele><time>2026-04-08T15:38:29.999Z</time></trkpt><trkpt lat="45.44874064336959" lon="9.161123666654042"><ele>117.39999999999999</ele><time>2026-04-08T15:38:30.999Z</time></trkpt><trkpt lat="45.44876893276293" lon="9.161270521227376"><ele>117.60000000000001</ele><time>2026-04-08T15:38:31.999Z</time></trkpt><trkpt lat="45.448797817734395" lon="9.161413283848256"><ele>117.80000000000001</ele><time>2026-04-08T15:38:32.999Z</time></trkpt><trkpt lat="45.4488240874767" lon="9.161538068401603"><ele>118.0</ele><time>2026-04-08T15:38:33.999Z</time></trkpt><trkpt lat="45.44884826769382" lon="9.161656860584722"><ele>118.00000000000001</ele><time>2026-04-08T15:38:34.999Z</time></trkpt><trkpt lat="45.44887638629172" lon="9.161767874713295"><ele>118.0</ele><time>2026-04-08T15:38:35.999Z</time></trkpt><trkpt lat="45.44889842212475" lon="9.161890554790485"><ele>118.0</ele><time>2026-04-08T15:38:36.999Z</time></trkpt><trkpt lat="45.44892341266433" lon="9.162011967921885"><ele>118.0</ele><time>2026-04-08T15:38:37.999Z</time></trkpt><trkpt lat="45.44894579131169" lon="9.162128579897168"><ele>118.00000000000001</ele><time>2026-04-08T15:38:38.999Z</time></trkpt><trkpt lat="45.44896970972978" lon="9.162232417986834"><ele>118.0</ele><time>2026-04-08T15:38:39.999Z</time></trkpt><trkpt lat="45.44899331286285" lon="9.162349999691354"><ele>118.16666666666667</ele><time>2026-04-08T15:38:40.999Z</time></trkpt><trkpt lat="45.4490192231592" lon="9.16247727286468"><ele>118.33333333333334</ele><time>2026-04-08T15:38:41.999Z</time></trkpt><trkpt lat="45.4490455426407" lon="9.162611019188633"><ele>118.5</ele><time>2026-04-08T15:38:42.999Z</time></trkpt><trkpt lat="45.449072143367346" lon="9.16273621751722"><ele>118.66666666666666</ele><time>2026-04-08T15:38:43.999Z</time></trkpt><trkpt lat="45.44909337596954" lon="9.162841596626869"><ele>118.83333333333333</ele><time>2026-04-08T15:38:44.999Z</time></trkpt><trkpt lat="45.4491122608648" lon="9.162934792554951"><ele>119.0</ele><time>2026-04-08T15:38:45.999Z</time></trkpt><trkpt lat="45.4491321541947" lon="9.163028220348432"><ele>118.99999999999999</ele><time>2026-04-08T15:38:46.999Z</time></trkpt><trkpt lat="45.44914951903781" lon="9.16311628848181"><ele>119.0</ele><time>2026-04-08T15:38:47.999Z</time></trkpt><trkpt lat="45.44916954907341" lon="9.163213535047358"><ele>119.0</ele><time>2026-04-08T15:38:48.999Z</time></trkpt><trkpt lat="45.449189847853795" lon="9.163312677085509"><ele>119.0</ele><time>2026-04-08T15:38:49.999Z</time></trkpt><trkpt lat="45.44920994370479" lon="9.163417173720282"><ele>118.99999999999999</ele><time>2026-04-08T15:38:50.999Z</time></trkpt><trkpt lat="45.449239111981555" lon="9.163535740210596"><ele>119.0</ele><time>2026-04-08T15:38:51.999Z</time></trkpt><trkpt lat="45.449267666187524" lon="9.163647122195714"><ele>119.16666666666666</ele><time>2026-04-08T15:38:52.999Z</time></trkpt><trkpt lat="45.44929041860972" lon="9.163778796436489"><ele>119.33333333333333</ele><time>2026-04-08T15:38:53.999Z</time></trkpt><trkpt lat="45.44931855583761" lon="9.163891545853485"><ele>119.5</ele><time>2026-04-08T15:38:54.999Z</time></trkpt><trkpt lat="45.449339951943884" lon="9.164002044733373"><ele>119.66666666666666</ele><time>2026-04-08T15:38:55.999Z</time></trkpt><trkpt lat="45.449367937557135" lon="9.164126657026316"><ele>119.83333333333333</ele><time>2026-04-08T15:38:56.999Z</time></trkpt><trkpt lat="45.44939607246628" lon="9.164252843509434"><ele>120.0</ele><time>2026-04-08T15:38:58Z</time></trkpt><trkpt lat="45.44942034334321" lon="9.164373619559582"><ele>120.0</ele><time>2026-04-08T15:38:59Z</time></trkpt><trkpt lat="45.44945245442485" lon="9.164510675753034"><ele>120.0</ele><time>2026-04-08T15:39:00Z</time></trkpt><trkpt lat="45.44947839035198" lon="9.164640876863896"><ele>120.0</ele><time>2026-04-08T15:39:01Z</time></trkpt><trkpt lat="45.44950507807872" lon="9.164759119028288"><ele>120.0</ele><time>2026-04-08T15:39:02Z</time></trkpt><trkpt lat="45.44952931175652" lon="9.1648756118325"><ele>120.0</ele><time>2026-04-08T15:39:03Z</time></trkpt><trkpt lat="45.4495528548554" lon="9.164988023712295"><ele>119.6</ele><time>2026-04-08T15:39:04Z</time></trkpt><trkpt lat="45.44957569669645" lon="9.165097171307066"><ele>119.2</ele><time>2026-04-08T15:39:05Z</time></trkpt><trkpt lat="45.449600525738205" lon="9.165214357813"><ele>118.80000000000001</ele><time>2026-04-08T15:39:06Z</time></trkpt><trkpt lat="45.44962601493116" lon="9.165331691129875"><ele>118.4</ele><time>2026-04-08T15:39:07Z</time></trkpt><trkpt lat="45.44965296454849" lon="9.16546470672229"><ele>118.0</ele><time>2026-04-08T15:39:08Z</time></trkpt><trkpt lat="45.44968338591851" lon="9.165604373728534"><ele>118.0</ele><time>2026-04-08T15:39:09Z</time></trkpt><trkpt lat="45.44971357166948" lon="9.165750544720444"><ele>118.0</ele><time>2026-04-08T15:39:10Z</time></trkpt><trkpt lat="45.449749674270294" lon="9.16590872368044"><ele>118.0</ele><time>2026-04-08T15:39:11Z</time></trkpt><trkpt lat="45.449786177735206" lon="9.16607386536304"><ele>118.0</ele><time>2026-04-08T15:39:12Z</time></trkpt><trkpt lat="45.449820246596005" lon="9.166237460679273"><ele>118.0</ele><time>2026-04-08T15:39:13Z</time></trkpt><trkpt lat="45.449855874592174" lon="9.166389474825769"><ele>118.00000000000001</ele><time>2026-04-08T15:39:14Z</time></trkpt><trkpt lat="45.449886473233065" lon="9.166529855894513"><ele>118.00000000000001</ele><time>2026-04-08T15:39:15Z</time></trkpt><trkpt lat="45.449915910629116" lon="9.166670017860488"><ele>118.0</ele><time>2026-04-08T15:39:16Z</time></trkpt><trkpt lat="45.44994731417234" lon="9.166813456481652"><ele>118.0</ele><time>2026-04-08T15:39:17Z</time></trkpt><trkpt lat="45.449975570382996" lon="9.166948539749276"><ele>118.00000000000001</ele><time>2026-04-08T15:39:18Z</time></trkpt><trkpt lat="45.4500030408731" lon="9.167089743139071"><ele>118.0</ele><time>2026-04-08T15:39:19Z</time></trkpt><trkpt lat="45.450030987211434" lon="9.16721272457254"><ele>118.0</ele><time>2026-04-08T15:39:20Z</time></trkpt><trkpt lat="45.45005443417453" lon="9.167320186370995"><ele>118.0</ele><time>2026-04-08T15:39:21Z</time></trkpt><trkpt lat="45.450078569336206" lon="9.167431779085979"><ele>118.00000000000001</ele><time>2026-04-08T15:39:22Z</time></trkpt><trkpt lat="45.450098068885325" lon="9.167525017103618"><ele>118.0</ele><time>2026-04-08T15:39:23Z</time></trkpt><trkpt lat="45.45011779837118" lon="9.16762056478418"><ele>117.71428571428571</ele><time>2026-04-08T15:39:24Z</time></trkpt><trkpt lat="45.45014834407383" lon="9.167719675851739"><ele>117.42857142857144</ele><time>2026-04-08T15:39:25Z</time></trkpt><trkpt lat="45.45019602097883" lon="9.167801812685006"><ele>117.14285714285715</ele><time>2026-04-08T15:39:26Z</time></trkpt><trkpt lat="45.45025276683272" lon="9.167853845557216"><ele>116.85714285714286</ele><time>2026-04-08T15:39:27Z</time></trkpt><trkpt lat="45.45031681973336" lon="9.167881016469703"><ele>116.57142857142858</ele><time>2026-04-08T15:39:28Z</time></trkpt><trkpt lat="45.450390732974185" lon="9.167900537792665"><ele>116.2857142857143</ele><time>2026-04-08T15:39:29Z</time></trkpt><trkpt lat="45.4504662844621" lon="9.167934365044344"><ele>116.00000000000001</ele><time>2026-04-08T15:39:30Z</time></trkpt><trkpt lat="45.45053059637576" lon="9.168005463563818"><ele>115.99999999999999</ele><time>2026-04-08T15:39:31Z</time></trkpt><trkpt lat="45.450587856401114" lon="9.168102956529601"><ele>116.0</ele><time>2026-04-08T15:39:32Z</time></trkpt><trkpt lat="45.450641651389134" lon="9.168217812010576"><ele>116.0</ele><time>2026-04-08T15:39:33Z</time></trkpt><trkpt lat="45.45069322701714" lon="9.168303526617839"><ele>116.0</ele><time>2026-04-08T15:39:34Z</time></trkpt><trkpt lat="45.45074271504095" lon="9.168382514338248"><ele>115.99999999999999</ele><time>2026-04-08T15:39:35Z</time></trkpt><trkpt lat="45.45079728580478" lon="9.168468680884025"><ele>116.0</ele><time>2026-04-08T15:39:36Z</time></trkpt><trkpt lat="45.45086030812745" lon="9.168564421086577"><ele>116.16666666666666</ele><time>2026-04-08T15:39:37Z</time></trkpt><trkpt lat="45.450929094418875" lon="9.168651338968974"><ele>116.33333333333333</ele><time>2026-04-08T15:39:38Z</time></trkpt><trkpt lat="45.45099717459834" lon="9.168736220503982"><ele>116.5</ele><time>2026-04-08T15:39:39Z</time></trkpt><trkpt lat="45.45106630693901" lon="9.168823347664775"><ele>116.66666666666666</ele><time>2026-04-08T15:39:40Z</time></trkpt><trkpt lat="45.451133375642975" lon="9.168900888426908"><ele>116.83333333333333</ele><time>2026-04-08T15:39:41Z</time></trkpt><trkpt lat="45.45119574419331" lon="9.168971301853041"><ele>117.0</ele><time>2026-04-08T15:39:42Z</time></trkpt><trkpt lat="45.45125445864376" lon="9.169036048827248"><ele>117.16666666666667</ele><time>2026-04-08T15:39:43Z</time></trkpt><trkpt lat="45.4513096337193" lon="9.169097394585108"><ele>117.33333333333334</ele><time>2026-04-08T15:39:44Z</time></trkpt><trkpt lat="45.45136639537133" lon="9.169162136439981"><ele>117.5</ele><time>2026-04-08T15:39:45Z</time></trkpt><trkpt lat="45.45142744543227" lon="9.16922682046632"><ele>117.66666666666667</ele><time>2026-04-08T15:39:46Z</time></trkpt><trkpt lat="45.451495629303686" lon="9.16929867788127"><ele>117.83333333333334</ele><time>2026-04-08T15:39:47Z</time></trkpt><trkpt lat="45.451575582100176" lon="9.169376747547723"><ele>118.0</ele><time>2026-04-08T15:39:48Z</time></trkpt><trkpt lat="45.451657070047496" lon="9.169455246910475"><ele>118.00000000000001</ele><time>2026-04-08T15:39:49Z</time></trkpt><trkpt lat="45.451735301557825" lon="9.169520048078844"><ele>118.0</ele><time>2026-04-08T15:39:50Z</time></trkpt><trkpt lat="45.451805631632055" lon="9.169574292957956"><ele>118.0</ele><time>2026-04-08T15:39:51Z</time></trkpt><trkpt lat="45.45186677762242" lon="9.169620033354034"><ele>118.0</ele><time>2026-04-08T15:39:52Z</time></trkpt><trkpt lat="45.45192174493756" lon="9.169670635730434"><ele>118.00000000000001</ele><time>2026-04-08T15:39:53Z</time></trkpt><trkpt lat="45.45202479077897" lon="9.169745310249587"><ele>118.0</ele><time>2026-04-08T15:39:55Z</time></trkpt><trkpt lat="45.45212931732414" lon="9.169811952912669"><ele>118.00000000000001</ele><time>2026-04-08T15:39:57Z</time></trkpt><trkpt lat="45.45218874685521" lon="9.169846549751"><ele>118.0</ele><time>2026-04-08T15:39:58Z</time></trkpt><trkpt lat="45.45225040332335" lon="9.16988854709379"><ele>118.0</ele><time>2026-04-08T15:39:59Z</time></trkpt><trkpt lat="45.452373728098" lon="9.169958227935531"><ele>118.0</ele><time>2026-04-08T15:40:01Z</time></trkpt><trkpt lat="45.45243684161058" lon="9.16998856442851"><ele>118.00000000000001</ele><time>2026-04-08T15:40:02Z</time></trkpt><trkpt lat="45.45252138005485" lon="9.170025458516353"><ele>118.0</ele><time>2026-04-08T15:40:04Z</time></trkpt><trkpt lat="45.45258448933782" lon="9.170041343968098"><ele>118.16666666666667</ele><time>2026-04-08T15:40:06.999Z</time></trkpt><trkpt lat="45.4526717897541" lon="9.170069621896493"><ele>118.33333333333334</ele><time>2026-04-08T15:40:15.999Z</time></trkpt><trkpt lat="45.452734864551005" lon="9.170083670647616"><ele>118.5</ele><time>2026-04-08T15:40:16.999Z</time></trkpt><trkpt lat="45.452812369369816" lon="9.170106991765001"><ele>118.66666666666666</ele><time>2026-04-08T15:40:17.999Z</time></trkpt><trkpt lat="45.45288226785157" lon="9.17013734319767"><ele>118.83333333333333</ele><time>2026-04-08T15:40:18.999Z</time></trkpt><trkpt lat="45.45298505104204" lon="9.170176981957962"><ele>119.0</ele><time>2026-04-08T15:40:20.999Z</time></trkpt><trkpt lat="45.45308717371401" lon="9.170220843005776"><ele>118.99999999999999</ele><time>2026-04-08T15:40:22.999Z</time></trkpt><trkpt lat="45.45316917934876" lon="9.170253463599186"><ele>119.0</ele><time>2026-04-08T15:40:24.999Z</time></trkpt><trkpt lat="45.45326538746098" lon="9.170289343768124"><ele>119.0</ele><time>2026-04-08T15:40:26.999Z</time></trkpt><trkpt lat="45.45332798582391" lon="9.170309583081433"><ele>119.0</ele><time>2026-04-08T15:40:27.999Z</time></trkpt><trkpt lat="45.45340073035785" lon="9.170333646321765"><ele>118.99999999999999</ele><time>2026-04-08T15:40:28.999Z</time></trkpt><trkpt lat="45.45348109216194" lon="9.170365746340009"><ele>119.0</ele><time>2026-04-08T15:40:29.999Z</time></trkpt><trkpt lat="45.45355037077581" lon="9.170389084332252"><ele>119.0</ele><time>2026-04-08T15:40:30.999Z</time></trkpt><trkpt lat="45.453611561807534" lon="9.170414074911669"><ele>119.0</ele><time>2026-04-08T15:40:32.999Z</time></trkpt><trkpt lat="45.45370164778084" lon="9.170471117029681"><ele>119.0</ele><time>2026-04-08T15:40:37.999Z</time></trkpt><trkpt lat="45.453752349300885" lon="9.170543498069653"><ele>119.0</ele><time>2026-04-08T15:40:38.999Z</time></trkpt><trkpt lat="45.45383116992823" lon="9.170646043318555"><ele>119.0</ele><time>2026-04-08T15:40:39.999Z</time></trkpt><trkpt lat="45.453916220678344" lon="9.170749634803894"><ele>119.66666666666666</ele><time>2026-04-08T15:40:40.999Z</time></trkpt><trkpt lat="45.4540190696225" lon="9.170888914901065"><ele>120.33333333333334</ele><time>2026-04-08T15:40:41.999Z</time></trkpt><trkpt lat="45.454145247191875" lon="9.171067208211523"><ele>121.0</ele><time>2026-04-08T15:40:42.999Z</time></trkpt><trkpt lat="45.454252141418564" lon="9.171234806135926"><ele>121.0</ele><time>2026-04-08T15:40:43.999Z</time></trkpt><trkpt lat="45.454342755663625" lon="9.171379369967152"><ele>121.0</ele><time>2026-04-08T15:40:44.999Z</time></trkpt><trkpt lat="45.45442831970368" lon="9.171500511036962"><ele>121.0</ele><time>2026-04-08T15:40:45.999Z</time></trkpt><trkpt lat="45.45450304958308" lon="9.171608011396417"><ele>121.0</ele><time>2026-04-08T15:40:46.999Z</time></trkpt><trkpt lat="45.45456110286519" lon="9.171692636762304"><ele>121.0</ele><time>2026-04-08T15:40:47.999Z</time></trkpt><trkpt lat="45.45460405482738" lon="9.171759976484607"><ele>122.0</ele><time>2026-04-08T15:40:48.999Z</time></trkpt><trkpt lat="45.45466176136481" lon="9.171888017360123"><ele>123.0</ele><time>2026-04-08T15:40:50.999Z</time></trkpt><trkpt lat="45.45472126281143" lon="9.172006060666961"><ele>124.0</ele><time>2026-04-08T15:40:52.999Z</time></trkpt><trkpt lat="45.45477716152978" lon="9.172095461803817"><ele>125.0</ele><time>2026-04-08T15:40:54.999Z</time></trkpt><trkpt lat="45.45483316160112" lon="9.172145078789448"><ele>126.0</ele><time>2026-04-08T15:40:57.999Z</time></trkpt><trkpt lat="45.45490942919569" lon="9.172260096674668"><ele>126.19999999999999</ele><time>2026-04-08T15:41:18Z</time></trkpt><trkpt lat="45.455004367154714" lon="9.172363005676166"><ele>126.39999999999999</ele><time>2026-04-08T15:41:20Z</time></trkpt><trkpt lat="45.455087213083615" lon="9.172465750815467"><ele>126.6</ele><time>2026-04-08T15:41:22Z</time></trkpt><trkpt lat="45.455182245186116" lon="9.172596039113383"><ele>126.8</ele><time>2026-04-08T15:41:24Z</time></trkpt><trkpt lat="45.45523137065853" lon="9.172674959194266"><ele>127.0</ele><time>2026-04-08T15:41:25Z</time></trkpt><trkpt lat="45.455276702940054" lon="9.172753106954982"><ele>127.00000000000001</ele><time>2026-04-08T15:41:26Z</time></trkpt><trkpt lat="45.455327665683335" lon="9.172837251841653"><ele>127.0</ele><time>2026-04-08T15:41:27Z</time></trkpt><trkpt lat="45.455390002953145" lon="9.172916180901122"><ele>127.0</ele><time>2026-04-08T15:41:28Z</time></trkpt><trkpt lat="45.45545332170607" lon="9.172990515588396"><ele>127.0</ele><time>2026-04-08T15:41:29Z</time></trkpt><trkpt lat="45.45551621196716" lon="9.173081865114703"><ele>127.00000000000001</ele><time>2026-04-08T15:41:30Z</time></trkpt><trkpt lat="45.45558593160995" lon="9.17318889128312"><ele>127.0</ele><time>2026-04-08T15:41:31Z</time></trkpt><trkpt lat="45.45566450825994" lon="9.173290339950706"><ele>125.8</ele><time>2026-04-08T15:41:32Z</time></trkpt><trkpt lat="45.455730365072704" lon="9.173388297694645"><ele>124.6</ele><time>2026-04-08T15:41:33Z</time></trkpt><trkpt lat="45.45579262160544" lon="9.173473409402117"><ele>123.39999999999999</ele><time>2026-04-08T15:41:34Z</time></trkpt><trkpt lat="45.455847920362" lon="9.173556602880227"><ele>122.19999999999999</ele><time>2026-04-08T15:41:35Z</time></trkpt><trkpt lat="45.45592276628891" lon="9.173645091946101"><ele>121.0</ele><time>2026-04-08T15:41:36Z</time></trkpt><trkpt lat="45.45600048233811" lon="9.173746609502713"><ele>121.0</ele><time>2026-04-08T15:41:37Z</time></trkpt><trkpt lat="45.45607878041971" lon="9.173862317665526"><ele>121.0</ele><time>2026-04-08T15:41:38Z</time></trkpt><trkpt lat="45.456157267802915" lon="9.173977872194934"><ele>121.0</ele><time>2026-04-08T15:41:39Z</time></trkpt><trkpt lat="45.45622236948124" lon="9.174070893433703"><ele>121.0</ele><time>2026-04-08T15:41:40Z</time></trkpt><trkpt lat="45.45628274488731" lon="9.174161133281382"><ele>121.0</ele><time>2026-04-08T15:41:41Z</time></trkpt><trkpt lat="45.45633701676005" lon="9.174246757572147"><ele>122.33333333333334</ele><time>2026-04-08T15:41:42Z</time></trkpt><trkpt lat="45.4563777692859" lon="9.174315542707573"><ele>123.66666666666667</ele><time>2026-04-08T15:41:43Z</time></trkpt><trkpt lat="45.456459984861" lon="9.174442518870023"><ele>125.0</ele><time>2026-04-08T15:41:45Z</time></trkpt><trkpt lat="45.45651055799885" lon="9.174517939421253"><ele>126.33333333333334</ele><time>2026-04-08T15:41:46Z</time></trkpt><trkpt lat="45.45657315985732" lon="9.174606164626779"><ele>127.66666666666667</ele><time>2026-04-08T15:41:47Z</time></trkpt><trkpt lat="45.45663913103893" lon="9.174709598686738"><ele>129.0</ele><time>2026-04-08T15:41:48Z</time></trkpt><trkpt lat="45.456709223389105" lon="9.174811664684464"><ele>129.16666666666666</ele><time>2026-04-08T15:41:49Z</time></trkpt><trkpt lat="45.45677341378176" lon="9.174913950526491"><ele>129.33333333333334</ele><time>2026-04-08T15:41:50Z</time></trkpt><trkpt lat="45.456833369300796" lon="9.175002842748173"><ele>129.5</ele><time>2026-04-08T15:41:51Z</time></trkpt><trkpt lat="45.45688252883494" lon="9.175080393575888"><ele>129.66666666666669</ele><time>2026-04-08T15:41:52Z</time></trkpt><trkpt lat="45.45693642012898" lon="9.175159531412637"><ele>129.83333333333334</ele><time>2026-04-08T15:41:53Z</time></trkpt><trkpt lat="45.45698723052184" lon="9.175239485043752"><ele>130.0</ele><time>2026-04-08T15:41:54Z</time></trkpt><trkpt lat="45.457034598581565" lon="9.175312065331225"><ele>130.0</ele><time>2026-04-08T15:41:55Z</time></trkpt><trkpt lat="45.45710702347817" lon="9.17543297295742"><ele>130.0</ele><time>2026-04-08T15:41:57Z</time></trkpt><trkpt lat="45.457169640738954" lon="9.175486490403987"><ele>130.0</ele><time>2026-04-08T15:42:00Z</time></trkpt><trkpt lat="45.45727034344258" lon="9.175461324084585"><ele>130.0</ele><time>2026-04-08T15:42:04Z</time></trkpt><trkpt lat="45.45736816851136" lon="9.175311365433567"><ele>130.0</ele><time>2026-04-08T15:42:06Z</time></trkpt><trkpt lat="45.45742670212835" lon="9.175224392100832"><ele>129.2</ele><time>2026-04-08T15:42:06.999Z</time></trkpt><trkpt lat="45.457483975966085" lon="9.175147009133088"><ele>128.4</ele><time>2026-04-08T15:42:07.999Z</time></trkpt><trkpt lat="45.45753414583014" lon="9.175087064246286"><ele>127.6</ele><time>2026-04-08T15:42:08.999Z</time></trkpt><trkpt lat="45.45761196244038" lon="9.17498018121567"><ele>126.8</ele><time>2026-04-08T15:42:10.999Z</time></trkpt><trkpt lat="45.45767937504641" lon="9.174881798196035"><ele>126.0</ele><time>2026-04-08T15:42:12.999Z</time></trkpt><trkpt lat="45.4577543168703" lon="9.174777288996172"><ele>125.75</ele><time>2026-04-08T15:42:14.999Z</time></trkpt><trkpt lat="45.457842102601404" lon="9.17466070102575"><ele>125.5</ele><time>2026-04-08T15:42:16.999Z</time></trkpt><trkpt lat="45.457919460974445" lon="9.174544322221285"><ele>125.25</ele><time>2026-04-08T15:42:18.999Z</time></trkpt><trkpt lat="45.457991123514084" lon="9.174433351189736"><ele>125.0</ele><time>2026-04-08T15:42:20.999Z</time></trkpt><trkpt lat="45.45807369217386" lon="9.174318747481987"><ele>125.16666666666666</ele><time>2026-04-08T15:42:22.999Z</time></trkpt><trkpt lat="45.45816270439769" lon="9.174203885063047"><ele>125.33333333333333</ele><time>2026-04-08T15:42:24.999Z</time></trkpt><trkpt lat="45.458210482677" lon="9.17413557030243"><ele>125.5</ele><time>2026-04-08T15:42:25.999Z</time></trkpt><trkpt lat="45.45825781458298" lon="9.174065438276466"><ele>125.66666666666666</ele><time>2026-04-08T15:42:26.999Z</time></trkpt><trkpt lat="45.45834080650553" lon="9.173955414701146"><ele>125.83333333333333</ele><time>2026-04-08T15:42:28.999Z</time></trkpt><trkpt lat="45.458376188161644" lon="9.173854533030665"><ele>126.0</ele><time>2026-04-08T15:42:29.999Z</time></trkpt><trkpt lat="45.45835196107098" lon="9.17369719713078"><ele>126.0</ele><time>2026-04-08T15:42:31.999Z</time></trkpt><trkpt lat="45.45831758748216" lon="9.173609148243845"><ele>126.0</ele><time>2026-04-08T15:42:32.999Z</time></trkpt><trkpt lat="45.45829811019655" lon="9.173506635991723"><ele>126.0</ele><time>2026-04-08T15:42:33.999Z</time></trkpt><trkpt lat="45.45827581153609" lon="9.173392599331176"><ele>126.0</ele><time>2026-04-08T15:42:34.999Z</time></trkpt><trkpt lat="45.45825462281702" lon="9.173263749772591"><ele>126.0</ele><time>2026-04-08T15:42:35.999Z</time></trkpt><trkpt lat="45.458227483037724" lon="9.17313968053896"><ele>126.0</ele><time>2026-04-08T15:42:36.999Z</time></trkpt><trkpt lat="45.45820197441215" lon="9.17301369777112"><ele>126.16666666666667</ele><time>2026-04-08T15:42:37.999Z</time></trkpt><trkpt lat="45.458179512226764" lon="9.172897204676007"><ele>126.33333333333334</ele><time>2026-04-08T15:42:38.999Z</time></trkpt><trkpt lat="45.45815865281948" lon="9.172783720162641"><ele>126.5</ele><time>2026-04-08T15:42:39.999Z</time></trkpt><trkpt lat="45.45813952833273" lon="9.172681518432865"><ele>126.66666666666667</ele><time>2026-04-08T15:42:40.999Z</time></trkpt><trkpt lat="45.45811748585782" lon="9.17258358342219"><ele>126.83333333333334</ele><time>2026-04-08T15:42:41.999Z</time></trkpt><trkpt lat="45.45810505492777" lon="9.172483889117629"><ele>127.0</ele><time>2026-04-08T15:42:42.999Z</time></trkpt><trkpt lat="45.45808791681916" lon="9.172388737754915"><ele>126.8</ele><time>2026-04-08T15:42:43.999Z</time></trkpt><trkpt lat="45.4580894089062" lon="9.17228719291148"><ele>126.6</ele><time>2026-04-08T15:42:44.999Z</time></trkpt><trkpt lat="45.45811793713956" lon="9.17211909387835"><ele>126.39999999999999</ele><time>2026-04-08T15:42:46.999Z</time></trkpt><trkpt lat="45.45817197889925" lon="9.172038363061722"><ele>126.19999999999999</ele><time>2026-04-08T15:42:48.999Z</time></trkpt><trkpt lat="45.458079263894845" lon="9.171918268590897"><ele>126.0</ele><time>2026-04-08T15:42:49.999Z</time></trkpt><trkpt lat="45.45795320368498" lon="9.17180222436808"><ele>125.5</ele><time>2026-04-08T15:42:51.999Z</time></trkpt><trkpt lat="45.45788664318081" lon="9.171723884441125"><ele>125.0</ele><time>2026-04-08T15:42:53.999Z</time></trkpt><trkpt lat="45.457843476050215" lon="9.171644904290245"><ele>124.5</ele><time>2026-04-08T15:42:55.999Z</time></trkpt><trkpt lat="45.45775606920772" lon="9.171769424439633"><ele>124.0</ele><time>2026-04-08T15:42:57.999Z</time></trkpt><trkpt lat="45.457772085321395" lon="9.171906796332813"><ele>123.5</ele><time>2026-04-08T15:42:59.999Z</time></trkpt><trkpt lat="45.45777551336275" lon="9.172001966971415"><ele>123.0</ele><time>2026-04-08T15:43:00.999Z</time></trkpt><trkpt lat="45.457785865443036" lon="9.172110485453565"><ele>123.0</ele><time>2026-04-08T15:43:01.999Z</time></trkpt><trkpt lat="45.457794315021474" lon="9.172236768158854"><ele>123.00000000000001</ele><time>2026-04-08T15:43:02.999Z</time></trkpt><trkpt lat="45.45780018306765" lon="9.172418775267865"><ele>123.00000000000001</ele><time>2026-04-08T15:43:03.999Z</time></trkpt><trkpt lat="45.45781642596793" lon="9.172577882785347"><ele>123.0</ele><time>2026-04-08T15:43:04.999Z</time></trkpt><trkpt lat="45.457730087594086" lon="9.172653781441387"><ele>123.0</ele><time>2026-04-08T15:43:10Z</time></trkpt><trkpt lat="45.45767302566364" lon="9.172721031126246"><ele>123.0</ele><time>2026-04-08T15:43:12Z</time></trkpt><trkpt lat="45.45762873365602" lon="9.172787877087984"><ele>123.0</ele><time>2026-04-08T15:43:14Z</time></trkpt><trkpt lat="45.45758266049037" lon="9.172854151904176"><ele>123.0</ele><time>2026-04-08T15:43:16Z</time></trkpt><trkpt lat="45.457556852950106" lon="9.172943371592977"><ele>123.0</ele><time>2026-04-08T15:43:20Z</time></trkpt></trkseg></trk></gpx>